<?xml version="1.0" encoding="UTF-8" standalone="no" ?>
<gpx xmlns="http://www.topografix.com/GPX/1/1" xmlns:xsi="http://www.w3.org/2001/XMLSchema-instance" xsi:schemaLocation="http://www.topografix.com/GPX/1/1 http://www.topografix.com/GPX/1/1/gpx.xsd" version="1.1" creator="VisuGPX - https://www.visugpx.com">
  <metadata>
    <name>Rocamadour - Labastide-Murat</name>
    <desc><![CDATA[Etape du sentier de Compostelle entre Rocamadour et Labastide-Murat par le GR46.]]></desc>
  </metadata>
  <trk>
    <name><![CDATA[2023-04-16 08:46]]></name>
    <desc><![CDATA[<p>Heure de départ: 08:46 16 avr. 2023<br/>Heure d'arrivée: 17:53 16 avr. 2023<br/>Distance: 25,8 km (09:07)<br/>Temps déplacement: 05:57<br/>Vitesse moyenne: 2,83 km/h<br/>Vitesse moyenne mouv.: 4,33 km/h<br/>Vitesse Max.: 9,18 km/h<br/>Altitude minimale: 167 m<br/>Altitude maximale: 450 m<br/>Vitesse de montée: 251,9 m/h<br/>Vitesse de descente: -309,7 m/h<br/>Gain d'altitude: 1355 m<br/>Perte d'altitude: -1139 m<br/>Temps de montée: 05:22<br/>Temps de descente: 03:40<br/></p><hr align="center" width="480" style="height: 2px; width: 517px"/>]]></desc>
    <trkseg>
      <trkpt lat="44.80136" lon="1.61955">
        <ele>173.4</ele>
        <time>2023-04-16T06:46:24Z</time>
      </trkpt>
      <trkpt lat="44.80131" lon="1.61943">
        <ele>172.6</ele>
        <time>2023-04-16T06:47:30Z</time>
      </trkpt>
      <trkpt lat="44.8013" lon="1.61931">
        <ele>176.6</ele>
        <time>2023-04-16T06:48:12Z</time>
      </trkpt>
      <trkpt lat="44.80132" lon="1.61918">
        <ele>182.1</ele>
        <time>2023-04-16T06:48:52Z</time>
      </trkpt>
      <trkpt lat="44.80124" lon="1.61928">
        <ele>175.4</ele>
        <time>2023-04-16T06:54:43Z</time>
      </trkpt>
      <trkpt lat="44.80124" lon="1.61913">
        <ele>180.2</ele>
        <time>2023-04-16T06:55:53Z</time>
      </trkpt>
      <trkpt lat="44.80124" lon="1.619">
        <ele>185.1</ele>
        <time>2023-04-16T06:56:00Z</time>
      </trkpt>
      <trkpt lat="44.80118" lon="1.6189">
        <ele>185</ele>
        <time>2023-04-16T06:56:11Z</time>
      </trkpt>
      <trkpt lat="44.80108" lon="1.61886">
        <ele>181.7</ele>
        <time>2023-04-16T06:56:23Z</time>
      </trkpt>
      <trkpt lat="44.80099" lon="1.61887">
        <ele>177.4</ele>
        <time>2023-04-16T06:56:29Z</time>
      </trkpt>
      <trkpt lat="44.8009" lon="1.61884">
        <ele>175</ele>
        <time>2023-04-16T06:56:39Z</time>
      </trkpt>
      <trkpt lat="44.80082" lon="1.61878">
        <ele>172.9</ele>
        <time>2023-04-16T06:56:50Z</time>
      </trkpt>
      <trkpt lat="44.80074" lon="1.61872">
        <ele>172.2</ele>
        <time>2023-04-16T06:57:00Z</time>
      </trkpt>
      <trkpt lat="44.80067" lon="1.61863">
        <ele>172.6</ele>
        <time>2023-04-16T06:57:10Z</time>
      </trkpt>
      <trkpt lat="44.80065" lon="1.61849">
        <ele>176.9</ele>
        <time>2023-04-16T06:57:18Z</time>
      </trkpt>
      <trkpt lat="44.80058" lon="1.6184">
        <ele>176.1</ele>
        <time>2023-04-16T06:57:25Z</time>
      </trkpt>
      <trkpt lat="44.80049" lon="1.61839">
        <ele>173.6</ele>
        <time>2023-04-16T06:57:31Z</time>
      </trkpt>
      <trkpt lat="44.80042" lon="1.6183">
        <ele>175.7</ele>
        <time>2023-04-16T06:57:40Z</time>
      </trkpt>
      <trkpt lat="44.80034" lon="1.61823">
        <ele>177.5</ele>
        <time>2023-04-16T06:57:53Z</time>
      </trkpt>
      <trkpt lat="44.80024" lon="1.61825">
        <ele>173.9</ele>
        <time>2023-04-16T06:57:58Z</time>
      </trkpt>
      <trkpt lat="44.80015" lon="1.61828">
        <ele>171.1</ele>
        <time>2023-04-16T06:58:03Z</time>
      </trkpt>
      <trkpt lat="44.80006" lon="1.61828">
        <ele>169.5</ele>
        <time>2023-04-16T06:58:09Z</time>
      </trkpt>
      <trkpt lat="44.79997" lon="1.61825">
        <ele>169.3</ele>
        <time>2023-04-16T06:58:16Z</time>
      </trkpt>
      <trkpt lat="44.79989" lon="1.6183">
        <ele>167.4</ele>
        <time>2023-04-16T06:58:43Z</time>
      </trkpt>
      <trkpt lat="44.79976" lon="1.61827">
        <ele>167.4</ele>
        <time>2023-04-16T06:59:04Z</time>
      </trkpt>
      <trkpt lat="44.79961" lon="1.61823">
        <ele>165</ele>
        <time>2023-04-16T06:59:06Z</time>
      </trkpt>
      <trkpt lat="44.79951" lon="1.61825">
        <ele>161.8</ele>
        <time>2023-04-16T06:59:08Z</time>
      </trkpt>
      <trkpt lat="44.79943" lon="1.61807">
        <ele>166.4</ele>
        <time>2023-04-16T06:59:11Z</time>
      </trkpt>
      <trkpt lat="44.79932" lon="1.61804">
        <ele>166.7</ele>
        <time>2023-04-16T06:59:12Z</time>
      </trkpt>
      <trkpt lat="44.79928" lon="1.61791">
        <ele>172.5</ele>
        <time>2023-04-16T06:59:31Z</time>
      </trkpt>
      <trkpt lat="44.79919" lon="1.61783">
        <ele>173.5</ele>
        <time>2023-04-16T06:59:37Z</time>
      </trkpt>
      <trkpt lat="44.79913" lon="1.61774">
        <ele>177</ele>
        <time>2023-04-16T06:59:45Z</time>
      </trkpt>
      <trkpt lat="44.79904" lon="1.61776">
        <ele>173</ele>
        <time>2023-04-16T06:59:50Z</time>
      </trkpt>
      <trkpt lat="44.79894" lon="1.61771">
        <ele>173.4</ele>
        <time>2023-04-16T06:59:56Z</time>
      </trkpt>
      <trkpt lat="44.79885" lon="1.61767">
        <ele>173.2</ele>
        <time>2023-04-16T07:00:03Z</time>
      </trkpt>
      <trkpt lat="44.79875" lon="1.61767">
        <ele>169.3</ele>
        <time>2023-04-16T07:00:09Z</time>
      </trkpt>
      <trkpt lat="44.79865" lon="1.61766">
        <ele>165.6</ele>
        <time>2023-04-16T07:00:16Z</time>
      </trkpt>
      <trkpt lat="44.79855" lon="1.61766">
        <ele>161.9</ele>
        <time>2023-04-16T07:00:26Z</time>
      </trkpt>
      <trkpt lat="44.79852" lon="1.61753">
        <ele>165.6</ele>
        <time>2023-04-16T07:00:35Z</time>
      </trkpt>
      <trkpt lat="44.79846" lon="1.6174">
        <ele>169.4</ele>
        <time>2023-04-16T07:00:42Z</time>
      </trkpt>
      <trkpt lat="44.79837" lon="1.61734">
        <ele>167.6</ele>
        <time>2023-04-16T07:00:48Z</time>
      </trkpt>
      <trkpt lat="44.79831" lon="1.61724">
        <ele>166.3</ele>
        <time>2023-04-16T07:00:54Z</time>
      </trkpt>
      <trkpt lat="44.79825" lon="1.61715">
        <ele>166.6</ele>
        <time>2023-04-16T07:01:05Z</time>
      </trkpt>
      <trkpt lat="44.79816" lon="1.61715">
        <ele>161.4</ele>
        <time>2023-04-16T07:01:11Z</time>
      </trkpt>
      <trkpt lat="44.79806" lon="1.61714">
        <ele>155.9</ele>
        <time>2023-04-16T07:01:19Z</time>
      </trkpt>
      <trkpt lat="44.79797" lon="1.61712">
        <ele>152.2</ele>
        <time>2023-04-16T07:01:30Z</time>
      </trkpt>
      <trkpt lat="44.79788" lon="1.61708">
        <ele>149.6</ele>
        <time>2023-04-16T07:01:39Z</time>
      </trkpt>
      <trkpt lat="44.79779" lon="1.6171">
        <ele>144.9</ele>
        <time>2023-04-16T07:01:48Z</time>
      </trkpt>
      <trkpt lat="44.79769" lon="1.61708">
        <ele>142.8</ele>
        <time>2023-04-16T07:01:55Z</time>
      </trkpt>
      <trkpt lat="44.79764" lon="1.61696">
        <ele>144.6</ele>
        <time>2023-04-16T07:02:01Z</time>
      </trkpt>
      <trkpt lat="44.79761" lon="1.61682">
        <ele>146.5</ele>
        <time>2023-04-16T07:02:07Z</time>
      </trkpt>
      <trkpt lat="44.79754" lon="1.61674">
        <ele>144.7</ele>
        <time>2023-04-16T07:02:15Z</time>
      </trkpt>
      <trkpt lat="44.79748" lon="1.61664">
        <ele>144.1</ele>
        <time>2023-04-16T07:02:23Z</time>
      </trkpt>
      <trkpt lat="44.79745" lon="1.61652">
        <ele>145.3</ele>
        <time>2023-04-16T07:02:31Z</time>
      </trkpt>
      <trkpt lat="44.79738" lon="1.61642">
        <ele>144.7</ele>
        <time>2023-04-16T07:02:41Z</time>
      </trkpt>
      <trkpt lat="44.79731" lon="1.61632">
        <ele>145.5</ele>
        <time>2023-04-16T07:02:53Z</time>
      </trkpt>
      <trkpt lat="44.79722" lon="1.61625">
        <ele>143.4</ele>
        <time>2023-04-16T07:03:00Z</time>
      </trkpt>
      <trkpt lat="44.79714" lon="1.61622">
        <ele>142</ele>
        <time>2023-04-16T07:03:08Z</time>
      </trkpt>
      <trkpt lat="44.79704" lon="1.61617">
        <ele>139.9</ele>
        <time>2023-04-16T07:03:17Z</time>
      </trkpt>
      <trkpt lat="44.79695" lon="1.61613">
        <ele>137.1</ele>
        <time>2023-04-16T07:03:27Z</time>
      </trkpt>
      <trkpt lat="44.79688" lon="1.61621">
        <ele>136</ele>
        <time>2023-04-16T07:04:28Z</time>
      </trkpt>
      <trkpt lat="44.79679" lon="1.61626">
        <ele>135.1</ele>
        <time>2023-04-16T07:04:42Z</time>
      </trkpt>
      <trkpt lat="44.7967" lon="1.61628">
        <ele>134.3</ele>
        <time>2023-04-16T07:04:50Z</time>
      </trkpt>
      <trkpt lat="44.79661" lon="1.61631">
        <ele>134.3</ele>
        <time>2023-04-16T07:04:58Z</time>
      </trkpt>
      <trkpt lat="44.79653" lon="1.61638">
        <ele>135</ele>
        <time>2023-04-16T07:05:10Z</time>
      </trkpt>
      <trkpt lat="44.79646" lon="1.61629">
        <ele>135</ele>
        <time>2023-04-16T07:05:18Z</time>
      </trkpt>
      <trkpt lat="44.79639" lon="1.61619">
        <ele>134.6</ele>
        <time>2023-04-16T07:05:25Z</time>
      </trkpt>
      <trkpt lat="44.79633" lon="1.6161">
        <ele>135.5</ele>
        <time>2023-04-16T07:05:35Z</time>
      </trkpt>
      <trkpt lat="44.79625" lon="1.61602">
        <ele>136.6</ele>
        <time>2023-04-16T07:05:46Z</time>
      </trkpt>
      <trkpt lat="44.79617" lon="1.61594">
        <ele>136.7</ele>
        <time>2023-04-16T07:05:55Z</time>
      </trkpt>
      <trkpt lat="44.7961" lon="1.61585">
        <ele>135.9</ele>
        <time>2023-04-16T07:06:03Z</time>
      </trkpt>
      <trkpt lat="44.79602" lon="1.61577">
        <ele>136.9</ele>
        <time>2023-04-16T07:06:11Z</time>
      </trkpt>
      <trkpt lat="44.79594" lon="1.61569">
        <ele>138.5</ele>
        <time>2023-04-16T07:06:22Z</time>
      </trkpt>
      <trkpt lat="44.7959" lon="1.61557">
        <ele>139.1</ele>
        <time>2023-04-16T07:06:33Z</time>
      </trkpt>
      <trkpt lat="44.79588" lon="1.61545">
        <ele>138.4</ele>
        <time>2023-04-16T07:06:46Z</time>
      </trkpt>
      <trkpt lat="44.7958" lon="1.61537">
        <ele>140</ele>
        <time>2023-04-16T07:06:56Z</time>
      </trkpt>
      <trkpt lat="44.79573" lon="1.61529">
        <ele>142</ele>
        <time>2023-04-16T07:07:07Z</time>
      </trkpt>
      <trkpt lat="44.79566" lon="1.6152">
        <ele>143.3</ele>
        <time>2023-04-16T07:07:17Z</time>
      </trkpt>
      <trkpt lat="44.79558" lon="1.61514">
        <ele>145.4</ele>
        <time>2023-04-16T07:07:29Z</time>
      </trkpt>
      <trkpt lat="44.7955" lon="1.61505">
        <ele>147</ele>
        <time>2023-04-16T07:07:40Z</time>
      </trkpt>
      <trkpt lat="44.79545" lon="1.61494">
        <ele>148.4</ele>
        <time>2023-04-16T07:07:53Z</time>
      </trkpt>
      <trkpt lat="44.79538" lon="1.61486">
        <ele>151</ele>
        <time>2023-04-16T07:08:06Z</time>
      </trkpt>
      <trkpt lat="44.79532" lon="1.61476">
        <ele>152.2</ele>
        <time>2023-04-16T07:08:22Z</time>
      </trkpt>
      <trkpt lat="44.79525" lon="1.61465">
        <ele>154.1</ele>
        <time>2023-04-16T07:08:34Z</time>
      </trkpt>
      <trkpt lat="44.79517" lon="1.61459">
        <ele>157</ele>
        <time>2023-04-16T07:08:47Z</time>
      </trkpt>
      <trkpt lat="44.79512" lon="1.61448">
        <ele>158</ele>
        <time>2023-04-16T07:09:01Z</time>
      </trkpt>
      <trkpt lat="44.79506" lon="1.61439">
        <ele>160.4</ele>
        <time>2023-04-16T07:09:15Z</time>
      </trkpt>
      <trkpt lat="44.79501" lon="1.6145">
        <ele>164.2</ele>
        <time>2023-04-16T07:09:28Z</time>
      </trkpt>
      <trkpt lat="44.79501" lon="1.61463">
        <ele>165.9</ele>
        <time>2023-04-16T07:09:40Z</time>
      </trkpt>
      <trkpt lat="44.79501" lon="1.61476">
        <ele>168.2</ele>
        <time>2023-04-16T07:09:51Z</time>
      </trkpt>
      <trkpt lat="44.79501" lon="1.61489">
        <ele>170</ele>
        <time>2023-04-16T07:10:03Z</time>
      </trkpt>
      <trkpt lat="44.79502" lon="1.61502">
        <ele>171.3</ele>
        <time>2023-04-16T07:10:15Z</time>
      </trkpt>
      <trkpt lat="44.79504" lon="1.61515">
        <ele>172.4</ele>
        <time>2023-04-16T07:10:28Z</time>
      </trkpt>
      <trkpt lat="44.79495" lon="1.61513">
        <ele>177.4</ele>
        <time>2023-04-16T07:10:52Z</time>
      </trkpt>
      <trkpt lat="44.79492" lon="1.615">
        <ele>177.4</ele>
        <time>2023-04-16T07:11:05Z</time>
      </trkpt>
      <trkpt lat="44.79488" lon="1.61487">
        <ele>178.2</ele>
        <time>2023-04-16T07:11:17Z</time>
      </trkpt>
      <trkpt lat="44.79483" lon="1.61475">
        <ele>179.5</ele>
        <time>2023-04-16T07:11:29Z</time>
      </trkpt>
      <trkpt lat="44.79476" lon="1.61466">
        <ele>182.5</ele>
        <time>2023-04-16T07:11:40Z</time>
      </trkpt>
      <trkpt lat="44.79473" lon="1.61454">
        <ele>183.5</ele>
        <time>2023-04-16T07:11:54Z</time>
      </trkpt>
      <trkpt lat="44.79469" lon="1.61442">
        <ele>185.7</ele>
        <time>2023-04-16T07:12:07Z</time>
      </trkpt>
      <trkpt lat="44.79465" lon="1.6143">
        <ele>188.3</ele>
        <time>2023-04-16T07:12:20Z</time>
      </trkpt>
      <trkpt lat="44.79466" lon="1.61417">
        <ele>186</ele>
        <time>2023-04-16T07:12:32Z</time>
      </trkpt>
      <trkpt lat="44.79466" lon="1.61403">
        <ele>184</ele>
        <time>2023-04-16T07:12:44Z</time>
      </trkpt>
      <trkpt lat="44.79466" lon="1.61389">
        <ele>182.7</ele>
        <time>2023-04-16T07:12:53Z</time>
      </trkpt>
      <trkpt lat="44.79464" lon="1.61375">
        <ele>182.8</ele>
        <time>2023-04-16T07:13:03Z</time>
      </trkpt>
      <trkpt lat="44.79459" lon="1.61364">
        <ele>189.5</ele>
        <time>2023-04-16T07:13:13Z</time>
      </trkpt>
      <trkpt lat="44.79457" lon="1.6135">
        <ele>192.4</ele>
        <time>2023-04-16T07:13:22Z</time>
      </trkpt>
      <trkpt lat="44.79459" lon="1.61337">
        <ele>191.5</ele>
        <time>2023-04-16T07:13:32Z</time>
      </trkpt>
      <trkpt lat="44.79464" lon="1.61325">
        <ele>188.1</ele>
        <time>2023-04-16T07:13:40Z</time>
      </trkpt>
      <trkpt lat="44.79468" lon="1.61314">
        <ele>186.1</ele>
        <time>2023-04-16T07:14:03Z</time>
      </trkpt>
      <trkpt lat="44.79473" lon="1.61302">
        <ele>185.9</ele>
        <time>2023-04-16T07:14:42Z</time>
      </trkpt>
      <trkpt lat="44.79474" lon="1.61289">
        <ele>192.4</ele>
        <time>2023-04-16T07:14:57Z</time>
      </trkpt>
      <trkpt lat="44.79481" lon="1.61278">
        <ele>192.6</ele>
        <time>2023-04-16T07:15:07Z</time>
      </trkpt>
      <trkpt lat="44.79488" lon="1.61271">
        <ele>189.6</ele>
        <time>2023-04-16T07:15:19Z</time>
      </trkpt>
      <trkpt lat="44.79496" lon="1.61263">
        <ele>187.5</ele>
        <time>2023-04-16T07:15:30Z</time>
      </trkpt>
      <trkpt lat="44.79502" lon="1.61253">
        <ele>188.2</ele>
        <time>2023-04-16T07:15:39Z</time>
      </trkpt>
      <trkpt lat="44.79507" lon="1.61242">
        <ele>190.6</ele>
        <time>2023-04-16T07:15:48Z</time>
      </trkpt>
      <trkpt lat="44.79512" lon="1.6123">
        <ele>193.9</ele>
        <time>2023-04-16T07:15:57Z</time>
      </trkpt>
      <trkpt lat="44.79516" lon="1.61217">
        <ele>198.4</ele>
        <time>2023-04-16T07:16:07Z</time>
      </trkpt>
      <trkpt lat="44.79522" lon="1.61208">
        <ele>199.9</ele>
        <time>2023-04-16T07:16:18Z</time>
      </trkpt>
      <trkpt lat="44.79531" lon="1.61202">
        <ele>197.9</ele>
        <time>2023-04-16T07:16:28Z</time>
      </trkpt>
      <trkpt lat="44.7954" lon="1.61198">
        <ele>193.1</ele>
        <time>2023-04-16T07:16:37Z</time>
      </trkpt>
      <trkpt lat="44.79548" lon="1.61191">
        <ele>191.7</ele>
        <time>2023-04-16T07:16:46Z</time>
      </trkpt>
      <trkpt lat="44.7955" lon="1.61178">
        <ele>198.1</ele>
        <time>2023-04-16T07:16:56Z</time>
      </trkpt>
      <trkpt lat="44.79554" lon="1.61166">
        <ele>202.8</ele>
        <time>2023-04-16T07:17:06Z</time>
      </trkpt>
      <trkpt lat="44.79559" lon="1.61154">
        <ele>201.5</ele>
        <time>2023-04-16T07:17:19Z</time>
      </trkpt>
      <trkpt lat="44.79559" lon="1.61141">
        <ele>204.2</ele>
        <time>2023-04-16T07:17:32Z</time>
      </trkpt>
      <trkpt lat="44.7956" lon="1.61128">
        <ele>205.1</ele>
        <time>2023-04-16T07:17:45Z</time>
      </trkpt>
      <trkpt lat="44.79561" lon="1.61114">
        <ele>205.6</ele>
        <time>2023-04-16T07:17:58Z</time>
      </trkpt>
      <trkpt lat="44.79559" lon="1.61102">
        <ele>206.7</ele>
        <time>2023-04-16T07:18:13Z</time>
      </trkpt>
      <trkpt lat="44.79557" lon="1.61089">
        <ele>208.4</ele>
        <time>2023-04-16T07:18:27Z</time>
      </trkpt>
      <trkpt lat="44.79548" lon="1.61093">
        <ele>211.9</ele>
        <time>2023-04-16T07:18:40Z</time>
      </trkpt>
      <trkpt lat="44.7954" lon="1.61098">
        <ele>214.9</ele>
        <time>2023-04-16T07:18:55Z</time>
      </trkpt>
      <trkpt lat="44.79531" lon="1.61103">
        <ele>218</ele>
        <time>2023-04-16T07:19:07Z</time>
      </trkpt>
      <trkpt lat="44.79524" lon="1.61111">
        <ele>220.5</ele>
        <time>2023-04-16T07:19:26Z</time>
      </trkpt>
      <trkpt lat="44.79515" lon="1.61109">
        <ele>221.7</ele>
        <time>2023-04-16T07:21:38Z</time>
      </trkpt>
      <trkpt lat="44.79505" lon="1.61111">
        <ele>223.2</ele>
        <time>2023-04-16T07:21:56Z</time>
      </trkpt>
      <trkpt lat="44.79496" lon="1.61113">
        <ele>224.7</ele>
        <time>2023-04-16T07:22:07Z</time>
      </trkpt>
      <trkpt lat="44.79487" lon="1.61115">
        <ele>226.3</ele>
        <time>2023-04-16T07:22:19Z</time>
      </trkpt>
      <trkpt lat="44.79478" lon="1.61117">
        <ele>227.8</ele>
        <time>2023-04-16T07:22:30Z</time>
      </trkpt>
      <trkpt lat="44.79469" lon="1.61116">
        <ele>229.6</ele>
        <time>2023-04-16T07:22:42Z</time>
      </trkpt>
      <trkpt lat="44.7946" lon="1.61112">
        <ele>231.6</ele>
        <time>2023-04-16T07:22:54Z</time>
      </trkpt>
      <trkpt lat="44.79452" lon="1.61106">
        <ele>233.4</ele>
        <time>2023-04-16T07:23:09Z</time>
      </trkpt>
      <trkpt lat="44.79442" lon="1.61106">
        <ele>235.7</ele>
        <time>2023-04-16T07:23:22Z</time>
      </trkpt>
      <trkpt lat="44.79434" lon="1.61098">
        <ele>237.8</ele>
        <time>2023-04-16T07:23:33Z</time>
      </trkpt>
      <trkpt lat="44.79428" lon="1.61088">
        <ele>239.2</ele>
        <time>2023-04-16T07:23:43Z</time>
      </trkpt>
      <trkpt lat="44.79419" lon="1.61089">
        <ele>241.6</ele>
        <time>2023-04-16T07:23:54Z</time>
      </trkpt>
      <trkpt lat="44.7941" lon="1.61093">
        <ele>243.6</ele>
        <time>2023-04-16T07:24:04Z</time>
      </trkpt>
      <trkpt lat="44.79401" lon="1.61094">
        <ele>245.6</ele>
        <time>2023-04-16T07:24:14Z</time>
      </trkpt>
      <trkpt lat="44.79392" lon="1.61096">
        <ele>247.5</ele>
        <time>2023-04-16T07:24:25Z</time>
      </trkpt>
      <trkpt lat="44.79382" lon="1.611">
        <ele>249.3</ele>
        <time>2023-04-16T07:24:37Z</time>
      </trkpt>
      <trkpt lat="44.79373" lon="1.61104">
        <ele>251.3</ele>
        <time>2023-04-16T07:24:47Z</time>
      </trkpt>
      <trkpt lat="44.79363" lon="1.61106">
        <ele>253.3</ele>
        <time>2023-04-16T07:24:59Z</time>
      </trkpt>
      <trkpt lat="44.79355" lon="1.61111">
        <ele>254.7</ele>
        <time>2023-04-16T07:25:09Z</time>
      </trkpt>
      <trkpt lat="44.79345" lon="1.61113">
        <ele>255.8</ele>
        <time>2023-04-16T07:25:19Z</time>
      </trkpt>
      <trkpt lat="44.79335" lon="1.61116">
        <ele>257</ele>
        <time>2023-04-16T07:25:29Z</time>
      </trkpt>
      <trkpt lat="44.79326" lon="1.61118">
        <ele>258.3</ele>
        <time>2023-04-16T07:25:42Z</time>
      </trkpt>
      <trkpt lat="44.79316" lon="1.61119">
        <ele>259.8</ele>
        <time>2023-04-16T07:25:53Z</time>
      </trkpt>
      <trkpt lat="44.79307" lon="1.61116">
        <ele>261</ele>
        <time>2023-04-16T07:26:02Z</time>
      </trkpt>
      <trkpt lat="44.79298" lon="1.61113">
        <ele>261.6</ele>
        <time>2023-04-16T07:26:11Z</time>
      </trkpt>
      <trkpt lat="44.79288" lon="1.61113">
        <ele>262.3</ele>
        <time>2023-04-16T07:26:21Z</time>
      </trkpt>
      <trkpt lat="44.79279" lon="1.61109">
        <ele>262.8</ele>
        <time>2023-04-16T07:26:31Z</time>
      </trkpt>
      <trkpt lat="44.79271" lon="1.61105">
        <ele>263.2</ele>
        <time>2023-04-16T07:26:40Z</time>
      </trkpt>
      <trkpt lat="44.79262" lon="1.61102">
        <ele>263.7</ele>
        <time>2023-04-16T07:26:50Z</time>
      </trkpt>
      <trkpt lat="44.79253" lon="1.611">
        <ele>264</ele>
        <time>2023-04-16T07:27:00Z</time>
      </trkpt>
      <trkpt lat="44.79243" lon="1.61097">
        <ele>264.3</ele>
        <time>2023-04-16T07:27:09Z</time>
      </trkpt>
      <trkpt lat="44.79234" lon="1.61094">
        <ele>264.7</ele>
        <time>2023-04-16T07:27:17Z</time>
      </trkpt>
      <trkpt lat="44.79224" lon="1.61091">
        <ele>265.1</ele>
        <time>2023-04-16T07:27:26Z</time>
      </trkpt>
      <trkpt lat="44.79215" lon="1.61089">
        <ele>265.3</ele>
        <time>2023-04-16T07:27:34Z</time>
      </trkpt>
      <trkpt lat="44.79205" lon="1.61088">
        <ele>265.2</ele>
        <time>2023-04-16T07:27:43Z</time>
      </trkpt>
      <trkpt lat="44.79196" lon="1.61085">
        <ele>265.1</ele>
        <time>2023-04-16T07:27:51Z</time>
      </trkpt>
      <trkpt lat="44.79186" lon="1.61083">
        <ele>265.3</ele>
        <time>2023-04-16T07:28:00Z</time>
      </trkpt>
      <trkpt lat="44.79177" lon="1.61082">
        <ele>265.5</ele>
        <time>2023-04-16T07:28:09Z</time>
      </trkpt>
      <trkpt lat="44.79168" lon="1.61079">
        <ele>265.6</ele>
        <time>2023-04-16T07:28:18Z</time>
      </trkpt>
      <trkpt lat="44.79159" lon="1.61074">
        <ele>265.5</ele>
        <time>2023-04-16T07:28:26Z</time>
      </trkpt>
      <trkpt lat="44.7915" lon="1.6107">
        <ele>265.4</ele>
        <time>2023-04-16T07:28:34Z</time>
      </trkpt>
      <trkpt lat="44.79141" lon="1.61067">
        <ele>265.2</ele>
        <time>2023-04-16T07:28:42Z</time>
      </trkpt>
      <trkpt lat="44.79132" lon="1.61065">
        <ele>264.9</ele>
        <time>2023-04-16T07:28:51Z</time>
      </trkpt>
      <trkpt lat="44.79122" lon="1.61062">
        <ele>264.6</ele>
        <time>2023-04-16T07:29:00Z</time>
      </trkpt>
      <trkpt lat="44.79113" lon="1.61061">
        <ele>264.4</ele>
        <time>2023-04-16T07:29:09Z</time>
      </trkpt>
      <trkpt lat="44.79103" lon="1.61059">
        <ele>264.2</ele>
        <time>2023-04-16T07:29:17Z</time>
      </trkpt>
      <trkpt lat="44.79094" lon="1.61057">
        <ele>264.1</ele>
        <time>2023-04-16T07:29:26Z</time>
      </trkpt>
      <trkpt lat="44.79084" lon="1.61054">
        <ele>263.9</ele>
        <time>2023-04-16T07:29:34Z</time>
      </trkpt>
      <trkpt lat="44.79075" lon="1.6105">
        <ele>263.6</ele>
        <time>2023-04-16T07:29:42Z</time>
      </trkpt>
      <trkpt lat="44.79066" lon="1.61044">
        <ele>263.2</ele>
        <time>2023-04-16T07:29:50Z</time>
      </trkpt>
      <trkpt lat="44.79058" lon="1.61037">
        <ele>263</ele>
        <time>2023-04-16T07:30:01Z</time>
      </trkpt>
      <trkpt lat="44.7905" lon="1.6103">
        <ele>262.8</ele>
        <time>2023-04-16T07:30:08Z</time>
      </trkpt>
      <trkpt lat="44.79041" lon="1.61023">
        <ele>262.4</ele>
        <time>2023-04-16T07:30:15Z</time>
      </trkpt>
      <trkpt lat="44.79032" lon="1.61018">
        <ele>262.1</ele>
        <time>2023-04-16T07:30:23Z</time>
      </trkpt>
      <trkpt lat="44.79023" lon="1.61016">
        <ele>261.7</ele>
        <time>2023-04-16T07:30:30Z</time>
      </trkpt>
      <trkpt lat="44.79014" lon="1.61011">
        <ele>261.3</ele>
        <time>2023-04-16T07:30:38Z</time>
      </trkpt>
      <trkpt lat="44.79005" lon="1.61006">
        <ele>261</ele>
        <time>2023-04-16T07:30:45Z</time>
      </trkpt>
      <trkpt lat="44.78997" lon="1.60998">
        <ele>260.9</ele>
        <time>2023-04-16T07:30:52Z</time>
      </trkpt>
      <trkpt lat="44.7899" lon="1.60992">
        <ele>260.7</ele>
        <time>2023-04-16T07:30:59Z</time>
      </trkpt>
      <trkpt lat="44.78981" lon="1.60984">
        <ele>260.7</ele>
        <time>2023-04-16T07:31:07Z</time>
      </trkpt>
      <trkpt lat="44.78973" lon="1.60979">
        <ele>260.8</ele>
        <time>2023-04-16T07:31:14Z</time>
      </trkpt>
      <trkpt lat="44.78964" lon="1.60975">
        <ele>260.9</ele>
        <time>2023-04-16T07:31:20Z</time>
      </trkpt>
      <trkpt lat="44.78956" lon="1.60969">
        <ele>261</ele>
        <time>2023-04-16T07:31:28Z</time>
      </trkpt>
      <trkpt lat="44.78947" lon="1.60965">
        <ele>261</ele>
        <time>2023-04-16T07:38:34Z</time>
      </trkpt>
      <trkpt lat="44.78938" lon="1.60967">
        <ele>261</ele>
        <time>2023-04-16T07:38:41Z</time>
      </trkpt>
      <trkpt lat="44.78929" lon="1.60966">
        <ele>261.1</ele>
        <time>2023-04-16T07:38:49Z</time>
      </trkpt>
      <trkpt lat="44.7892" lon="1.60962">
        <ele>261.3</ele>
        <time>2023-04-16T07:38:57Z</time>
      </trkpt>
      <trkpt lat="44.78911" lon="1.60958">
        <ele>261.4</ele>
        <time>2023-04-16T07:39:05Z</time>
      </trkpt>
      <trkpt lat="44.78901" lon="1.60954">
        <ele>261.3</ele>
        <time>2023-04-16T07:39:13Z</time>
      </trkpt>
      <trkpt lat="44.78892" lon="1.60954">
        <ele>261.1</ele>
        <time>2023-04-16T07:39:21Z</time>
      </trkpt>
      <trkpt lat="44.78882" lon="1.60948">
        <ele>261</ele>
        <time>2023-04-16T07:39:28Z</time>
      </trkpt>
      <trkpt lat="44.78873" lon="1.60941">
        <ele>261</ele>
        <time>2023-04-16T07:39:35Z</time>
      </trkpt>
      <trkpt lat="44.78865" lon="1.60933">
        <ele>261</ele>
        <time>2023-04-16T07:39:42Z</time>
      </trkpt>
      <trkpt lat="44.78856" lon="1.60926">
        <ele>260.9</ele>
        <time>2023-04-16T07:39:49Z</time>
      </trkpt>
      <trkpt lat="44.78849" lon="1.60918">
        <ele>260.6</ele>
        <time>2023-04-16T07:39:55Z</time>
      </trkpt>
      <trkpt lat="44.7884" lon="1.6091">
        <ele>260</ele>
        <time>2023-04-16T07:40:02Z</time>
      </trkpt>
      <trkpt lat="44.78833" lon="1.60902">
        <ele>259.5</ele>
        <time>2023-04-16T07:40:09Z</time>
      </trkpt>
      <trkpt lat="44.78825" lon="1.60896">
        <ele>259.2</ele>
        <time>2023-04-16T07:40:16Z</time>
      </trkpt>
      <trkpt lat="44.78817" lon="1.60887">
        <ele>258.9</ele>
        <time>2023-04-16T07:40:24Z</time>
      </trkpt>
      <trkpt lat="44.78808" lon="1.60885">
        <ele>258.9</ele>
        <time>2023-04-16T07:40:32Z</time>
      </trkpt>
      <trkpt lat="44.78799" lon="1.60891">
        <ele>259.1</ele>
        <time>2023-04-16T07:41:26Z</time>
      </trkpt>
      <trkpt lat="44.78792" lon="1.609">
        <ele>259.4</ele>
        <time>2023-04-16T07:41:40Z</time>
      </trkpt>
      <trkpt lat="44.78789" lon="1.60912">
        <ele>259.8</ele>
        <time>2023-04-16T07:41:48Z</time>
      </trkpt>
      <trkpt lat="44.78787" lon="1.60925">
        <ele>260.3</ele>
        <time>2023-04-16T07:41:56Z</time>
      </trkpt>
      <trkpt lat="44.78784" lon="1.60937">
        <ele>260.7</ele>
        <time>2023-04-16T07:42:05Z</time>
      </trkpt>
      <trkpt lat="44.78781" lon="1.6095">
        <ele>261.2</ele>
        <time>2023-04-16T07:42:14Z</time>
      </trkpt>
      <trkpt lat="44.7878" lon="1.60963">
        <ele>261.7</ele>
        <time>2023-04-16T07:42:23Z</time>
      </trkpt>
      <trkpt lat="44.78778" lon="1.60976">
        <ele>262</ele>
        <time>2023-04-16T07:42:31Z</time>
      </trkpt>
      <trkpt lat="44.78775" lon="1.60988">
        <ele>262.1</ele>
        <time>2023-04-16T07:42:39Z</time>
      </trkpt>
      <trkpt lat="44.78772" lon="1.61">
        <ele>262.2</ele>
        <time>2023-04-16T07:42:47Z</time>
      </trkpt>
      <trkpt lat="44.78769" lon="1.61013">
        <ele>262.6</ele>
        <time>2023-04-16T07:42:55Z</time>
      </trkpt>
      <trkpt lat="44.78765" lon="1.61025">
        <ele>263</ele>
        <time>2023-04-16T07:43:04Z</time>
      </trkpt>
      <trkpt lat="44.78761" lon="1.61038">
        <ele>263.1</ele>
        <time>2023-04-16T07:43:13Z</time>
      </trkpt>
      <trkpt lat="44.78757" lon="1.61051">
        <ele>263.4</ele>
        <time>2023-04-16T07:43:21Z</time>
      </trkpt>
      <trkpt lat="44.78752" lon="1.61062">
        <ele>263.8</ele>
        <time>2023-04-16T07:43:29Z</time>
      </trkpt>
      <trkpt lat="44.78745" lon="1.61071">
        <ele>264.1</ele>
        <time>2023-04-16T07:43:37Z</time>
      </trkpt>
      <trkpt lat="44.78738" lon="1.61079">
        <ele>264.4</ele>
        <time>2023-04-16T07:43:45Z</time>
      </trkpt>
      <trkpt lat="44.7873" lon="1.61086">
        <ele>264.7</ele>
        <time>2023-04-16T07:43:53Z</time>
      </trkpt>
      <trkpt lat="44.78721" lon="1.61088">
        <ele>265</ele>
        <time>2023-04-16T07:44:01Z</time>
      </trkpt>
      <trkpt lat="44.78711" lon="1.6109">
        <ele>265.1</ele>
        <time>2023-04-16T07:44:14Z</time>
      </trkpt>
      <trkpt lat="44.78702" lon="1.61084">
        <ele>265</ele>
        <time>2023-04-16T07:44:23Z</time>
      </trkpt>
      <trkpt lat="44.78693" lon="1.61078">
        <ele>264.8</ele>
        <time>2023-04-16T07:44:30Z</time>
      </trkpt>
      <trkpt lat="44.78684" lon="1.61074">
        <ele>264.6</ele>
        <time>2023-04-16T07:44:38Z</time>
      </trkpt>
      <trkpt lat="44.78675" lon="1.61069">
        <ele>264.5</ele>
        <time>2023-04-16T07:44:45Z</time>
      </trkpt>
      <trkpt lat="44.78665" lon="1.61066">
        <ele>264.3</ele>
        <time>2023-04-16T07:44:53Z</time>
      </trkpt>
      <trkpt lat="44.78656" lon="1.61063">
        <ele>263.9</ele>
        <time>2023-04-16T07:45:01Z</time>
      </trkpt>
      <trkpt lat="44.78647" lon="1.61064">
        <ele>263.6</ele>
        <time>2023-04-16T07:45:09Z</time>
      </trkpt>
      <trkpt lat="44.78637" lon="1.61065">
        <ele>263.2</ele>
        <time>2023-04-16T07:45:18Z</time>
      </trkpt>
      <trkpt lat="44.78628" lon="1.61067">
        <ele>262.8</ele>
        <time>2023-04-16T07:45:26Z</time>
      </trkpt>
      <trkpt lat="44.78619" lon="1.61073">
        <ele>262.7</ele>
        <time>2023-04-16T07:45:35Z</time>
      </trkpt>
      <trkpt lat="44.78612" lon="1.6108">
        <ele>262.8</ele>
        <time>2023-04-16T07:45:43Z</time>
      </trkpt>
      <trkpt lat="44.78604" lon="1.6109">
        <ele>262.6</ele>
        <time>2023-04-16T07:45:53Z</time>
      </trkpt>
      <trkpt lat="44.78598" lon="1.61098">
        <ele>262.3</ele>
        <time>2023-04-16T07:46:02Z</time>
      </trkpt>
      <trkpt lat="44.7859" lon="1.61106">
        <ele>262.1</ele>
        <time>2023-04-16T07:46:11Z</time>
      </trkpt>
      <trkpt lat="44.78582" lon="1.61112">
        <ele>261.9</ele>
        <time>2023-04-16T07:46:19Z</time>
      </trkpt>
      <trkpt lat="44.78575" lon="1.61121">
        <ele>261.4</ele>
        <time>2023-04-16T07:46:28Z</time>
      </trkpt>
      <trkpt lat="44.78571" lon="1.61134">
        <ele>261.1</ele>
        <time>2023-04-16T07:46:36Z</time>
      </trkpt>
      <trkpt lat="44.78568" lon="1.61146">
        <ele>261</ele>
        <time>2023-04-16T07:46:44Z</time>
      </trkpt>
      <trkpt lat="44.78565" lon="1.6116">
        <ele>261</ele>
        <time>2023-04-16T07:46:52Z</time>
      </trkpt>
      <trkpt lat="44.78562" lon="1.61173">
        <ele>260.7</ele>
        <time>2023-04-16T07:47:01Z</time>
      </trkpt>
      <trkpt lat="44.78559" lon="1.61185">
        <ele>260.3</ele>
        <time>2023-04-16T07:47:13Z</time>
      </trkpt>
      <trkpt lat="44.78555" lon="1.61198">
        <ele>259.8</ele>
        <time>2023-04-16T07:47:22Z</time>
      </trkpt>
      <trkpt lat="44.78551" lon="1.61209">
        <ele>258.9</ele>
        <time>2023-04-16T07:47:31Z</time>
      </trkpt>
      <trkpt lat="44.7855" lon="1.61223">
        <ele>258.2</ele>
        <time>2023-04-16T07:47:40Z</time>
      </trkpt>
      <trkpt lat="44.7855" lon="1.61237">
        <ele>257.4</ele>
        <time>2023-04-16T07:47:49Z</time>
      </trkpt>
      <trkpt lat="44.78552" lon="1.6125">
        <ele>257.1</ele>
        <time>2023-04-16T07:47:58Z</time>
      </trkpt>
      <trkpt lat="44.78551" lon="1.61264">
        <ele>255.4</ele>
        <time>2023-04-16T07:48:08Z</time>
      </trkpt>
      <trkpt lat="44.7855" lon="1.61277">
        <ele>253.9</ele>
        <time>2023-04-16T07:48:17Z</time>
      </trkpt>
      <trkpt lat="44.78551" lon="1.6129">
        <ele>252.4</ele>
        <time>2023-04-16T07:48:27Z</time>
      </trkpt>
      <trkpt lat="44.78551" lon="1.61304">
        <ele>250.2</ele>
        <time>2023-04-16T07:48:38Z</time>
      </trkpt>
      <trkpt lat="44.7855" lon="1.61317">
        <ele>247.8</ele>
        <time>2023-04-16T07:48:47Z</time>
      </trkpt>
      <trkpt lat="44.78554" lon="1.6133">
        <ele>247.6</ele>
        <time>2023-04-16T07:48:56Z</time>
      </trkpt>
      <trkpt lat="44.78557" lon="1.61342">
        <ele>247.7</ele>
        <time>2023-04-16T07:49:04Z</time>
      </trkpt>
      <trkpt lat="44.78557" lon="1.61357">
        <ele>246.1</ele>
        <time>2023-04-16T07:49:14Z</time>
      </trkpt>
      <trkpt lat="44.78558" lon="1.6137">
        <ele>245.2</ele>
        <time>2023-04-16T07:49:22Z</time>
      </trkpt>
      <trkpt lat="44.7856" lon="1.61383">
        <ele>245.2</ele>
        <time>2023-04-16T07:49:30Z</time>
      </trkpt>
      <trkpt lat="44.7856" lon="1.61397">
        <ele>244.6</ele>
        <time>2023-04-16T07:49:38Z</time>
      </trkpt>
      <trkpt lat="44.78558" lon="1.6141">
        <ele>243.2</ele>
        <time>2023-04-16T07:49:47Z</time>
      </trkpt>
      <trkpt lat="44.78557" lon="1.61423">
        <ele>242.3</ele>
        <time>2023-04-16T07:49:55Z</time>
      </trkpt>
      <trkpt lat="44.78558" lon="1.61436">
        <ele>242</ele>
        <time>2023-04-16T07:50:05Z</time>
      </trkpt>
      <trkpt lat="44.78554" lon="1.61449">
        <ele>240.9</ele>
        <time>2023-04-16T07:50:14Z</time>
      </trkpt>
      <trkpt lat="44.78551" lon="1.61461">
        <ele>240.8</ele>
        <time>2023-04-16T07:50:23Z</time>
      </trkpt>
      <trkpt lat="44.78544" lon="1.6147">
        <ele>240.5</ele>
        <time>2023-04-16T07:50:31Z</time>
      </trkpt>
      <trkpt lat="44.78536" lon="1.61478">
        <ele>240.8</ele>
        <time>2023-04-16T07:50:43Z</time>
      </trkpt>
      <trkpt lat="44.78527" lon="1.61481">
        <ele>240.6</ele>
        <time>2023-04-16T07:50:53Z</time>
      </trkpt>
      <trkpt lat="44.78518" lon="1.61486">
        <ele>241.9</ele>
        <time>2023-04-16T07:51:03Z</time>
      </trkpt>
      <trkpt lat="44.78509" lon="1.61483">
        <ele>241.9</ele>
        <time>2023-04-16T07:51:12Z</time>
      </trkpt>
      <trkpt lat="44.78502" lon="1.61475">
        <ele>241.3</ele>
        <time>2023-04-16T07:51:21Z</time>
      </trkpt>
      <trkpt lat="44.78493" lon="1.61469">
        <ele>241.3</ele>
        <time>2023-04-16T07:51:30Z</time>
      </trkpt>
      <trkpt lat="44.78486" lon="1.6146">
        <ele>240.5</ele>
        <time>2023-04-16T07:51:37Z</time>
      </trkpt>
      <trkpt lat="44.78478" lon="1.61452">
        <ele>239.9</ele>
        <time>2023-04-16T07:51:45Z</time>
      </trkpt>
      <trkpt lat="44.7847" lon="1.61447">
        <ele>239.6</ele>
        <time>2023-04-16T07:51:52Z</time>
      </trkpt>
      <trkpt lat="44.78461" lon="1.61443">
        <ele>238.9</ele>
        <time>2023-04-16T07:51:59Z</time>
      </trkpt>
      <trkpt lat="44.78451" lon="1.61445">
        <ele>239.8</ele>
        <time>2023-04-16T07:52:07Z</time>
      </trkpt>
      <trkpt lat="44.78441" lon="1.61446">
        <ele>239.9</ele>
        <time>2023-04-16T07:52:15Z</time>
      </trkpt>
      <trkpt lat="44.78432" lon="1.61447">
        <ele>239.2</ele>
        <time>2023-04-16T07:52:23Z</time>
      </trkpt>
      <trkpt lat="44.78423" lon="1.61454">
        <ele>239.4</ele>
        <time>2023-04-16T07:52:31Z</time>
      </trkpt>
      <trkpt lat="44.78413" lon="1.61455">
        <ele>238.3</ele>
        <time>2023-04-16T07:52:40Z</time>
      </trkpt>
      <trkpt lat="44.78404" lon="1.61458">
        <ele>237.7</ele>
        <time>2023-04-16T07:52:48Z</time>
      </trkpt>
      <trkpt lat="44.78394" lon="1.61462">
        <ele>236.8</ele>
        <time>2023-04-16T07:52:56Z</time>
      </trkpt>
      <trkpt lat="44.78385" lon="1.61464">
        <ele>235.8</ele>
        <time>2023-04-16T07:53:04Z</time>
      </trkpt>
      <trkpt lat="44.78375" lon="1.61465">
        <ele>234.2</ele>
        <time>2023-04-16T07:53:13Z</time>
      </trkpt>
      <trkpt lat="44.78365" lon="1.61465">
        <ele>232.6</ele>
        <time>2023-04-16T07:53:22Z</time>
      </trkpt>
      <trkpt lat="44.78355" lon="1.61468">
        <ele>231</ele>
        <time>2023-04-16T07:53:31Z</time>
      </trkpt>
      <trkpt lat="44.78347" lon="1.61473">
        <ele>229.5</ele>
        <time>2023-04-16T07:53:40Z</time>
      </trkpt>
      <trkpt lat="44.7834" lon="1.61481">
        <ele>228.4</ele>
        <time>2023-04-16T07:53:48Z</time>
      </trkpt>
      <trkpt lat="44.78333" lon="1.6149">
        <ele>227.1</ele>
        <time>2023-04-16T07:53:56Z</time>
      </trkpt>
      <trkpt lat="44.78326" lon="1.615">
        <ele>225.4</ele>
        <time>2023-04-16T07:54:04Z</time>
      </trkpt>
      <trkpt lat="44.78318" lon="1.61508">
        <ele>223</ele>
        <time>2023-04-16T07:54:12Z</time>
      </trkpt>
      <trkpt lat="44.78311" lon="1.61515">
        <ele>220.6</ele>
        <time>2023-04-16T07:54:21Z</time>
      </trkpt>
      <trkpt lat="44.78306" lon="1.61526">
        <ele>219</ele>
        <time>2023-04-16T07:54:30Z</time>
      </trkpt>
      <trkpt lat="44.78301" lon="1.61538">
        <ele>217.2</ele>
        <time>2023-04-16T07:54:41Z</time>
      </trkpt>
      <trkpt lat="44.78295" lon="1.61548">
        <ele>214.2</ele>
        <time>2023-04-16T07:54:51Z</time>
      </trkpt>
      <trkpt lat="44.78288" lon="1.61558">
        <ele>210.5</ele>
        <time>2023-04-16T07:55:01Z</time>
      </trkpt>
      <trkpt lat="44.78284" lon="1.6157">
        <ele>209.7</ele>
        <time>2023-04-16T07:55:11Z</time>
      </trkpt>
      <trkpt lat="44.7828" lon="1.61583">
        <ele>209</ele>
        <time>2023-04-16T07:55:20Z</time>
      </trkpt>
      <trkpt lat="44.78275" lon="1.61595">
        <ele>206.7</ele>
        <time>2023-04-16T07:55:30Z</time>
      </trkpt>
      <trkpt lat="44.7827" lon="1.61607">
        <ele>205.5</ele>
        <time>2023-04-16T07:55:40Z</time>
      </trkpt>
      <trkpt lat="44.78265" lon="1.61618">
        <ele>205.2</ele>
        <time>2023-04-16T07:55:59Z</time>
      </trkpt>
      <trkpt lat="44.78258" lon="1.61624">
        <ele>202.6</ele>
        <time>2023-04-16T07:58:39Z</time>
      </trkpt>
      <trkpt lat="44.78248" lon="1.61625">
        <ele>198</ele>
        <time>2023-04-16T07:58:58Z</time>
      </trkpt>
      <trkpt lat="44.78241" lon="1.61635">
        <ele>197.6</ele>
        <time>2023-04-16T07:59:09Z</time>
      </trkpt>
      <trkpt lat="44.78234" lon="1.61644">
        <ele>197.9</ele>
        <time>2023-04-16T07:59:18Z</time>
      </trkpt>
      <trkpt lat="44.78225" lon="1.6165">
        <ele>196.3</ele>
        <time>2023-04-16T07:59:27Z</time>
      </trkpt>
      <trkpt lat="44.78216" lon="1.61655">
        <ele>194.3</ele>
        <time>2023-04-16T07:59:36Z</time>
      </trkpt>
      <trkpt lat="44.78207" lon="1.61659">
        <ele>193</ele>
        <time>2023-04-16T07:59:44Z</time>
      </trkpt>
      <trkpt lat="44.78199" lon="1.61665">
        <ele>192.6</ele>
        <time>2023-04-16T07:59:52Z</time>
      </trkpt>
      <trkpt lat="44.78191" lon="1.61672">
        <ele>192.6</ele>
        <time>2023-04-16T08:00:00Z</time>
      </trkpt>
      <trkpt lat="44.78183" lon="1.6168">
        <ele>192.5</ele>
        <time>2023-04-16T08:00:09Z</time>
      </trkpt>
      <trkpt lat="44.78175" lon="1.61687">
        <ele>191.8</ele>
        <time>2023-04-16T08:00:17Z</time>
      </trkpt>
      <trkpt lat="44.78167" lon="1.61693">
        <ele>190.7</ele>
        <time>2023-04-16T08:00:24Z</time>
      </trkpt>
      <trkpt lat="44.7816" lon="1.61702">
        <ele>189.6</ele>
        <time>2023-04-16T08:00:31Z</time>
      </trkpt>
      <trkpt lat="44.78153" lon="1.61711">
        <ele>188.6</ele>
        <time>2023-04-16T08:00:38Z</time>
      </trkpt>
      <trkpt lat="44.78146" lon="1.61721">
        <ele>187.9</ele>
        <time>2023-04-16T08:00:46Z</time>
      </trkpt>
      <trkpt lat="44.78139" lon="1.61731">
        <ele>186.7</ele>
        <time>2023-04-16T08:00:54Z</time>
      </trkpt>
      <trkpt lat="44.78133" lon="1.6174">
        <ele>186.2</ele>
        <time>2023-04-16T08:01:05Z</time>
      </trkpt>
      <trkpt lat="44.78129" lon="1.61728">
        <ele>184.9</ele>
        <time>2023-04-16T08:01:21Z</time>
      </trkpt>
      <trkpt lat="44.78133" lon="1.61715">
        <ele>184.2</ele>
        <time>2023-04-16T08:01:32Z</time>
      </trkpt>
      <trkpt lat="44.7814" lon="1.61706">
        <ele>183.7</ele>
        <time>2023-04-16T08:01:41Z</time>
      </trkpt>
      <trkpt lat="44.78139" lon="1.61694">
        <ele>181.2</ele>
        <time>2023-04-16T08:03:40Z</time>
      </trkpt>
      <trkpt lat="44.78133" lon="1.61685">
        <ele>182.1</ele>
        <time>2023-04-16T08:03:51Z</time>
      </trkpt>
      <trkpt lat="44.78124" lon="1.61678">
        <ele>183.2</ele>
        <time>2023-04-16T08:04:01Z</time>
      </trkpt>
      <trkpt lat="44.78116" lon="1.61673">
        <ele>184.2</ele>
        <time>2023-04-16T08:04:08Z</time>
      </trkpt>
      <trkpt lat="44.78108" lon="1.61666">
        <ele>185.8</ele>
        <time>2023-04-16T08:04:17Z</time>
      </trkpt>
      <trkpt lat="44.781" lon="1.61657">
        <ele>188.1</ele>
        <time>2023-04-16T08:04:26Z</time>
      </trkpt>
      <trkpt lat="44.78092" lon="1.61649">
        <ele>188.6</ele>
        <time>2023-04-16T08:04:36Z</time>
      </trkpt>
      <trkpt lat="44.78083" lon="1.61641">
        <ele>187.4</ele>
        <time>2023-04-16T08:04:46Z</time>
      </trkpt>
      <trkpt lat="44.78076" lon="1.61634">
        <ele>189.4</ele>
        <time>2023-04-16T08:04:55Z</time>
      </trkpt>
      <trkpt lat="44.78071" lon="1.61622">
        <ele>191.2</ele>
        <time>2023-04-16T08:05:05Z</time>
      </trkpt>
      <trkpt lat="44.78064" lon="1.61612">
        <ele>191.2</ele>
        <time>2023-04-16T08:05:14Z</time>
      </trkpt>
      <trkpt lat="44.78057" lon="1.61603">
        <ele>191.3</ele>
        <time>2023-04-16T08:05:23Z</time>
      </trkpt>
      <trkpt lat="44.78048" lon="1.61596">
        <ele>192.9</ele>
        <time>2023-04-16T08:05:33Z</time>
      </trkpt>
      <trkpt lat="44.7804" lon="1.6159">
        <ele>193.6</ele>
        <time>2023-04-16T08:05:41Z</time>
      </trkpt>
      <trkpt lat="44.78033" lon="1.61582">
        <ele>193.2</ele>
        <time>2023-04-16T08:05:49Z</time>
      </trkpt>
      <trkpt lat="44.78026" lon="1.61573">
        <ele>193.8</ele>
        <time>2023-04-16T08:05:57Z</time>
      </trkpt>
      <trkpt lat="44.78021" lon="1.61562">
        <ele>194.7</ele>
        <time>2023-04-16T08:06:05Z</time>
      </trkpt>
      <trkpt lat="44.78017" lon="1.6155">
        <ele>196.1</ele>
        <time>2023-04-16T08:06:14Z</time>
      </trkpt>
      <trkpt lat="44.78013" lon="1.61538">
        <ele>198</ele>
        <time>2023-04-16T08:06:23Z</time>
      </trkpt>
      <trkpt lat="44.78011" lon="1.61526">
        <ele>199.1</ele>
        <time>2023-04-16T08:06:32Z</time>
      </trkpt>
      <trkpt lat="44.78012" lon="1.61512">
        <ele>200.3</ele>
        <time>2023-04-16T08:06:40Z</time>
      </trkpt>
      <trkpt lat="44.78013" lon="1.61499">
        <ele>201.3</ele>
        <time>2023-04-16T08:06:51Z</time>
      </trkpt>
      <trkpt lat="44.7801" lon="1.61486">
        <ele>201.5</ele>
        <time>2023-04-16T08:07:01Z</time>
      </trkpt>
      <trkpt lat="44.78007" lon="1.61473">
        <ele>201.6</ele>
        <time>2023-04-16T08:07:09Z</time>
      </trkpt>
      <trkpt lat="44.78005" lon="1.61458">
        <ele>201.4</ele>
        <time>2023-04-16T08:07:17Z</time>
      </trkpt>
      <trkpt lat="44.78004" lon="1.61445">
        <ele>201.3</ele>
        <time>2023-04-16T08:07:24Z</time>
      </trkpt>
      <trkpt lat="44.78003" lon="1.61432">
        <ele>202.9</ele>
        <time>2023-04-16T08:07:32Z</time>
      </trkpt>
      <trkpt lat="44.77995" lon="1.61425">
        <ele>203.2</ele>
        <time>2023-04-16T08:07:40Z</time>
      </trkpt>
      <trkpt lat="44.77987" lon="1.61421">
        <ele>203.9</ele>
        <time>2023-04-16T08:07:48Z</time>
      </trkpt>
      <trkpt lat="44.77977" lon="1.61418">
        <ele>204.1</ele>
        <time>2023-04-16T08:07:56Z</time>
      </trkpt>
      <trkpt lat="44.77968" lon="1.61418">
        <ele>204.4</ele>
        <time>2023-04-16T08:08:02Z</time>
      </trkpt>
      <trkpt lat="44.77959" lon="1.61417">
        <ele>205</ele>
        <time>2023-04-16T08:08:11Z</time>
      </trkpt>
      <trkpt lat="44.77949" lon="1.61415">
        <ele>206</ele>
        <time>2023-04-16T08:08:20Z</time>
      </trkpt>
      <trkpt lat="44.77939" lon="1.61415">
        <ele>206.9</ele>
        <time>2023-04-16T08:08:29Z</time>
      </trkpt>
      <trkpt lat="44.7793" lon="1.61413">
        <ele>208</ele>
        <time>2023-04-16T08:08:35Z</time>
      </trkpt>
      <trkpt lat="44.7792" lon="1.61413">
        <ele>208.5</ele>
        <time>2023-04-16T08:08:42Z</time>
      </trkpt>
      <trkpt lat="44.77911" lon="1.61413">
        <ele>209.4</ele>
        <time>2023-04-16T08:08:49Z</time>
      </trkpt>
      <trkpt lat="44.77902" lon="1.61413">
        <ele>210.2</ele>
        <time>2023-04-16T08:08:59Z</time>
      </trkpt>
      <trkpt lat="44.77893" lon="1.6141">
        <ele>211.7</ele>
        <time>2023-04-16T08:09:08Z</time>
      </trkpt>
      <trkpt lat="44.77883" lon="1.61408">
        <ele>213.7</ele>
        <time>2023-04-16T08:09:16Z</time>
      </trkpt>
      <trkpt lat="44.77874" lon="1.61408">
        <ele>215.9</ele>
        <time>2023-04-16T08:09:24Z</time>
      </trkpt>
      <trkpt lat="44.77864" lon="1.61412">
        <ele>216.6</ele>
        <time>2023-04-16T08:09:33Z</time>
      </trkpt>
      <trkpt lat="44.77856" lon="1.61417">
        <ele>217.1</ele>
        <time>2023-04-16T08:09:42Z</time>
      </trkpt>
      <trkpt lat="44.77847" lon="1.61424">
        <ele>218</ele>
        <time>2023-04-16T08:09:50Z</time>
      </trkpt>
      <trkpt lat="44.77838" lon="1.61431">
        <ele>218.6</ele>
        <time>2023-04-16T08:09:58Z</time>
      </trkpt>
      <trkpt lat="44.7783" lon="1.61437">
        <ele>218.9</ele>
        <time>2023-04-16T08:10:06Z</time>
      </trkpt>
      <trkpt lat="44.77822" lon="1.61443">
        <ele>218.9</ele>
        <time>2023-04-16T08:10:17Z</time>
      </trkpt>
      <trkpt lat="44.77813" lon="1.61448">
        <ele>219.6</ele>
        <time>2023-04-16T08:10:25Z</time>
      </trkpt>
      <trkpt lat="44.77803" lon="1.6145">
        <ele>220.6</ele>
        <time>2023-04-16T08:10:34Z</time>
      </trkpt>
      <trkpt lat="44.77794" lon="1.61451">
        <ele>221.7</ele>
        <time>2023-04-16T08:10:45Z</time>
      </trkpt>
      <trkpt lat="44.77784" lon="1.6145">
        <ele>222.9</ele>
        <time>2023-04-16T08:10:57Z</time>
      </trkpt>
      <trkpt lat="44.77776" lon="1.61444">
        <ele>224.3</ele>
        <time>2023-04-16T08:11:08Z</time>
      </trkpt>
      <trkpt lat="44.77769" lon="1.61437">
        <ele>226.6</ele>
        <time>2023-04-16T08:11:17Z</time>
      </trkpt>
      <trkpt lat="44.7776" lon="1.61431">
        <ele>227.8</ele>
        <time>2023-04-16T08:11:29Z</time>
      </trkpt>
      <trkpt lat="44.77754" lon="1.6142">
        <ele>229.1</ele>
        <time>2023-04-16T08:11:40Z</time>
      </trkpt>
      <trkpt lat="44.77746" lon="1.61413">
        <ele>230.3</ele>
        <time>2023-04-16T08:11:49Z</time>
      </trkpt>
      <trkpt lat="44.77738" lon="1.61406">
        <ele>232.2</ele>
        <time>2023-04-16T08:11:59Z</time>
      </trkpt>
      <trkpt lat="44.77732" lon="1.61397">
        <ele>233.5</ele>
        <time>2023-04-16T08:12:11Z</time>
      </trkpt>
      <trkpt lat="44.77726" lon="1.61387">
        <ele>234</ele>
        <time>2023-04-16T08:12:23Z</time>
      </trkpt>
      <trkpt lat="44.77722" lon="1.61375">
        <ele>235.6</ele>
        <time>2023-04-16T08:12:33Z</time>
      </trkpt>
      <trkpt lat="44.77719" lon="1.61362">
        <ele>237.7</ele>
        <time>2023-04-16T08:12:46Z</time>
      </trkpt>
      <trkpt lat="44.77715" lon="1.6135">
        <ele>240</ele>
        <time>2023-04-16T08:12:58Z</time>
      </trkpt>
      <trkpt lat="44.77711" lon="1.61338">
        <ele>241.7</ele>
        <time>2023-04-16T08:13:07Z</time>
      </trkpt>
      <trkpt lat="44.77708" lon="1.61326">
        <ele>243.1</ele>
        <time>2023-04-16T08:13:18Z</time>
      </trkpt>
      <trkpt lat="44.77704" lon="1.61315">
        <ele>243.5</ele>
        <time>2023-04-16T08:13:27Z</time>
      </trkpt>
      <trkpt lat="44.77696" lon="1.61305">
        <ele>242.6</ele>
        <time>2023-04-16T08:13:37Z</time>
      </trkpt>
      <trkpt lat="44.77689" lon="1.61296">
        <ele>244.8</ele>
        <time>2023-04-16T08:13:46Z</time>
      </trkpt>
      <trkpt lat="44.77682" lon="1.61288">
        <ele>246.4</ele>
        <time>2023-04-16T08:13:55Z</time>
      </trkpt>
      <trkpt lat="44.77675" lon="1.61279">
        <ele>247.1</ele>
        <time>2023-04-16T08:14:06Z</time>
      </trkpt>
      <trkpt lat="44.77667" lon="1.61273">
        <ele>247.5</ele>
        <time>2023-04-16T08:14:15Z</time>
      </trkpt>
      <trkpt lat="44.77658" lon="1.61267">
        <ele>250</ele>
        <time>2023-04-16T08:14:26Z</time>
      </trkpt>
      <trkpt lat="44.77649" lon="1.61263">
        <ele>251.4</ele>
        <time>2023-04-16T08:14:35Z</time>
      </trkpt>
      <trkpt lat="44.7764" lon="1.61257">
        <ele>252.3</ele>
        <time>2023-04-16T08:14:45Z</time>
      </trkpt>
      <trkpt lat="44.77631" lon="1.61254">
        <ele>253.7</ele>
        <time>2023-04-16T08:14:54Z</time>
      </trkpt>
      <trkpt lat="44.77622" lon="1.61258">
        <ele>254.8</ele>
        <time>2023-04-16T08:15:03Z</time>
      </trkpt>
      <trkpt lat="44.77613" lon="1.61261">
        <ele>255.9</ele>
        <time>2023-04-16T08:15:13Z</time>
      </trkpt>
      <trkpt lat="44.77604" lon="1.61263">
        <ele>256.7</ele>
        <time>2023-04-16T08:15:22Z</time>
      </trkpt>
      <trkpt lat="44.77595" lon="1.61267">
        <ele>257.3</ele>
        <time>2023-04-16T08:15:33Z</time>
      </trkpt>
      <trkpt lat="44.77586" lon="1.61271">
        <ele>258</ele>
        <time>2023-04-16T08:15:49Z</time>
      </trkpt>
      <trkpt lat="44.77576" lon="1.61268">
        <ele>258.9</ele>
        <time>2023-04-16T08:16:17Z</time>
      </trkpt>
      <trkpt lat="44.77584" lon="1.61277">
        <ele>258</ele>
        <time>2023-04-16T08:24:00Z</time>
      </trkpt>
      <trkpt lat="44.77582" lon="1.6129">
        <ele>259</ele>
        <time>2023-04-16T08:24:11Z</time>
      </trkpt>
      <trkpt lat="44.77574" lon="1.613">
        <ele>259.7</ele>
        <time>2023-04-16T08:24:21Z</time>
      </trkpt>
      <trkpt lat="44.77568" lon="1.61311">
        <ele>260.4</ele>
        <time>2023-04-16T08:24:51Z</time>
      </trkpt>
      <trkpt lat="44.7756" lon="1.6132">
        <ele>261</ele>
        <time>2023-04-16T08:25:04Z</time>
      </trkpt>
      <trkpt lat="44.77552" lon="1.61327">
        <ele>261.6</ele>
        <time>2023-04-16T08:25:13Z</time>
      </trkpt>
      <trkpt lat="44.77544" lon="1.61332">
        <ele>262.3</ele>
        <time>2023-04-16T08:25:21Z</time>
      </trkpt>
      <trkpt lat="44.77534" lon="1.61336">
        <ele>263</ele>
        <time>2023-04-16T08:25:29Z</time>
      </trkpt>
      <trkpt lat="44.77525" lon="1.61339">
        <ele>263.5</ele>
        <time>2023-04-16T08:25:36Z</time>
      </trkpt>
      <trkpt lat="44.77516" lon="1.61343">
        <ele>264.2</ele>
        <time>2023-04-16T08:25:44Z</time>
      </trkpt>
      <trkpt lat="44.77507" lon="1.61348">
        <ele>264.8</ele>
        <time>2023-04-16T08:25:52Z</time>
      </trkpt>
      <trkpt lat="44.77497" lon="1.61353">
        <ele>265.5</ele>
        <time>2023-04-16T08:26:00Z</time>
      </trkpt>
      <trkpt lat="44.77488" lon="1.61356">
        <ele>266.1</ele>
        <time>2023-04-16T08:26:08Z</time>
      </trkpt>
      <trkpt lat="44.77479" lon="1.6136">
        <ele>266.7</ele>
        <time>2023-04-16T08:26:15Z</time>
      </trkpt>
      <trkpt lat="44.7747" lon="1.61365">
        <ele>267.3</ele>
        <time>2023-04-16T08:26:23Z</time>
      </trkpt>
      <trkpt lat="44.7746" lon="1.61367">
        <ele>267.5</ele>
        <time>2023-04-16T08:26:30Z</time>
      </trkpt>
      <trkpt lat="44.77451" lon="1.61371">
        <ele>267.7</ele>
        <time>2023-04-16T08:26:38Z</time>
      </trkpt>
      <trkpt lat="44.77442" lon="1.61376">
        <ele>268.2</ele>
        <time>2023-04-16T08:26:46Z</time>
      </trkpt>
      <trkpt lat="44.77433" lon="1.61381">
        <ele>268.8</ele>
        <time>2023-04-16T08:26:53Z</time>
      </trkpt>
      <trkpt lat="44.77424" lon="1.61385">
        <ele>269.4</ele>
        <time>2023-04-16T08:27:00Z</time>
      </trkpt>
      <trkpt lat="44.77416" lon="1.61389">
        <ele>270</ele>
        <time>2023-04-16T08:27:07Z</time>
      </trkpt>
      <trkpt lat="44.77408" lon="1.61396">
        <ele>270.2</ele>
        <time>2023-04-16T08:27:14Z</time>
      </trkpt>
      <trkpt lat="44.774" lon="1.61403">
        <ele>270.5</ele>
        <time>2023-04-16T08:27:21Z</time>
      </trkpt>
      <trkpt lat="44.77391" lon="1.61407">
        <ele>270.6</ele>
        <time>2023-04-16T08:27:28Z</time>
      </trkpt>
      <trkpt lat="44.77382" lon="1.61412">
        <ele>271</ele>
        <time>2023-04-16T08:27:36Z</time>
      </trkpt>
      <trkpt lat="44.77373" lon="1.61417">
        <ele>271.6</ele>
        <time>2023-04-16T08:27:44Z</time>
      </trkpt>
      <trkpt lat="44.77364" lon="1.61422">
        <ele>272.1</ele>
        <time>2023-04-16T08:27:52Z</time>
      </trkpt>
      <trkpt lat="44.77355" lon="1.61427">
        <ele>272.4</ele>
        <time>2023-04-16T08:27:59Z</time>
      </trkpt>
      <trkpt lat="44.77346" lon="1.61432">
        <ele>272.6</ele>
        <time>2023-04-16T08:28:07Z</time>
      </trkpt>
      <trkpt lat="44.77337" lon="1.61436">
        <ele>272.7</ele>
        <time>2023-04-16T08:28:16Z</time>
      </trkpt>
      <trkpt lat="44.77328" lon="1.6144">
        <ele>272.9</ele>
        <time>2023-04-16T08:28:24Z</time>
      </trkpt>
      <trkpt lat="44.7732" lon="1.61446">
        <ele>273.1</ele>
        <time>2023-04-16T08:28:32Z</time>
      </trkpt>
      <trkpt lat="44.77311" lon="1.6145">
        <ele>273.2</ele>
        <time>2023-04-16T08:28:39Z</time>
      </trkpt>
      <trkpt lat="44.77302" lon="1.61453">
        <ele>273.3</ele>
        <time>2023-04-16T08:28:46Z</time>
      </trkpt>
      <trkpt lat="44.77292" lon="1.61457">
        <ele>273.6</ele>
        <time>2023-04-16T08:28:54Z</time>
      </trkpt>
      <trkpt lat="44.77283" lon="1.61459">
        <ele>274</ele>
        <time>2023-04-16T08:29:06Z</time>
      </trkpt>
      <trkpt lat="44.77275" lon="1.61466">
        <ele>274.6</ele>
        <time>2023-04-16T08:29:35Z</time>
      </trkpt>
      <trkpt lat="44.77266" lon="1.61472">
        <ele>275</ele>
        <time>2023-04-16T08:29:42Z</time>
      </trkpt>
      <trkpt lat="44.77259" lon="1.61479">
        <ele>275.2</ele>
        <time>2023-04-16T08:29:49Z</time>
      </trkpt>
      <trkpt lat="44.7725" lon="1.61486">
        <ele>275.5</ele>
        <time>2023-04-16T08:29:57Z</time>
      </trkpt>
      <trkpt lat="44.77241" lon="1.61491">
        <ele>275.7</ele>
        <time>2023-04-16T08:30:05Z</time>
      </trkpt>
      <trkpt lat="44.77233" lon="1.61498">
        <ele>275.9</ele>
        <time>2023-04-16T08:30:14Z</time>
      </trkpt>
      <trkpt lat="44.77224" lon="1.61504">
        <ele>276.1</ele>
        <time>2023-04-16T08:30:23Z</time>
      </trkpt>
      <trkpt lat="44.77216" lon="1.61508">
        <ele>276.3</ele>
        <time>2023-04-16T08:30:30Z</time>
      </trkpt>
      <trkpt lat="44.77207" lon="1.61512">
        <ele>276.4</ele>
        <time>2023-04-16T08:30:37Z</time>
      </trkpt>
      <trkpt lat="44.77198" lon="1.61515">
        <ele>276.5</ele>
        <time>2023-04-16T08:30:44Z</time>
      </trkpt>
      <trkpt lat="44.77188" lon="1.61518">
        <ele>276.9</ele>
        <time>2023-04-16T08:30:52Z</time>
      </trkpt>
      <trkpt lat="44.77179" lon="1.61522">
        <ele>277.3</ele>
        <time>2023-04-16T08:31:00Z</time>
      </trkpt>
      <trkpt lat="44.7717" lon="1.61526">
        <ele>277.8</ele>
        <time>2023-04-16T08:31:08Z</time>
      </trkpt>
      <trkpt lat="44.77161" lon="1.61529">
        <ele>278</ele>
        <time>2023-04-16T08:31:16Z</time>
      </trkpt>
      <trkpt lat="44.77151" lon="1.61533">
        <ele>278</ele>
        <time>2023-04-16T08:31:24Z</time>
      </trkpt>
      <trkpt lat="44.77142" lon="1.61537">
        <ele>278</ele>
        <time>2023-04-16T08:31:32Z</time>
      </trkpt>
      <trkpt lat="44.77133" lon="1.61541">
        <ele>278</ele>
        <time>2023-04-16T08:31:40Z</time>
      </trkpt>
      <trkpt lat="44.77124" lon="1.61545">
        <ele>278</ele>
        <time>2023-04-16T08:31:49Z</time>
      </trkpt>
      <trkpt lat="44.77119" lon="1.61556">
        <ele>278</ele>
        <time>2023-04-16T08:31:58Z</time>
      </trkpt>
      <trkpt lat="44.77115" lon="1.61568">
        <ele>278</ele>
        <time>2023-04-16T08:32:11Z</time>
      </trkpt>
      <trkpt lat="44.77106" lon="1.61569">
        <ele>277.9</ele>
        <time>2023-04-16T08:35:29Z</time>
      </trkpt>
      <trkpt lat="44.77097" lon="1.61567">
        <ele>277.8</ele>
        <time>2023-04-16T08:35:36Z</time>
      </trkpt>
      <trkpt lat="44.77088" lon="1.61563">
        <ele>277.8</ele>
        <time>2023-04-16T08:35:43Z</time>
      </trkpt>
      <trkpt lat="44.77079" lon="1.6156">
        <ele>277.8</ele>
        <time>2023-04-16T08:35:52Z</time>
      </trkpt>
      <trkpt lat="44.77069" lon="1.6156">
        <ele>277.8</ele>
        <time>2023-04-16T08:36:01Z</time>
      </trkpt>
      <trkpt lat="44.7706" lon="1.61558">
        <ele>277.9</ele>
        <time>2023-04-16T08:36:09Z</time>
      </trkpt>
      <trkpt lat="44.77051" lon="1.61556">
        <ele>278.2</ele>
        <time>2023-04-16T08:36:17Z</time>
      </trkpt>
      <trkpt lat="44.77042" lon="1.61554">
        <ele>278.5</ele>
        <time>2023-04-16T08:36:25Z</time>
      </trkpt>
      <trkpt lat="44.77032" lon="1.61553">
        <ele>278.9</ele>
        <time>2023-04-16T08:36:34Z</time>
      </trkpt>
      <trkpt lat="44.77022" lon="1.6155">
        <ele>279.6</ele>
        <time>2023-04-16T08:36:42Z</time>
      </trkpt>
      <trkpt lat="44.77013" lon="1.61546">
        <ele>280.4</ele>
        <time>2023-04-16T08:36:50Z</time>
      </trkpt>
      <trkpt lat="44.77003" lon="1.61543">
        <ele>281.2</ele>
        <time>2023-04-16T08:36:58Z</time>
      </trkpt>
      <trkpt lat="44.76994" lon="1.61542">
        <ele>281.7</ele>
        <time>2023-04-16T08:37:06Z</time>
      </trkpt>
      <trkpt lat="44.76984" lon="1.61543">
        <ele>282</ele>
        <time>2023-04-16T08:37:14Z</time>
      </trkpt>
      <trkpt lat="44.76975" lon="1.61542">
        <ele>282.4</ele>
        <time>2023-04-16T08:37:22Z</time>
      </trkpt>
      <trkpt lat="44.76965" lon="1.61543">
        <ele>283</ele>
        <time>2023-04-16T08:37:30Z</time>
      </trkpt>
      <trkpt lat="44.76956" lon="1.61541">
        <ele>283.7</ele>
        <time>2023-04-16T08:37:38Z</time>
      </trkpt>
      <trkpt lat="44.76946" lon="1.6154">
        <ele>284.4</ele>
        <time>2023-04-16T08:37:46Z</time>
      </trkpt>
      <trkpt lat="44.76936" lon="1.61539">
        <ele>284.9</ele>
        <time>2023-04-16T08:37:55Z</time>
      </trkpt>
      <trkpt lat="44.76927" lon="1.61539">
        <ele>285.3</ele>
        <time>2023-04-16T08:38:04Z</time>
      </trkpt>
      <trkpt lat="44.76917" lon="1.61538">
        <ele>285.6</ele>
        <time>2023-04-16T08:38:12Z</time>
      </trkpt>
      <trkpt lat="44.76907" lon="1.61536">
        <ele>286</ele>
        <time>2023-04-16T08:38:20Z</time>
      </trkpt>
      <trkpt lat="44.76898" lon="1.61534">
        <ele>286.5</ele>
        <time>2023-04-16T08:38:28Z</time>
      </trkpt>
      <trkpt lat="44.76888" lon="1.61531">
        <ele>286.9</ele>
        <time>2023-04-16T08:38:36Z</time>
      </trkpt>
      <trkpt lat="44.76879" lon="1.61529">
        <ele>287.3</ele>
        <time>2023-04-16T08:38:43Z</time>
      </trkpt>
      <trkpt lat="44.7687" lon="1.61523">
        <ele>287.8</ele>
        <time>2023-04-16T08:38:50Z</time>
      </trkpt>
      <trkpt lat="44.76862" lon="1.61518">
        <ele>288.3</ele>
        <time>2023-04-16T08:38:58Z</time>
      </trkpt>
      <trkpt lat="44.76852" lon="1.61515">
        <ele>288.8</ele>
        <time>2023-04-16T08:39:05Z</time>
      </trkpt>
      <trkpt lat="44.76843" lon="1.61513">
        <ele>289.2</ele>
        <time>2023-04-16T08:39:13Z</time>
      </trkpt>
      <trkpt lat="44.76834" lon="1.61508">
        <ele>289.7</ele>
        <time>2023-04-16T08:39:21Z</time>
      </trkpt>
      <trkpt lat="44.76825" lon="1.61505">
        <ele>290.1</ele>
        <time>2023-04-16T08:39:29Z</time>
      </trkpt>
      <trkpt lat="44.76815" lon="1.61503">
        <ele>290.6</ele>
        <time>2023-04-16T08:39:37Z</time>
      </trkpt>
      <trkpt lat="44.76806" lon="1.61501">
        <ele>291</ele>
        <time>2023-04-16T08:39:46Z</time>
      </trkpt>
      <trkpt lat="44.76797" lon="1.61498">
        <ele>291.3</ele>
        <time>2023-04-16T08:39:55Z</time>
      </trkpt>
      <trkpt lat="44.76787" lon="1.61497">
        <ele>291.7</ele>
        <time>2023-04-16T08:40:04Z</time>
      </trkpt>
      <trkpt lat="44.76778" lon="1.61496">
        <ele>292</ele>
        <time>2023-04-16T08:40:12Z</time>
      </trkpt>
      <trkpt lat="44.76768" lon="1.61495">
        <ele>292.1</ele>
        <time>2023-04-16T08:40:20Z</time>
      </trkpt>
      <trkpt lat="44.76759" lon="1.61495">
        <ele>292.1</ele>
        <time>2023-04-16T08:40:28Z</time>
      </trkpt>
      <trkpt lat="44.7675" lon="1.61494">
        <ele>292.2</ele>
        <time>2023-04-16T08:40:35Z</time>
      </trkpt>
      <trkpt lat="44.7674" lon="1.61494">
        <ele>292.5</ele>
        <time>2023-04-16T08:40:43Z</time>
      </trkpt>
      <trkpt lat="44.7673" lon="1.61492">
        <ele>292.8</ele>
        <time>2023-04-16T08:40:51Z</time>
      </trkpt>
      <trkpt lat="44.7672" lon="1.61492">
        <ele>293.1</ele>
        <time>2023-04-16T08:40:59Z</time>
      </trkpt>
      <trkpt lat="44.76711" lon="1.61491">
        <ele>293.4</ele>
        <time>2023-04-16T08:41:06Z</time>
      </trkpt>
      <trkpt lat="44.76702" lon="1.61489">
        <ele>293.7</ele>
        <time>2023-04-16T08:41:13Z</time>
      </trkpt>
      <trkpt lat="44.76692" lon="1.61486">
        <ele>294</ele>
        <time>2023-04-16T08:41:22Z</time>
      </trkpt>
      <trkpt lat="44.76683" lon="1.61487">
        <ele>294.2</ele>
        <time>2023-04-16T08:41:31Z</time>
      </trkpt>
      <trkpt lat="44.76674" lon="1.61487">
        <ele>294.4</ele>
        <time>2023-04-16T08:41:40Z</time>
      </trkpt>
      <trkpt lat="44.76668" lon="1.61497">
        <ele>294.1</ele>
        <time>2023-04-16T08:43:42Z</time>
      </trkpt>
      <trkpt lat="44.7666" lon="1.61505">
        <ele>294.2</ele>
        <time>2023-04-16T08:43:49Z</time>
      </trkpt>
      <trkpt lat="44.76652" lon="1.6151">
        <ele>294.5</ele>
        <time>2023-04-16T08:43:56Z</time>
      </trkpt>
      <trkpt lat="44.76644" lon="1.61519">
        <ele>294.8</ele>
        <time>2023-04-16T08:44:03Z</time>
      </trkpt>
      <trkpt lat="44.76638" lon="1.61529">
        <ele>295</ele>
        <time>2023-04-16T08:44:10Z</time>
      </trkpt>
      <trkpt lat="44.76633" lon="1.61539">
        <ele>295.2</ele>
        <time>2023-04-16T08:44:17Z</time>
      </trkpt>
      <trkpt lat="44.76625" lon="1.61547">
        <ele>295.5</ele>
        <time>2023-04-16T08:44:24Z</time>
      </trkpt>
      <trkpt lat="44.76617" lon="1.61555">
        <ele>295.8</ele>
        <time>2023-04-16T08:44:32Z</time>
      </trkpt>
      <trkpt lat="44.76611" lon="1.61564">
        <ele>295.7</ele>
        <time>2023-04-16T08:44:39Z</time>
      </trkpt>
      <trkpt lat="44.76603" lon="1.61572">
        <ele>295.6</ele>
        <time>2023-04-16T08:44:46Z</time>
      </trkpt>
      <trkpt lat="44.76595" lon="1.61581">
        <ele>295.6</ele>
        <time>2023-04-16T08:44:55Z</time>
      </trkpt>
      <trkpt lat="44.76588" lon="1.6159">
        <ele>295.8</ele>
        <time>2023-04-16T08:45:02Z</time>
      </trkpt>
      <trkpt lat="44.76579" lon="1.61594">
        <ele>296.1</ele>
        <time>2023-04-16T08:45:10Z</time>
      </trkpt>
      <trkpt lat="44.7657" lon="1.616">
        <ele>296.5</ele>
        <time>2023-04-16T08:45:18Z</time>
      </trkpt>
      <trkpt lat="44.76561" lon="1.61607">
        <ele>296.8</ele>
        <time>2023-04-16T08:45:26Z</time>
      </trkpt>
      <trkpt lat="44.76552" lon="1.61612">
        <ele>297</ele>
        <time>2023-04-16T08:45:34Z</time>
      </trkpt>
      <trkpt lat="44.76542" lon="1.61614">
        <ele>297</ele>
        <time>2023-04-16T08:45:41Z</time>
      </trkpt>
      <trkpt lat="44.76532" lon="1.61614">
        <ele>297</ele>
        <time>2023-04-16T08:45:49Z</time>
      </trkpt>
      <trkpt lat="44.76524" lon="1.61608">
        <ele>297</ele>
        <time>2023-04-16T08:45:56Z</time>
      </trkpt>
      <trkpt lat="44.76515" lon="1.61601">
        <ele>297</ele>
        <time>2023-04-16T08:46:03Z</time>
      </trkpt>
      <trkpt lat="44.76508" lon="1.61595">
        <ele>297</ele>
        <time>2023-04-16T08:46:11Z</time>
      </trkpt>
      <trkpt lat="44.76499" lon="1.61594">
        <ele>297</ele>
        <time>2023-04-16T08:46:20Z</time>
      </trkpt>
      <trkpt lat="44.76496" lon="1.61607">
        <ele>297</ele>
        <time>2023-04-16T08:47:27Z</time>
      </trkpt>
      <trkpt lat="44.7649" lon="1.61598">
        <ele>297</ele>
        <time>2023-04-16T08:53:38Z</time>
      </trkpt>
      <trkpt lat="44.76487" lon="1.61586">
        <ele>297</ele>
        <time>2023-04-16T08:53:58Z</time>
      </trkpt>
      <trkpt lat="44.76486" lon="1.61573">
        <ele>296.6</ele>
        <time>2023-04-16T08:54:13Z</time>
      </trkpt>
      <trkpt lat="44.76481" lon="1.6156">
        <ele>296.2</ele>
        <time>2023-04-16T08:54:22Z</time>
      </trkpt>
      <trkpt lat="44.76477" lon="1.61548">
        <ele>295.8</ele>
        <time>2023-04-16T08:54:32Z</time>
      </trkpt>
      <trkpt lat="44.76472" lon="1.61536">
        <ele>295.3</ele>
        <time>2023-04-16T08:54:40Z</time>
      </trkpt>
      <trkpt lat="44.76466" lon="1.61525">
        <ele>294.7</ele>
        <time>2023-04-16T08:54:49Z</time>
      </trkpt>
      <trkpt lat="44.76462" lon="1.61514">
        <ele>294.3</ele>
        <time>2023-04-16T08:54:57Z</time>
      </trkpt>
      <trkpt lat="44.76456" lon="1.61504">
        <ele>294.1</ele>
        <time>2023-04-16T08:55:04Z</time>
      </trkpt>
      <trkpt lat="44.7645" lon="1.61493">
        <ele>293.8</ele>
        <time>2023-04-16T08:55:11Z</time>
      </trkpt>
      <trkpt lat="44.76444" lon="1.61482">
        <ele>293.3</ele>
        <time>2023-04-16T08:55:19Z</time>
      </trkpt>
      <trkpt lat="44.76439" lon="1.6147">
        <ele>292.9</ele>
        <time>2023-04-16T08:55:27Z</time>
      </trkpt>
      <trkpt lat="44.76435" lon="1.61459">
        <ele>292.7</ele>
        <time>2023-04-16T08:55:34Z</time>
      </trkpt>
      <trkpt lat="44.76429" lon="1.61448">
        <ele>292.6</ele>
        <time>2023-04-16T08:55:42Z</time>
      </trkpt>
      <trkpt lat="44.76424" lon="1.61437">
        <ele>292.5</ele>
        <time>2023-04-16T08:55:49Z</time>
      </trkpt>
      <trkpt lat="44.76419" lon="1.61425">
        <ele>292.2</ele>
        <time>2023-04-16T08:55:57Z</time>
      </trkpt>
      <trkpt lat="44.76414" lon="1.61413">
        <ele>291.9</ele>
        <time>2023-04-16T08:56:04Z</time>
      </trkpt>
      <trkpt lat="44.76409" lon="1.614">
        <ele>291.6</ele>
        <time>2023-04-16T08:56:11Z</time>
      </trkpt>
      <trkpt lat="44.76404" lon="1.61389">
        <ele>291.5</ele>
        <time>2023-04-16T08:56:18Z</time>
      </trkpt>
      <trkpt lat="44.76399" lon="1.61378">
        <ele>291.6</ele>
        <time>2023-04-16T08:56:26Z</time>
      </trkpt>
      <trkpt lat="44.76394" lon="1.61366">
        <ele>291.8</ele>
        <time>2023-04-16T08:56:33Z</time>
      </trkpt>
      <trkpt lat="44.7639" lon="1.61354">
        <ele>292</ele>
        <time>2023-04-16T08:56:41Z</time>
      </trkpt>
      <trkpt lat="44.76386" lon="1.61342">
        <ele>292</ele>
        <time>2023-04-16T08:56:48Z</time>
      </trkpt>
      <trkpt lat="44.7638" lon="1.61331">
        <ele>292</ele>
        <time>2023-04-16T08:56:55Z</time>
      </trkpt>
      <trkpt lat="44.76375" lon="1.6132">
        <ele>292</ele>
        <time>2023-04-16T08:57:03Z</time>
      </trkpt>
      <trkpt lat="44.76368" lon="1.61309">
        <ele>292</ele>
        <time>2023-04-16T08:57:11Z</time>
      </trkpt>
      <trkpt lat="44.76361" lon="1.61299">
        <ele>292</ele>
        <time>2023-04-16T08:57:19Z</time>
      </trkpt>
      <trkpt lat="44.76355" lon="1.61288">
        <ele>292</ele>
        <time>2023-04-16T08:57:26Z</time>
      </trkpt>
      <trkpt lat="44.7635" lon="1.61278">
        <ele>292</ele>
        <time>2023-04-16T08:57:33Z</time>
      </trkpt>
      <trkpt lat="44.76344" lon="1.61266">
        <ele>292.4</ele>
        <time>2023-04-16T08:57:41Z</time>
      </trkpt>
      <trkpt lat="44.76339" lon="1.61255">
        <ele>292.8</ele>
        <time>2023-04-16T08:57:48Z</time>
      </trkpt>
      <trkpt lat="44.76334" lon="1.61243">
        <ele>293</ele>
        <time>2023-04-16T08:57:55Z</time>
      </trkpt>
      <trkpt lat="44.76329" lon="1.61232">
        <ele>292.8</ele>
        <time>2023-04-16T08:58:03Z</time>
      </trkpt>
      <trkpt lat="44.76323" lon="1.61222">
        <ele>292.6</ele>
        <time>2023-04-16T08:58:13Z</time>
      </trkpt>
      <trkpt lat="44.76318" lon="1.61211">
        <ele>292.7</ele>
        <time>2023-04-16T08:58:20Z</time>
      </trkpt>
      <trkpt lat="44.76313" lon="1.61199">
        <ele>292.9</ele>
        <time>2023-04-16T08:58:28Z</time>
      </trkpt>
      <trkpt lat="44.76307" lon="1.61188">
        <ele>293</ele>
        <time>2023-04-16T08:58:35Z</time>
      </trkpt>
      <trkpt lat="44.76301" lon="1.61178">
        <ele>292.9</ele>
        <time>2023-04-16T08:58:42Z</time>
      </trkpt>
      <trkpt lat="44.76296" lon="1.61165">
        <ele>292.7</ele>
        <time>2023-04-16T08:58:50Z</time>
      </trkpt>
      <trkpt lat="44.76291" lon="1.61153">
        <ele>292.7</ele>
        <time>2023-04-16T08:58:58Z</time>
      </trkpt>
      <trkpt lat="44.76286" lon="1.61142">
        <ele>292.9</ele>
        <time>2023-04-16T08:59:06Z</time>
      </trkpt>
      <trkpt lat="44.76281" lon="1.6113">
        <ele>293</ele>
        <time>2023-04-16T08:59:14Z</time>
      </trkpt>
      <trkpt lat="44.76276" lon="1.61118">
        <ele>293</ele>
        <time>2023-04-16T08:59:23Z</time>
      </trkpt>
      <trkpt lat="44.76271" lon="1.61106">
        <ele>293</ele>
        <time>2023-04-16T08:59:31Z</time>
      </trkpt>
      <trkpt lat="44.76266" lon="1.61094">
        <ele>293</ele>
        <time>2023-04-16T08:59:39Z</time>
      </trkpt>
      <trkpt lat="44.7626" lon="1.61084">
        <ele>293</ele>
        <time>2023-04-16T08:59:46Z</time>
      </trkpt>
      <trkpt lat="44.76254" lon="1.61073">
        <ele>293</ele>
        <time>2023-04-16T08:59:53Z</time>
      </trkpt>
      <trkpt lat="44.76248" lon="1.61061">
        <ele>293</ele>
        <time>2023-04-16T09:00:01Z</time>
      </trkpt>
      <trkpt lat="44.76241" lon="1.61052">
        <ele>293</ele>
        <time>2023-04-16T09:00:09Z</time>
      </trkpt>
      <trkpt lat="44.76234" lon="1.61041">
        <ele>293</ele>
        <time>2023-04-16T09:00:17Z</time>
      </trkpt>
      <trkpt lat="44.76229" lon="1.6103">
        <ele>293</ele>
        <time>2023-04-16T09:00:24Z</time>
      </trkpt>
      <trkpt lat="44.76223" lon="1.61019">
        <ele>293</ele>
        <time>2023-04-16T09:00:32Z</time>
      </trkpt>
      <trkpt lat="44.76217" lon="1.61007">
        <ele>293</ele>
        <time>2023-04-16T09:00:39Z</time>
      </trkpt>
      <trkpt lat="44.76212" lon="1.60996">
        <ele>293</ele>
        <time>2023-04-16T09:00:46Z</time>
      </trkpt>
      <trkpt lat="44.76207" lon="1.60986">
        <ele>293</ele>
        <time>2023-04-16T09:00:54Z</time>
      </trkpt>
      <trkpt lat="44.76202" lon="1.60974">
        <ele>293</ele>
        <time>2023-04-16T09:01:02Z</time>
      </trkpt>
      <trkpt lat="44.76197" lon="1.60963">
        <ele>293</ele>
        <time>2023-04-16T09:01:09Z</time>
      </trkpt>
      <trkpt lat="44.76197" lon="1.6095">
        <ele>293</ele>
        <time>2023-04-16T09:08:30Z</time>
      </trkpt>
      <trkpt lat="44.76203" lon="1.6094">
        <ele>293</ele>
        <time>2023-04-16T09:08:41Z</time>
      </trkpt>
      <trkpt lat="44.76208" lon="1.60928">
        <ele>293</ele>
        <time>2023-04-16T09:08:51Z</time>
      </trkpt>
      <trkpt lat="44.76212" lon="1.60917">
        <ele>293</ele>
        <time>2023-04-16T09:08:59Z</time>
      </trkpt>
      <trkpt lat="44.76216" lon="1.60905">
        <ele>293</ele>
        <time>2023-04-16T09:09:06Z</time>
      </trkpt>
      <trkpt lat="44.7622" lon="1.60891">
        <ele>293</ele>
        <time>2023-04-16T09:09:14Z</time>
      </trkpt>
      <trkpt lat="44.7622" lon="1.60877">
        <ele>293</ele>
        <time>2023-04-16T09:09:23Z</time>
      </trkpt>
      <trkpt lat="44.76222" lon="1.60864">
        <ele>293</ele>
        <time>2023-04-16T09:09:32Z</time>
      </trkpt>
      <trkpt lat="44.76226" lon="1.60852">
        <ele>292.6</ele>
        <time>2023-04-16T09:09:40Z</time>
      </trkpt>
      <trkpt lat="44.76231" lon="1.6084">
        <ele>291.9</ele>
        <time>2023-04-16T09:09:48Z</time>
      </trkpt>
      <trkpt lat="44.76236" lon="1.60828">
        <ele>291.4</ele>
        <time>2023-04-16T09:09:55Z</time>
      </trkpt>
      <trkpt lat="44.76239" lon="1.60815">
        <ele>291.1</ele>
        <time>2023-04-16T09:10:03Z</time>
      </trkpt>
      <trkpt lat="44.76246" lon="1.60804">
        <ele>291</ele>
        <time>2023-04-16T09:10:11Z</time>
      </trkpt>
      <trkpt lat="44.76253" lon="1.60795">
        <ele>290.4</ele>
        <time>2023-04-16T09:10:18Z</time>
      </trkpt>
      <trkpt lat="44.76259" lon="1.60784">
        <ele>289.6</ele>
        <time>2023-04-16T09:10:25Z</time>
      </trkpt>
      <trkpt lat="44.76262" lon="1.60772">
        <ele>288.9</ele>
        <time>2023-04-16T09:10:32Z</time>
      </trkpt>
      <trkpt lat="44.76263" lon="1.60759">
        <ele>288.4</ele>
        <time>2023-04-16T09:10:40Z</time>
      </trkpt>
      <trkpt lat="44.76266" lon="1.60746">
        <ele>287.8</ele>
        <time>2023-04-16T09:10:48Z</time>
      </trkpt>
      <trkpt lat="44.76269" lon="1.60733">
        <ele>287.4</ele>
        <time>2023-04-16T09:10:56Z</time>
      </trkpt>
      <trkpt lat="44.76273" lon="1.60721">
        <ele>287.2</ele>
        <time>2023-04-16T09:11:03Z</time>
      </trkpt>
      <trkpt lat="44.76277" lon="1.60708">
        <ele>287</ele>
        <time>2023-04-16T09:11:10Z</time>
      </trkpt>
      <trkpt lat="44.76277" lon="1.60695">
        <ele>287</ele>
        <time>2023-04-16T09:11:18Z</time>
      </trkpt>
      <trkpt lat="44.76276" lon="1.60682">
        <ele>286.6</ele>
        <time>2023-04-16T09:11:25Z</time>
      </trkpt>
      <trkpt lat="44.76274" lon="1.6067">
        <ele>286.2</ele>
        <time>2023-04-16T09:11:33Z</time>
      </trkpt>
      <trkpt lat="44.76271" lon="1.60656">
        <ele>286.1</ele>
        <time>2023-04-16T09:11:41Z</time>
      </trkpt>
      <trkpt lat="44.76269" lon="1.60643">
        <ele>286.1</ele>
        <time>2023-04-16T09:11:49Z</time>
      </trkpt>
      <trkpt lat="44.76265" lon="1.60632">
        <ele>285.7</ele>
        <time>2023-04-16T09:11:57Z</time>
      </trkpt>
      <trkpt lat="44.76261" lon="1.60618">
        <ele>285.3</ele>
        <time>2023-04-16T09:12:04Z</time>
      </trkpt>
      <trkpt lat="44.76257" lon="1.60607">
        <ele>284.8</ele>
        <time>2023-04-16T09:12:11Z</time>
      </trkpt>
      <trkpt lat="44.76253" lon="1.60594">
        <ele>284.4</ele>
        <time>2023-04-16T09:12:19Z</time>
      </trkpt>
      <trkpt lat="44.76249" lon="1.60582">
        <ele>283.9</ele>
        <time>2023-04-16T09:12:34Z</time>
      </trkpt>
      <trkpt lat="44.76244" lon="1.6057">
        <ele>283.2</ele>
        <time>2023-04-16T09:12:45Z</time>
      </trkpt>
      <trkpt lat="44.76241" lon="1.60556">
        <ele>282.4</ele>
        <time>2023-04-16T09:12:54Z</time>
      </trkpt>
      <trkpt lat="44.76237" lon="1.60544">
        <ele>281.7</ele>
        <time>2023-04-16T09:13:03Z</time>
      </trkpt>
      <trkpt lat="44.76234" lon="1.60531">
        <ele>281</ele>
        <time>2023-04-16T09:13:11Z</time>
      </trkpt>
      <trkpt lat="44.7623" lon="1.60518">
        <ele>280.4</ele>
        <time>2023-04-16T09:13:19Z</time>
      </trkpt>
      <trkpt lat="44.76225" lon="1.60507">
        <ele>280.1</ele>
        <time>2023-04-16T09:13:26Z</time>
      </trkpt>
      <trkpt lat="44.76219" lon="1.60496">
        <ele>279.5</ele>
        <time>2023-04-16T09:13:34Z</time>
      </trkpt>
      <trkpt lat="44.76214" lon="1.60484">
        <ele>278.5</ele>
        <time>2023-04-16T09:13:42Z</time>
      </trkpt>
      <trkpt lat="44.7621" lon="1.60471">
        <ele>277.6</ele>
        <time>2023-04-16T09:13:49Z</time>
      </trkpt>
      <trkpt lat="44.76208" lon="1.60458">
        <ele>277.2</ele>
        <time>2023-04-16T09:13:56Z</time>
      </trkpt>
      <trkpt lat="44.76209" lon="1.60444">
        <ele>277</ele>
        <time>2023-04-16T09:14:03Z</time>
      </trkpt>
      <trkpt lat="44.76212" lon="1.60432">
        <ele>276.8</ele>
        <time>2023-04-16T09:14:10Z</time>
      </trkpt>
      <trkpt lat="44.76216" lon="1.60421">
        <ele>276.7</ele>
        <time>2023-04-16T09:14:17Z</time>
      </trkpt>
      <trkpt lat="44.76222" lon="1.60411">
        <ele>276.6</ele>
        <time>2023-04-16T09:14:24Z</time>
      </trkpt>
      <trkpt lat="44.7623" lon="1.60402">
        <ele>276.3</ele>
        <time>2023-04-16T09:14:31Z</time>
      </trkpt>
      <trkpt lat="44.76235" lon="1.60392">
        <ele>276.1</ele>
        <time>2023-04-16T09:14:38Z</time>
      </trkpt>
      <trkpt lat="44.76243" lon="1.60382">
        <ele>276</ele>
        <time>2023-04-16T09:14:46Z</time>
      </trkpt>
      <trkpt lat="44.7625" lon="1.60372">
        <ele>275.8</ele>
        <time>2023-04-16T09:14:54Z</time>
      </trkpt>
      <trkpt lat="44.76258" lon="1.60365">
        <ele>275.5</ele>
        <time>2023-04-16T09:15:01Z</time>
      </trkpt>
      <trkpt lat="44.76265" lon="1.60355">
        <ele>275</ele>
        <time>2023-04-16T09:15:08Z</time>
      </trkpt>
      <trkpt lat="44.76272" lon="1.60346">
        <ele>274.6</ele>
        <time>2023-04-16T09:15:15Z</time>
      </trkpt>
      <trkpt lat="44.7628" lon="1.6034">
        <ele>274.6</ele>
        <time>2023-04-16T09:15:22Z</time>
      </trkpt>
      <trkpt lat="44.76289" lon="1.60334">
        <ele>274.5</ele>
        <time>2023-04-16T09:15:29Z</time>
      </trkpt>
      <trkpt lat="44.76298" lon="1.60329">
        <ele>274.3</ele>
        <time>2023-04-16T09:15:37Z</time>
      </trkpt>
      <trkpt lat="44.76306" lon="1.60324">
        <ele>274</ele>
        <time>2023-04-16T09:15:44Z</time>
      </trkpt>
      <trkpt lat="44.76315" lon="1.60317">
        <ele>273.4</ele>
        <time>2023-04-16T09:15:52Z</time>
      </trkpt>
      <trkpt lat="44.76323" lon="1.6031">
        <ele>273</ele>
        <time>2023-04-16T09:16:00Z</time>
      </trkpt>
      <trkpt lat="44.7633" lon="1.60301">
        <ele>272.4</ele>
        <time>2023-04-16T09:16:08Z</time>
      </trkpt>
      <trkpt lat="44.76336" lon="1.60291">
        <ele>271.5</ele>
        <time>2023-04-16T09:16:15Z</time>
      </trkpt>
      <trkpt lat="44.76342" lon="1.60282">
        <ele>270.7</ele>
        <time>2023-04-16T09:16:23Z</time>
      </trkpt>
      <trkpt lat="44.76349" lon="1.60271">
        <ele>269.8</ele>
        <time>2023-04-16T09:16:31Z</time>
      </trkpt>
      <trkpt lat="44.76356" lon="1.60262">
        <ele>269.1</ele>
        <time>2023-04-16T09:16:38Z</time>
      </trkpt>
      <trkpt lat="44.76363" lon="1.60254">
        <ele>268.3</ele>
        <time>2023-04-16T09:16:47Z</time>
      </trkpt>
      <trkpt lat="44.76371" lon="1.60248">
        <ele>266.6</ele>
        <time>2023-04-16T09:16:55Z</time>
      </trkpt>
      <trkpt lat="44.76381" lon="1.60244">
        <ele>265.1</ele>
        <time>2023-04-16T09:17:03Z</time>
      </trkpt>
      <trkpt lat="44.7639" lon="1.60245">
        <ele>264.3</ele>
        <time>2023-04-16T09:17:10Z</time>
      </trkpt>
      <trkpt lat="44.764" lon="1.60244">
        <ele>264.6</ele>
        <time>2023-04-16T09:17:18Z</time>
      </trkpt>
      <trkpt lat="44.76406" lon="1.60233">
        <ele>263.5</ele>
        <time>2023-04-16T09:17:27Z</time>
      </trkpt>
      <trkpt lat="44.76406" lon="1.6022">
        <ele>262</ele>
        <time>2023-04-16T09:17:37Z</time>
      </trkpt>
      <trkpt lat="44.76403" lon="1.60206">
        <ele>260.6</ele>
        <time>2023-04-16T09:17:46Z</time>
      </trkpt>
      <trkpt lat="44.764" lon="1.60193">
        <ele>259</ele>
        <time>2023-04-16T09:17:54Z</time>
      </trkpt>
      <trkpt lat="44.76395" lon="1.60182">
        <ele>257.9</ele>
        <time>2023-04-16T09:18:02Z</time>
      </trkpt>
      <trkpt lat="44.7639" lon="1.60171">
        <ele>256.4</ele>
        <time>2023-04-16T09:18:11Z</time>
      </trkpt>
      <trkpt lat="44.76383" lon="1.60161">
        <ele>256</ele>
        <time>2023-04-16T09:18:20Z</time>
      </trkpt>
      <trkpt lat="44.76376" lon="1.60152">
        <ele>255.4</ele>
        <time>2023-04-16T09:18:28Z</time>
      </trkpt>
      <trkpt lat="44.76369" lon="1.60143">
        <ele>253.9</ele>
        <time>2023-04-16T09:18:36Z</time>
      </trkpt>
      <trkpt lat="44.76361" lon="1.60136">
        <ele>252.4</ele>
        <time>2023-04-16T09:18:45Z</time>
      </trkpt>
      <trkpt lat="44.76352" lon="1.6013">
        <ele>252</ele>
        <time>2023-04-16T09:18:54Z</time>
      </trkpt>
      <trkpt lat="44.76343" lon="1.60126">
        <ele>251.1</ele>
        <time>2023-04-16T09:19:02Z</time>
      </trkpt>
      <trkpt lat="44.76334" lon="1.60127">
        <ele>249.5</ele>
        <time>2023-04-16T09:19:10Z</time>
      </trkpt>
      <trkpt lat="44.76325" lon="1.60126">
        <ele>248.5</ele>
        <time>2023-04-16T09:19:18Z</time>
      </trkpt>
      <trkpt lat="44.76315" lon="1.60124">
        <ele>247.6</ele>
        <time>2023-04-16T09:19:26Z</time>
      </trkpt>
      <trkpt lat="44.76305" lon="1.60127">
        <ele>246.2</ele>
        <time>2023-04-16T09:19:35Z</time>
      </trkpt>
      <trkpt lat="44.76296" lon="1.6013">
        <ele>244.6</ele>
        <time>2023-04-16T09:19:43Z</time>
      </trkpt>
      <trkpt lat="44.76287" lon="1.60133">
        <ele>242.7</ele>
        <time>2023-04-16T09:19:51Z</time>
      </trkpt>
      <trkpt lat="44.76278" lon="1.60135">
        <ele>240.9</ele>
        <time>2023-04-16T09:19:59Z</time>
      </trkpt>
      <trkpt lat="44.76268" lon="1.60134">
        <ele>239.7</ele>
        <time>2023-04-16T09:20:07Z</time>
      </trkpt>
      <trkpt lat="44.76258" lon="1.60136">
        <ele>238</ele>
        <time>2023-04-16T09:20:17Z</time>
      </trkpt>
      <trkpt lat="44.76249" lon="1.60137">
        <ele>236.5</ele>
        <time>2023-04-16T09:20:26Z</time>
      </trkpt>
      <trkpt lat="44.7624" lon="1.60136">
        <ele>235.4</ele>
        <time>2023-04-16T09:20:34Z</time>
      </trkpt>
      <trkpt lat="44.7623" lon="1.60137">
        <ele>233.6</ele>
        <time>2023-04-16T09:20:43Z</time>
      </trkpt>
      <trkpt lat="44.7622" lon="1.60135">
        <ele>232.8</ele>
        <time>2023-04-16T09:20:51Z</time>
      </trkpt>
      <trkpt lat="44.7621" lon="1.60133">
        <ele>232</ele>
        <time>2023-04-16T09:20:59Z</time>
      </trkpt>
      <trkpt lat="44.762" lon="1.60131">
        <ele>231.1</ele>
        <time>2023-04-16T09:21:07Z</time>
      </trkpt>
      <trkpt lat="44.76192" lon="1.60128">
        <ele>230.4</ele>
        <time>2023-04-16T09:21:15Z</time>
      </trkpt>
      <trkpt lat="44.76182" lon="1.60123">
        <ele>229.2</ele>
        <time>2023-04-16T09:21:25Z</time>
      </trkpt>
      <trkpt lat="44.76173" lon="1.6012">
        <ele>227.2</ele>
        <time>2023-04-16T09:21:33Z</time>
      </trkpt>
      <trkpt lat="44.76166" lon="1.60112">
        <ele>224.9</ele>
        <time>2023-04-16T09:21:42Z</time>
      </trkpt>
      <trkpt lat="44.76158" lon="1.60102">
        <ele>224.9</ele>
        <time>2023-04-16T09:21:50Z</time>
      </trkpt>
      <trkpt lat="44.76151" lon="1.60092">
        <ele>224</ele>
        <time>2023-04-16T09:21:58Z</time>
      </trkpt>
      <trkpt lat="44.76143" lon="1.60085">
        <ele>222.1</ele>
        <time>2023-04-16T09:22:07Z</time>
      </trkpt>
      <trkpt lat="44.76135" lon="1.60075">
        <ele>221.4</ele>
        <time>2023-04-16T09:22:17Z</time>
      </trkpt>
      <trkpt lat="44.76129" lon="1.60066">
        <ele>221</ele>
        <time>2023-04-16T09:22:25Z</time>
      </trkpt>
      <trkpt lat="44.76122" lon="1.60057">
        <ele>219.6</ele>
        <time>2023-04-16T09:22:33Z</time>
      </trkpt>
      <trkpt lat="44.76116" lon="1.60047">
        <ele>218.2</ele>
        <time>2023-04-16T09:22:41Z</time>
      </trkpt>
      <trkpt lat="44.7611" lon="1.60035">
        <ele>216.8</ele>
        <time>2023-04-16T09:22:50Z</time>
      </trkpt>
      <trkpt lat="44.76104" lon="1.60025">
        <ele>215.7</ele>
        <time>2023-04-16T09:22:58Z</time>
      </trkpt>
      <trkpt lat="44.76099" lon="1.60014">
        <ele>214.7</ele>
        <time>2023-04-16T09:23:05Z</time>
      </trkpt>
      <trkpt lat="44.76093" lon="1.60004">
        <ele>213.7</ele>
        <time>2023-04-16T09:23:14Z</time>
      </trkpt>
      <trkpt lat="44.76091" lon="1.59991">
        <ele>213.1</ele>
        <time>2023-04-16T09:23:22Z</time>
      </trkpt>
      <trkpt lat="44.76091" lon="1.59978">
        <ele>212.6</ele>
        <time>2023-04-16T09:23:31Z</time>
      </trkpt>
      <trkpt lat="44.76091" lon="1.59965">
        <ele>211.9</ele>
        <time>2023-04-16T09:23:40Z</time>
      </trkpt>
      <trkpt lat="44.76092" lon="1.59952">
        <ele>211.2</ele>
        <time>2023-04-16T09:23:48Z</time>
      </trkpt>
      <trkpt lat="44.76094" lon="1.59938">
        <ele>210.3</ele>
        <time>2023-04-16T09:23:57Z</time>
      </trkpt>
      <trkpt lat="44.76094" lon="1.59925">
        <ele>209.3</ele>
        <time>2023-04-16T09:24:05Z</time>
      </trkpt>
      <trkpt lat="44.76095" lon="1.5991">
        <ele>208.2</ele>
        <time>2023-04-16T09:24:14Z</time>
      </trkpt>
      <trkpt lat="44.76096" lon="1.59897">
        <ele>207.4</ele>
        <time>2023-04-16T09:24:23Z</time>
      </trkpt>
      <trkpt lat="44.76097" lon="1.59883">
        <ele>206.5</ele>
        <time>2023-04-16T09:24:32Z</time>
      </trkpt>
      <trkpt lat="44.76096" lon="1.59869">
        <ele>205</ele>
        <time>2023-04-16T09:24:40Z</time>
      </trkpt>
      <trkpt lat="44.76092" lon="1.59856">
        <ele>203.3</ele>
        <time>2023-04-16T09:24:49Z</time>
      </trkpt>
      <trkpt lat="44.76089" lon="1.59844">
        <ele>201.9</ele>
        <time>2023-04-16T09:24:57Z</time>
      </trkpt>
      <trkpt lat="44.76088" lon="1.5983">
        <ele>200.8</ele>
        <time>2023-04-16T09:25:05Z</time>
      </trkpt>
      <trkpt lat="44.76087" lon="1.59817">
        <ele>199.6</ele>
        <time>2023-04-16T09:25:13Z</time>
      </trkpt>
      <trkpt lat="44.76086" lon="1.59804">
        <ele>198.6</ele>
        <time>2023-04-16T09:25:21Z</time>
      </trkpt>
      <trkpt lat="44.76087" lon="1.59791">
        <ele>197.8</ele>
        <time>2023-04-16T09:25:28Z</time>
      </trkpt>
      <trkpt lat="44.7609" lon="1.59779">
        <ele>197.4</ele>
        <time>2023-04-16T09:25:37Z</time>
      </trkpt>
      <trkpt lat="44.76093" lon="1.59767">
        <ele>196.7</ele>
        <time>2023-04-16T09:25:44Z</time>
      </trkpt>
      <trkpt lat="44.76096" lon="1.59753">
        <ele>195.6</ele>
        <time>2023-04-16T09:25:53Z</time>
      </trkpt>
      <trkpt lat="44.76097" lon="1.59739">
        <ele>194.2</ele>
        <time>2023-04-16T09:26:01Z</time>
      </trkpt>
      <trkpt lat="44.761" lon="1.59726">
        <ele>193.7</ele>
        <time>2023-04-16T09:26:09Z</time>
      </trkpt>
      <trkpt lat="44.76102" lon="1.59712">
        <ele>192.5</ele>
        <time>2023-04-16T09:26:17Z</time>
      </trkpt>
      <trkpt lat="44.76101" lon="1.59698">
        <ele>190.3</ele>
        <time>2023-04-16T09:26:24Z</time>
      </trkpt>
      <trkpt lat="44.76095" lon="1.59686">
        <ele>187.8</ele>
        <time>2023-04-16T09:26:31Z</time>
      </trkpt>
      <trkpt lat="44.76087" lon="1.59679">
        <ele>185.6</ele>
        <time>2023-04-16T09:26:37Z</time>
      </trkpt>
      <trkpt lat="44.76078" lon="1.59673">
        <ele>184.4</ele>
        <time>2023-04-16T09:26:45Z</time>
      </trkpt>
      <trkpt lat="44.76069" lon="1.59666">
        <ele>184</ele>
        <time>2023-04-16T09:26:53Z</time>
      </trkpt>
      <trkpt lat="44.76061" lon="1.59659">
        <ele>183.7</ele>
        <time>2023-04-16T09:27:00Z</time>
      </trkpt>
      <trkpt lat="44.76054" lon="1.5965">
        <ele>183.4</ele>
        <time>2023-04-16T09:27:11Z</time>
      </trkpt>
      <trkpt lat="44.76045" lon="1.59649">
        <ele>183.4</ele>
        <time>2023-04-16T09:27:20Z</time>
      </trkpt>
      <trkpt lat="44.7604" lon="1.59662">
        <ele>183.8</ele>
        <time>2023-04-16T09:27:28Z</time>
      </trkpt>
      <trkpt lat="44.76035" lon="1.59675">
        <ele>184</ele>
        <time>2023-04-16T09:27:36Z</time>
      </trkpt>
      <trkpt lat="44.7603" lon="1.59686">
        <ele>184</ele>
        <time>2023-04-16T09:27:44Z</time>
      </trkpt>
      <trkpt lat="44.76024" lon="1.59697">
        <ele>184</ele>
        <time>2023-04-16T09:27:52Z</time>
      </trkpt>
      <trkpt lat="44.76019" lon="1.59709">
        <ele>184.2</ele>
        <time>2023-04-16T09:28:00Z</time>
      </trkpt>
      <trkpt lat="44.76013" lon="1.5972">
        <ele>184.5</ele>
        <time>2023-04-16T09:28:08Z</time>
      </trkpt>
      <trkpt lat="44.76006" lon="1.5973">
        <ele>184.6</ele>
        <time>2023-04-16T09:28:16Z</time>
      </trkpt>
      <trkpt lat="44.75999" lon="1.59738">
        <ele>184.4</ele>
        <time>2023-04-16T09:28:24Z</time>
      </trkpt>
      <trkpt lat="44.75993" lon="1.59748">
        <ele>184.3</ele>
        <time>2023-04-16T09:28:32Z</time>
      </trkpt>
      <trkpt lat="44.75985" lon="1.59756">
        <ele>184.5</ele>
        <time>2023-04-16T09:28:40Z</time>
      </trkpt>
      <trkpt lat="44.75977" lon="1.59765">
        <ele>184.8</ele>
        <time>2023-04-16T09:28:48Z</time>
      </trkpt>
      <trkpt lat="44.75969" lon="1.59774">
        <ele>185</ele>
        <time>2023-04-16T09:28:55Z</time>
      </trkpt>
      <trkpt lat="44.75963" lon="1.59784">
        <ele>185.1</ele>
        <time>2023-04-16T09:29:02Z</time>
      </trkpt>
      <trkpt lat="44.75956" lon="1.59794">
        <ele>185.3</ele>
        <time>2023-04-16T09:29:10Z</time>
      </trkpt>
      <trkpt lat="44.75949" lon="1.59805">
        <ele>185.8</ele>
        <time>2023-04-16T09:29:17Z</time>
      </trkpt>
      <trkpt lat="44.75943" lon="1.59816">
        <ele>185.6</ele>
        <time>2023-04-16T09:29:25Z</time>
      </trkpt>
      <trkpt lat="44.75938" lon="1.59827">
        <ele>185.4</ele>
        <time>2023-04-16T09:29:33Z</time>
      </trkpt>
      <trkpt lat="44.75932" lon="1.59838">
        <ele>185.5</ele>
        <time>2023-04-16T09:29:41Z</time>
      </trkpt>
      <trkpt lat="44.75926" lon="1.59849">
        <ele>185.9</ele>
        <time>2023-04-16T09:29:49Z</time>
      </trkpt>
      <trkpt lat="44.7592" lon="1.5986">
        <ele>186</ele>
        <time>2023-04-16T09:29:57Z</time>
      </trkpt>
      <trkpt lat="44.75914" lon="1.59872">
        <ele>186</ele>
        <time>2023-04-16T09:30:05Z</time>
      </trkpt>
      <trkpt lat="44.75909" lon="1.59883">
        <ele>186.2</ele>
        <time>2023-04-16T09:30:13Z</time>
      </trkpt>
      <trkpt lat="44.75904" lon="1.59895">
        <ele>186.6</ele>
        <time>2023-04-16T09:30:20Z</time>
      </trkpt>
      <trkpt lat="44.759" lon="1.59907">
        <ele>186.9</ele>
        <time>2023-04-16T09:30:27Z</time>
      </trkpt>
      <trkpt lat="44.75895" lon="1.59919">
        <ele>187.1</ele>
        <time>2023-04-16T09:30:34Z</time>
      </trkpt>
      <trkpt lat="44.7589" lon="1.5993">
        <ele>187.5</ele>
        <time>2023-04-16T09:30:41Z</time>
      </trkpt>
      <trkpt lat="44.75886" lon="1.59942">
        <ele>187.8</ele>
        <time>2023-04-16T09:30:48Z</time>
      </trkpt>
      <trkpt lat="44.75881" lon="1.59954">
        <ele>187.7</ele>
        <time>2023-04-16T09:30:56Z</time>
      </trkpt>
      <trkpt lat="44.75878" lon="1.59966">
        <ele>187.6</ele>
        <time>2023-04-16T09:31:04Z</time>
      </trkpt>
      <trkpt lat="44.75874" lon="1.59978">
        <ele>187.6</ele>
        <time>2023-04-16T09:31:12Z</time>
      </trkpt>
      <trkpt lat="44.7587" lon="1.5999">
        <ele>187.8</ele>
        <time>2023-04-16T09:31:19Z</time>
      </trkpt>
      <trkpt lat="44.75868" lon="1.60004">
        <ele>188</ele>
        <time>2023-04-16T09:31:27Z</time>
      </trkpt>
      <trkpt lat="44.75864" lon="1.60017">
        <ele>188</ele>
        <time>2023-04-16T09:31:35Z</time>
      </trkpt>
      <trkpt lat="44.75861" lon="1.60031">
        <ele>188.1</ele>
        <time>2023-04-16T09:31:43Z</time>
      </trkpt>
      <trkpt lat="44.75859" lon="1.60044">
        <ele>188.5</ele>
        <time>2023-04-16T09:31:50Z</time>
      </trkpt>
      <trkpt lat="44.75858" lon="1.60058">
        <ele>188.9</ele>
        <time>2023-04-16T09:31:58Z</time>
      </trkpt>
      <trkpt lat="44.75856" lon="1.60072">
        <ele>188.8</ele>
        <time>2023-04-16T09:32:06Z</time>
      </trkpt>
      <trkpt lat="44.75856" lon="1.60085">
        <ele>188.8</ele>
        <time>2023-04-16T09:32:13Z</time>
      </trkpt>
      <trkpt lat="44.75858" lon="1.60099">
        <ele>188.9</ele>
        <time>2023-04-16T09:32:20Z</time>
      </trkpt>
      <trkpt lat="44.75859" lon="1.60113">
        <ele>189</ele>
        <time>2023-04-16T09:32:28Z</time>
      </trkpt>
      <trkpt lat="44.75859" lon="1.60126">
        <ele>189</ele>
        <time>2023-04-16T09:32:35Z</time>
      </trkpt>
      <trkpt lat="44.75859" lon="1.6014">
        <ele>189</ele>
        <time>2023-04-16T09:32:43Z</time>
      </trkpt>
      <trkpt lat="44.75859" lon="1.60153">
        <ele>189.5</ele>
        <time>2023-04-16T09:32:50Z</time>
      </trkpt>
      <trkpt lat="44.75859" lon="1.60166">
        <ele>189.9</ele>
        <time>2023-04-16T09:32:58Z</time>
      </trkpt>
      <trkpt lat="44.75858" lon="1.6018">
        <ele>189.9</ele>
        <time>2023-04-16T09:33:06Z</time>
      </trkpt>
      <trkpt lat="44.75855" lon="1.60193">
        <ele>190</ele>
        <time>2023-04-16T09:33:13Z</time>
      </trkpt>
      <trkpt lat="44.75854" lon="1.60206">
        <ele>190.3</ele>
        <time>2023-04-16T09:33:20Z</time>
      </trkpt>
      <trkpt lat="44.75852" lon="1.6022">
        <ele>190.6</ele>
        <time>2023-04-16T09:33:28Z</time>
      </trkpt>
      <trkpt lat="44.7585" lon="1.60233">
        <ele>190.8</ele>
        <time>2023-04-16T09:33:36Z</time>
      </trkpt>
      <trkpt lat="44.7585" lon="1.60246">
        <ele>190.9</ele>
        <time>2023-04-16T09:33:45Z</time>
      </trkpt>
      <trkpt lat="44.75847" lon="1.60259">
        <ele>191.2</ele>
        <time>2023-04-16T09:33:53Z</time>
      </trkpt>
      <trkpt lat="44.75844" lon="1.60272">
        <ele>191.3</ele>
        <time>2023-04-16T09:34:01Z</time>
      </trkpt>
      <trkpt lat="44.7584" lon="1.60285">
        <ele>191.2</ele>
        <time>2023-04-16T09:34:08Z</time>
      </trkpt>
      <trkpt lat="44.75836" lon="1.60297">
        <ele>191.1</ele>
        <time>2023-04-16T09:34:16Z</time>
      </trkpt>
      <trkpt lat="44.75831" lon="1.60309">
        <ele>191.1</ele>
        <time>2023-04-16T09:34:23Z</time>
      </trkpt>
      <trkpt lat="44.75826" lon="1.60321">
        <ele>191.1</ele>
        <time>2023-04-16T09:34:31Z</time>
      </trkpt>
      <trkpt lat="44.75819" lon="1.6033">
        <ele>191.1</ele>
        <time>2023-04-16T09:34:38Z</time>
      </trkpt>
      <trkpt lat="44.75812" lon="1.60339">
        <ele>191.2</ele>
        <time>2023-04-16T09:34:46Z</time>
      </trkpt>
      <trkpt lat="44.75804" lon="1.60348">
        <ele>191.6</ele>
        <time>2023-04-16T09:34:54Z</time>
      </trkpt>
      <trkpt lat="44.75796" lon="1.60354">
        <ele>191.9</ele>
        <time>2023-04-16T09:35:01Z</time>
      </trkpt>
      <trkpt lat="44.75788" lon="1.60362">
        <ele>192</ele>
        <time>2023-04-16T09:35:09Z</time>
      </trkpt>
      <trkpt lat="44.7578" lon="1.60369">
        <ele>192</ele>
        <time>2023-04-16T09:35:16Z</time>
      </trkpt>
      <trkpt lat="44.75772" lon="1.60375">
        <ele>192</ele>
        <time>2023-04-16T09:35:23Z</time>
      </trkpt>
      <trkpt lat="44.75763" lon="1.6038">
        <ele>192</ele>
        <time>2023-04-16T09:35:31Z</time>
      </trkpt>
      <trkpt lat="44.75754" lon="1.60383">
        <ele>192</ele>
        <time>2023-04-16T09:35:39Z</time>
      </trkpt>
      <trkpt lat="44.75744" lon="1.60384">
        <ele>192.2</ele>
        <time>2023-04-16T09:35:47Z</time>
      </trkpt>
      <trkpt lat="44.75735" lon="1.60386">
        <ele>192.5</ele>
        <time>2023-04-16T09:35:55Z</time>
      </trkpt>
      <trkpt lat="44.75726" lon="1.60388">
        <ele>192.9</ele>
        <time>2023-04-16T09:36:02Z</time>
      </trkpt>
      <trkpt lat="44.75716" lon="1.6039">
        <ele>193</ele>
        <time>2023-04-16T09:36:09Z</time>
      </trkpt>
      <trkpt lat="44.75707" lon="1.60393">
        <ele>193</ele>
        <time>2023-04-16T09:36:17Z</time>
      </trkpt>
      <trkpt lat="44.75698" lon="1.60394">
        <ele>193</ele>
        <time>2023-04-16T09:36:24Z</time>
      </trkpt>
      <trkpt lat="44.75688" lon="1.60396">
        <ele>193</ele>
        <time>2023-04-16T09:36:32Z</time>
      </trkpt>
      <trkpt lat="44.75678" lon="1.60397">
        <ele>193</ele>
        <time>2023-04-16T09:36:40Z</time>
      </trkpt>
      <trkpt lat="44.75669" lon="1.60398">
        <ele>193</ele>
        <time>2023-04-16T09:36:47Z</time>
      </trkpt>
      <trkpt lat="44.75659" lon="1.60399">
        <ele>193.1</ele>
        <time>2023-04-16T09:36:55Z</time>
      </trkpt>
      <trkpt lat="44.7565" lon="1.604">
        <ele>193.2</ele>
        <time>2023-04-16T09:37:02Z</time>
      </trkpt>
      <trkpt lat="44.75641" lon="1.60401">
        <ele>193.4</ele>
        <time>2023-04-16T09:37:09Z</time>
      </trkpt>
      <trkpt lat="44.75631" lon="1.60402">
        <ele>193.6</ele>
        <time>2023-04-16T09:37:16Z</time>
      </trkpt>
      <trkpt lat="44.75622" lon="1.60405">
        <ele>193.8</ele>
        <time>2023-04-16T09:37:24Z</time>
      </trkpt>
      <trkpt lat="44.75612" lon="1.60407">
        <ele>194</ele>
        <time>2023-04-16T09:37:32Z</time>
      </trkpt>
      <trkpt lat="44.75603" lon="1.6041">
        <ele>194.3</ele>
        <time>2023-04-16T09:37:40Z</time>
      </trkpt>
      <trkpt lat="44.75593" lon="1.60412">
        <ele>194.6</ele>
        <time>2023-04-16T09:37:48Z</time>
      </trkpt>
      <trkpt lat="44.75584" lon="1.60415">
        <ele>195</ele>
        <time>2023-04-16T09:37:56Z</time>
      </trkpt>
      <trkpt lat="44.75574" lon="1.60418">
        <ele>195.4</ele>
        <time>2023-04-16T09:38:04Z</time>
      </trkpt>
      <trkpt lat="44.75565" lon="1.60421">
        <ele>195.8</ele>
        <time>2023-04-16T09:38:11Z</time>
      </trkpt>
      <trkpt lat="44.75556" lon="1.60423">
        <ele>196.2</ele>
        <time>2023-04-16T09:38:19Z</time>
      </trkpt>
      <trkpt lat="44.7555" lon="1.60414">
        <ele>196.3</ele>
        <time>2023-04-16T09:38:30Z</time>
      </trkpt>
      <trkpt lat="44.7555" lon="1.604">
        <ele>197</ele>
        <time>2023-04-16T09:38:39Z</time>
      </trkpt>
      <trkpt lat="44.75555" lon="1.60389">
        <ele>196.1</ele>
        <time>2023-04-16T09:39:34Z</time>
      </trkpt>
      <trkpt lat="44.75559" lon="1.60378">
        <ele>195.5</ele>
        <time>2023-04-16T09:39:41Z</time>
      </trkpt>
      <trkpt lat="44.75556" lon="1.60365">
        <ele>195.2</ele>
        <time>2023-04-16T09:39:47Z</time>
      </trkpt>
      <trkpt lat="44.75554" lon="1.60352">
        <ele>195.2</ele>
        <time>2023-04-16T09:39:56Z</time>
      </trkpt>
      <trkpt lat="44.75547" lon="1.60342">
        <ele>196.2</ele>
        <time>2023-04-16T09:40:02Z</time>
      </trkpt>
      <trkpt lat="44.75543" lon="1.6033">
        <ele>196.3</ele>
        <time>2023-04-16T09:40:09Z</time>
      </trkpt>
      <trkpt lat="44.75537" lon="1.6032">
        <ele>196.5</ele>
        <time>2023-04-16T09:40:17Z</time>
      </trkpt>
      <trkpt lat="44.75531" lon="1.60309">
        <ele>195.5</ele>
        <time>2023-04-16T09:40:26Z</time>
      </trkpt>
      <trkpt lat="44.7553" lon="1.60295">
        <ele>194.9</ele>
        <time>2023-04-16T09:40:34Z</time>
      </trkpt>
      <trkpt lat="44.75537" lon="1.60286">
        <ele>194.9</ele>
        <time>2023-04-16T09:40:43Z</time>
      </trkpt>
      <trkpt lat="44.75544" lon="1.60276">
        <ele>195.1</ele>
        <time>2023-04-16T09:40:53Z</time>
      </trkpt>
      <trkpt lat="44.75549" lon="1.60265">
        <ele>195.7</ele>
        <time>2023-04-16T09:41:01Z</time>
      </trkpt>
      <trkpt lat="44.75553" lon="1.60252">
        <ele>196.7</ele>
        <time>2023-04-16T09:41:09Z</time>
      </trkpt>
      <trkpt lat="44.75555" lon="1.60239">
        <ele>196.9</ele>
        <time>2023-04-16T09:41:17Z</time>
      </trkpt>
      <trkpt lat="44.75553" lon="1.60227">
        <ele>196.8</ele>
        <time>2023-04-16T09:41:26Z</time>
      </trkpt>
      <trkpt lat="44.75548" lon="1.60216">
        <ele>197</ele>
        <time>2023-04-16T09:41:36Z</time>
      </trkpt>
      <trkpt lat="44.75542" lon="1.60206">
        <ele>197.2</ele>
        <time>2023-04-16T09:41:44Z</time>
      </trkpt>
      <trkpt lat="44.75534" lon="1.60197">
        <ele>196.7</ele>
        <time>2023-04-16T09:41:51Z</time>
      </trkpt>
      <trkpt lat="44.75526" lon="1.6019">
        <ele>196.6</ele>
        <time>2023-04-16T09:41:58Z</time>
      </trkpt>
      <trkpt lat="44.75518" lon="1.60181">
        <ele>197.5</ele>
        <time>2023-04-16T09:42:07Z</time>
      </trkpt>
      <trkpt lat="44.75511" lon="1.60172">
        <ele>197.8</ele>
        <time>2023-04-16T09:42:15Z</time>
      </trkpt>
      <trkpt lat="44.75504" lon="1.60163">
        <ele>198.2</ele>
        <time>2023-04-16T09:42:25Z</time>
      </trkpt>
      <trkpt lat="44.75498" lon="1.60153">
        <ele>199.3</ele>
        <time>2023-04-16T09:42:35Z</time>
      </trkpt>
      <trkpt lat="44.75492" lon="1.60143">
        <ele>200.5</ele>
        <time>2023-04-16T09:42:44Z</time>
      </trkpt>
      <trkpt lat="44.75485" lon="1.60134">
        <ele>201.3</ele>
        <time>2023-04-16T09:42:52Z</time>
      </trkpt>
      <trkpt lat="44.7548" lon="1.60124">
        <ele>202.5</ele>
        <time>2023-04-16T09:43:01Z</time>
      </trkpt>
      <trkpt lat="44.75474" lon="1.60113">
        <ele>203</ele>
        <time>2023-04-16T09:43:10Z</time>
      </trkpt>
      <trkpt lat="44.75468" lon="1.60104">
        <ele>204.6</ele>
        <time>2023-04-16T09:43:19Z</time>
      </trkpt>
      <trkpt lat="44.75462" lon="1.60094">
        <ele>206.2</ele>
        <time>2023-04-16T09:44:28Z</time>
      </trkpt>
      <trkpt lat="44.75456" lon="1.60083">
        <ele>207.3</ele>
        <time>2023-04-16T09:44:38Z</time>
      </trkpt>
      <trkpt lat="44.7545" lon="1.60073">
        <ele>208</ele>
        <time>2023-04-16T09:44:46Z</time>
      </trkpt>
      <trkpt lat="44.75443" lon="1.60064">
        <ele>208.3</ele>
        <time>2023-04-16T09:44:54Z</time>
      </trkpt>
      <trkpt lat="44.75436" lon="1.60053">
        <ele>210.3</ele>
        <time>2023-04-16T09:45:03Z</time>
      </trkpt>
      <trkpt lat="44.7543" lon="1.60042">
        <ele>212</ele>
        <time>2023-04-16T09:45:12Z</time>
      </trkpt>
      <trkpt lat="44.75425" lon="1.60031">
        <ele>212.7</ele>
        <time>2023-04-16T09:45:23Z</time>
      </trkpt>
      <trkpt lat="44.75422" lon="1.60019">
        <ele>213.2</ele>
        <time>2023-04-16T09:45:34Z</time>
      </trkpt>
      <trkpt lat="44.75418" lon="1.60006">
        <ele>213.1</ele>
        <time>2023-04-16T09:45:48Z</time>
      </trkpt>
      <trkpt lat="44.75415" lon="1.59993">
        <ele>214</ele>
        <time>2023-04-16T09:45:58Z</time>
      </trkpt>
      <trkpt lat="44.75409" lon="1.59983">
        <ele>216.1</ele>
        <time>2023-04-16T09:46:08Z</time>
      </trkpt>
      <trkpt lat="44.75403" lon="1.59972">
        <ele>217.9</ele>
        <time>2023-04-16T09:46:17Z</time>
      </trkpt>
      <trkpt lat="44.75397" lon="1.59961">
        <ele>219.7</ele>
        <time>2023-04-16T09:46:25Z</time>
      </trkpt>
      <trkpt lat="44.75391" lon="1.59951">
        <ele>220.8</ele>
        <time>2023-04-16T09:46:33Z</time>
      </trkpt>
      <trkpt lat="44.75387" lon="1.59939">
        <ele>221.3</ele>
        <time>2023-04-16T09:46:42Z</time>
      </trkpt>
      <trkpt lat="44.75385" lon="1.59927">
        <ele>222</ele>
        <time>2023-04-16T09:46:52Z</time>
      </trkpt>
      <trkpt lat="44.7538" lon="1.59916">
        <ele>223.2</ele>
        <time>2023-04-16T09:47:03Z</time>
      </trkpt>
      <trkpt lat="44.75373" lon="1.59907">
        <ele>225.1</ele>
        <time>2023-04-16T09:47:13Z</time>
      </trkpt>
      <trkpt lat="44.75366" lon="1.59899">
        <ele>227.3</ele>
        <time>2023-04-16T09:47:23Z</time>
      </trkpt>
      <trkpt lat="44.75358" lon="1.59892">
        <ele>228.5</ele>
        <time>2023-04-16T09:47:31Z</time>
      </trkpt>
      <trkpt lat="44.75353" lon="1.59881">
        <ele>228.8</ele>
        <time>2023-04-16T09:47:39Z</time>
      </trkpt>
      <trkpt lat="44.75351" lon="1.59868">
        <ele>229.7</ele>
        <time>2023-04-16T09:47:47Z</time>
      </trkpt>
      <trkpt lat="44.75349" lon="1.59854">
        <ele>231</ele>
        <time>2023-04-16T09:47:56Z</time>
      </trkpt>
      <trkpt lat="44.75347" lon="1.59841">
        <ele>232.5</ele>
        <time>2023-04-16T09:48:04Z</time>
      </trkpt>
      <trkpt lat="44.75344" lon="1.59828">
        <ele>234.1</ele>
        <time>2023-04-16T09:48:13Z</time>
      </trkpt>
      <trkpt lat="44.75342" lon="1.59816">
        <ele>235.8</ele>
        <time>2023-04-16T09:48:22Z</time>
      </trkpt>
      <trkpt lat="44.75337" lon="1.59804">
        <ele>237.5</ele>
        <time>2023-04-16T09:48:31Z</time>
      </trkpt>
      <trkpt lat="44.75333" lon="1.59791">
        <ele>239.6</ele>
        <time>2023-04-16T09:48:43Z</time>
      </trkpt>
      <trkpt lat="44.75328" lon="1.5978">
        <ele>240.8</ele>
        <time>2023-04-16T09:48:52Z</time>
      </trkpt>
      <trkpt lat="44.75324" lon="1.59768">
        <ele>242.2</ele>
        <time>2023-04-16T09:49:02Z</time>
      </trkpt>
      <trkpt lat="44.75317" lon="1.59758">
        <ele>243.4</ele>
        <time>2023-04-16T09:49:11Z</time>
      </trkpt>
      <trkpt lat="44.75313" lon="1.59746">
        <ele>245.2</ele>
        <time>2023-04-16T09:49:21Z</time>
      </trkpt>
      <trkpt lat="44.75308" lon="1.59734">
        <ele>247.1</ele>
        <time>2023-04-16T09:49:33Z</time>
      </trkpt>
      <trkpt lat="44.75304" lon="1.59723">
        <ele>248.6</ele>
        <time>2023-04-16T09:49:43Z</time>
      </trkpt>
      <trkpt lat="44.75301" lon="1.5971">
        <ele>250.1</ele>
        <time>2023-04-16T09:49:55Z</time>
      </trkpt>
      <trkpt lat="44.75293" lon="1.59701">
        <ele>251</ele>
        <time>2023-04-16T09:50:04Z</time>
      </trkpt>
      <trkpt lat="44.75286" lon="1.59692">
        <ele>252</ele>
        <time>2023-04-16T09:50:12Z</time>
      </trkpt>
      <trkpt lat="44.75282" lon="1.5968">
        <ele>253.4</ele>
        <time>2023-04-16T09:50:22Z</time>
      </trkpt>
      <trkpt lat="44.75276" lon="1.59669">
        <ele>254.7</ele>
        <time>2023-04-16T09:50:32Z</time>
      </trkpt>
      <trkpt lat="44.75269" lon="1.5966">
        <ele>255.7</ele>
        <time>2023-04-16T09:50:40Z</time>
      </trkpt>
      <trkpt lat="44.75262" lon="1.5965">
        <ele>257.2</ele>
        <time>2023-04-16T09:50:50Z</time>
      </trkpt>
      <trkpt lat="44.75255" lon="1.59641">
        <ele>258.6</ele>
        <time>2023-04-16T09:50:58Z</time>
      </trkpt>
      <trkpt lat="44.75247" lon="1.59632">
        <ele>260</ele>
        <time>2023-04-16T09:51:07Z</time>
      </trkpt>
      <trkpt lat="44.75239" lon="1.59625">
        <ele>261</ele>
        <time>2023-04-16T09:51:16Z</time>
      </trkpt>
      <trkpt lat="44.75232" lon="1.59619">
        <ele>261.9</ele>
        <time>2023-04-16T09:51:24Z</time>
      </trkpt>
      <trkpt lat="44.75223" lon="1.59613">
        <ele>262.7</ele>
        <time>2023-04-16T09:51:32Z</time>
      </trkpt>
      <trkpt lat="44.75215" lon="1.59605">
        <ele>264.1</ele>
        <time>2023-04-16T09:51:41Z</time>
      </trkpt>
      <trkpt lat="44.75208" lon="1.59597">
        <ele>265.6</ele>
        <time>2023-04-16T09:51:51Z</time>
      </trkpt>
      <trkpt lat="44.752" lon="1.5959">
        <ele>266.9</ele>
        <time>2023-04-16T09:52:01Z</time>
      </trkpt>
      <trkpt lat="44.75191" lon="1.59583">
        <ele>268.3</ele>
        <time>2023-04-16T09:52:10Z</time>
      </trkpt>
      <trkpt lat="44.75183" lon="1.59576">
        <ele>269.6</ele>
        <time>2023-04-16T09:52:19Z</time>
      </trkpt>
      <trkpt lat="44.75175" lon="1.5957">
        <ele>270.9</ele>
        <time>2023-04-16T09:52:28Z</time>
      </trkpt>
      <trkpt lat="44.75167" lon="1.59561">
        <ele>272.3</ele>
        <time>2023-04-16T09:52:37Z</time>
      </trkpt>
      <trkpt lat="44.75161" lon="1.59551">
        <ele>273.7</ele>
        <time>2023-04-16T09:52:46Z</time>
      </trkpt>
      <trkpt lat="44.75156" lon="1.59539">
        <ele>274.9</ele>
        <time>2023-04-16T09:52:55Z</time>
      </trkpt>
      <trkpt lat="44.75152" lon="1.59527">
        <ele>276.1</ele>
        <time>2023-04-16T09:53:05Z</time>
      </trkpt>
      <trkpt lat="44.75149" lon="1.59514">
        <ele>277.3</ele>
        <time>2023-04-16T09:53:15Z</time>
      </trkpt>
      <trkpt lat="44.75143" lon="1.59504">
        <ele>278.4</ele>
        <time>2023-04-16T09:53:24Z</time>
      </trkpt>
      <trkpt lat="44.75136" lon="1.59494">
        <ele>279.4</ele>
        <time>2023-04-16T09:53:33Z</time>
      </trkpt>
      <trkpt lat="44.7513" lon="1.59484">
        <ele>280.4</ele>
        <time>2023-04-16T09:53:42Z</time>
      </trkpt>
      <trkpt lat="44.75122" lon="1.59476">
        <ele>281.6</ele>
        <time>2023-04-16T09:53:51Z</time>
      </trkpt>
      <trkpt lat="44.75116" lon="1.59465">
        <ele>282.7</ele>
        <time>2023-04-16T09:54:00Z</time>
      </trkpt>
      <trkpt lat="44.7511" lon="1.59455">
        <ele>283.7</ele>
        <time>2023-04-16T09:54:10Z</time>
      </trkpt>
      <trkpt lat="44.75105" lon="1.59444">
        <ele>284.7</ele>
        <time>2023-04-16T09:54:21Z</time>
      </trkpt>
      <trkpt lat="44.75096" lon="1.59438">
        <ele>286</ele>
        <time>2023-04-16T09:54:31Z</time>
      </trkpt>
      <trkpt lat="44.75088" lon="1.59432">
        <ele>287.4</ele>
        <time>2023-04-16T09:54:41Z</time>
      </trkpt>
      <trkpt lat="44.7508" lon="1.59424">
        <ele>288.7</ele>
        <time>2023-04-16T09:54:50Z</time>
      </trkpt>
      <trkpt lat="44.75073" lon="1.59415">
        <ele>289.8</ele>
        <time>2023-04-16T09:55:00Z</time>
      </trkpt>
      <trkpt lat="44.75067" lon="1.59404">
        <ele>290.9</ele>
        <time>2023-04-16T09:55:10Z</time>
      </trkpt>
      <trkpt lat="44.75061" lon="1.59392">
        <ele>292.2</ele>
        <time>2023-04-16T09:55:19Z</time>
      </trkpt>
      <trkpt lat="44.75059" lon="1.59379">
        <ele>293.6</ele>
        <time>2023-04-16T09:55:30Z</time>
      </trkpt>
      <trkpt lat="44.75059" lon="1.59366">
        <ele>294.9</ele>
        <time>2023-04-16T09:55:40Z</time>
      </trkpt>
      <trkpt lat="44.75051" lon="1.59358">
        <ele>296.6</ele>
        <time>2023-04-16T09:55:50Z</time>
      </trkpt>
      <trkpt lat="44.75043" lon="1.59353">
        <ele>297.7</ele>
        <time>2023-04-16T09:55:58Z</time>
      </trkpt>
      <trkpt lat="44.75034" lon="1.59348">
        <ele>298.8</ele>
        <time>2023-04-16T09:56:06Z</time>
      </trkpt>
      <trkpt lat="44.75025" lon="1.59343">
        <ele>299.9</ele>
        <time>2023-04-16T09:56:16Z</time>
      </trkpt>
      <trkpt lat="44.75016" lon="1.5934">
        <ele>301</ele>
        <time>2023-04-16T09:56:27Z</time>
      </trkpt>
      <trkpt lat="44.75006" lon="1.59338">
        <ele>302.1</ele>
        <time>2023-04-16T09:56:39Z</time>
      </trkpt>
      <trkpt lat="44.74996" lon="1.59335">
        <ele>303.1</ele>
        <time>2023-04-16T09:56:48Z</time>
      </trkpt>
      <trkpt lat="44.74987" lon="1.59332">
        <ele>304</ele>
        <time>2023-04-16T09:57:00Z</time>
      </trkpt>
      <trkpt lat="44.74977" lon="1.59329">
        <ele>304.8</ele>
        <time>2023-04-16T09:57:08Z</time>
      </trkpt>
      <trkpt lat="44.74968" lon="1.59325">
        <ele>305.5</ele>
        <time>2023-04-16T09:57:15Z</time>
      </trkpt>
      <trkpt lat="44.74959" lon="1.59323">
        <ele>306</ele>
        <time>2023-04-16T09:57:23Z</time>
      </trkpt>
      <trkpt lat="44.74951" lon="1.59315">
        <ele>306.9</ele>
        <time>2023-04-16T09:57:34Z</time>
      </trkpt>
      <trkpt lat="44.74941" lon="1.59313">
        <ele>307.6</ele>
        <time>2023-04-16T09:57:44Z</time>
      </trkpt>
      <trkpt lat="44.74932" lon="1.59311">
        <ele>308.1</ele>
        <time>2023-04-16T09:57:54Z</time>
      </trkpt>
      <trkpt lat="44.74923" lon="1.59312">
        <ele>308.3</ele>
        <time>2023-04-16T10:04:24Z</time>
      </trkpt>
      <trkpt lat="44.74915" lon="1.59306">
        <ele>309</ele>
        <time>2023-04-16T10:05:21Z</time>
      </trkpt>
      <trkpt lat="44.74907" lon="1.59299">
        <ele>309.6</ele>
        <time>2023-04-16T10:05:29Z</time>
      </trkpt>
      <trkpt lat="44.749" lon="1.59292">
        <ele>310.1</ele>
        <time>2023-04-16T10:05:38Z</time>
      </trkpt>
      <trkpt lat="44.74891" lon="1.59287">
        <ele>310.6</ele>
        <time>2023-04-16T10:05:48Z</time>
      </trkpt>
      <trkpt lat="44.74881" lon="1.59283">
        <ele>311.4</ele>
        <time>2023-04-16T10:05:59Z</time>
      </trkpt>
      <trkpt lat="44.74872" lon="1.5928">
        <ele>312.2</ele>
        <time>2023-04-16T10:06:08Z</time>
      </trkpt>
      <trkpt lat="44.74863" lon="1.59274">
        <ele>313</ele>
        <time>2023-04-16T10:06:18Z</time>
      </trkpt>
      <trkpt lat="44.74854" lon="1.5927">
        <ele>313.8</ele>
        <time>2023-04-16T10:06:28Z</time>
      </trkpt>
      <trkpt lat="44.74846" lon="1.59264">
        <ele>314.6</ele>
        <time>2023-04-16T10:06:35Z</time>
      </trkpt>
      <trkpt lat="44.74836" lon="1.59258">
        <ele>315.5</ele>
        <time>2023-04-16T10:06:44Z</time>
      </trkpt>
      <trkpt lat="44.74827" lon="1.59254">
        <ele>316.3</ele>
        <time>2023-04-16T10:06:51Z</time>
      </trkpt>
      <trkpt lat="44.74819" lon="1.5925">
        <ele>317.1</ele>
        <time>2023-04-16T10:06:58Z</time>
      </trkpt>
      <trkpt lat="44.7481" lon="1.59243">
        <ele>317.9</ele>
        <time>2023-04-16T10:07:07Z</time>
      </trkpt>
      <trkpt lat="44.74802" lon="1.59236">
        <ele>318.6</ele>
        <time>2023-04-16T10:07:15Z</time>
      </trkpt>
      <trkpt lat="44.74794" lon="1.59231">
        <ele>319.1</ele>
        <time>2023-04-16T10:07:23Z</time>
      </trkpt>
      <trkpt lat="44.74786" lon="1.59225">
        <ele>319.6</ele>
        <time>2023-04-16T10:07:32Z</time>
      </trkpt>
      <trkpt lat="44.74778" lon="1.59216">
        <ele>320</ele>
        <time>2023-04-16T10:07:41Z</time>
      </trkpt>
      <trkpt lat="44.7477" lon="1.59209">
        <ele>320</ele>
        <time>2023-04-16T10:07:49Z</time>
      </trkpt>
      <trkpt lat="44.74763" lon="1.59201">
        <ele>320</ele>
        <time>2023-04-16T10:07:57Z</time>
      </trkpt>
      <trkpt lat="44.74756" lon="1.59191">
        <ele>320.1</ele>
        <time>2023-04-16T10:08:05Z</time>
      </trkpt>
      <trkpt lat="44.7475" lon="1.5918">
        <ele>320.5</ele>
        <time>2023-04-16T10:08:14Z</time>
      </trkpt>
      <trkpt lat="44.74742" lon="1.59171">
        <ele>320.6</ele>
        <time>2023-04-16T10:08:22Z</time>
      </trkpt>
      <trkpt lat="44.74734" lon="1.59163">
        <ele>320.5</ele>
        <time>2023-04-16T10:08:30Z</time>
      </trkpt>
      <trkpt lat="44.74726" lon="1.59155">
        <ele>320.5</ele>
        <time>2023-04-16T10:08:38Z</time>
      </trkpt>
      <trkpt lat="44.7472" lon="1.59145">
        <ele>320.6</ele>
        <time>2023-04-16T10:08:46Z</time>
      </trkpt>
      <trkpt lat="44.74714" lon="1.59134">
        <ele>320.5</ele>
        <time>2023-04-16T10:08:54Z</time>
      </trkpt>
      <trkpt lat="44.74709" lon="1.59124">
        <ele>320.3</ele>
        <time>2023-04-16T10:09:01Z</time>
      </trkpt>
      <trkpt lat="44.74704" lon="1.59112">
        <ele>320.3</ele>
        <time>2023-04-16T10:09:09Z</time>
      </trkpt>
      <trkpt lat="44.74698" lon="1.59102">
        <ele>320.1</ele>
        <time>2023-04-16T10:09:16Z</time>
      </trkpt>
      <trkpt lat="44.74692" lon="1.59092">
        <ele>319.7</ele>
        <time>2023-04-16T10:09:25Z</time>
      </trkpt>
      <trkpt lat="44.74687" lon="1.59082">
        <ele>319.1</ele>
        <time>2023-04-16T10:09:35Z</time>
      </trkpt>
      <trkpt lat="44.7468" lon="1.59072">
        <ele>318.3</ele>
        <time>2023-04-16T10:09:43Z</time>
      </trkpt>
      <trkpt lat="44.74674" lon="1.59063">
        <ele>317.6</ele>
        <time>2023-04-16T10:09:50Z</time>
      </trkpt>
      <trkpt lat="44.74668" lon="1.5905">
        <ele>317.1</ele>
        <time>2023-04-16T10:09:57Z</time>
      </trkpt>
      <trkpt lat="44.74664" lon="1.59038">
        <ele>316.6</ele>
        <time>2023-04-16T10:10:04Z</time>
      </trkpt>
      <trkpt lat="44.74659" lon="1.59027">
        <ele>315.9</ele>
        <time>2023-04-16T10:10:11Z</time>
      </trkpt>
      <trkpt lat="44.74654" lon="1.59016">
        <ele>315</ele>
        <time>2023-04-16T10:10:18Z</time>
      </trkpt>
      <trkpt lat="44.74649" lon="1.59004">
        <ele>314.2</ele>
        <time>2023-04-16T10:10:25Z</time>
      </trkpt>
      <trkpt lat="44.74644" lon="1.58993">
        <ele>313.5</ele>
        <time>2023-04-16T10:10:32Z</time>
      </trkpt>
      <trkpt lat="44.74638" lon="1.5898">
        <ele>312.8</ele>
        <time>2023-04-16T10:10:39Z</time>
      </trkpt>
      <trkpt lat="44.74631" lon="1.5897">
        <ele>311.6</ele>
        <time>2023-04-16T10:10:46Z</time>
      </trkpt>
      <trkpt lat="44.74625" lon="1.58959">
        <ele>311</ele>
        <time>2023-04-16T10:10:53Z</time>
      </trkpt>
      <trkpt lat="44.74618" lon="1.58949">
        <ele>310.5</ele>
        <time>2023-04-16T10:11:00Z</time>
      </trkpt>
      <trkpt lat="44.74611" lon="1.58941">
        <ele>310.3</ele>
        <time>2023-04-16T10:11:07Z</time>
      </trkpt>
      <trkpt lat="44.74601" lon="1.58937">
        <ele>310.3</ele>
        <time>2023-04-16T10:11:14Z</time>
      </trkpt>
      <trkpt lat="44.74593" lon="1.58933">
        <ele>310.5</ele>
        <time>2023-04-16T10:11:21Z</time>
      </trkpt>
      <trkpt lat="44.74583" lon="1.58929">
        <ele>310.7</ele>
        <time>2023-04-16T10:11:29Z</time>
      </trkpt>
      <trkpt lat="44.74574" lon="1.58926">
        <ele>311.6</ele>
        <time>2023-04-16T10:11:36Z</time>
      </trkpt>
      <trkpt lat="44.74564" lon="1.58923">
        <ele>312.7</ele>
        <time>2023-04-16T10:11:44Z</time>
      </trkpt>
      <trkpt lat="44.74555" lon="1.58921">
        <ele>313.6</ele>
        <time>2023-04-16T10:11:51Z</time>
      </trkpt>
      <trkpt lat="44.74546" lon="1.58919">
        <ele>314.1</ele>
        <time>2023-04-16T10:11:58Z</time>
      </trkpt>
      <trkpt lat="44.74536" lon="1.58919">
        <ele>314.4</ele>
        <time>2023-04-16T10:12:05Z</time>
      </trkpt>
      <trkpt lat="44.74527" lon="1.58918">
        <ele>314.9</ele>
        <time>2023-04-16T10:12:12Z</time>
      </trkpt>
      <trkpt lat="44.74517" lon="1.58916">
        <ele>315</ele>
        <time>2023-04-16T10:12:19Z</time>
      </trkpt>
      <trkpt lat="44.74507" lon="1.58914">
        <ele>315.2</ele>
        <time>2023-04-16T10:12:26Z</time>
      </trkpt>
      <trkpt lat="44.74497" lon="1.58911">
        <ele>315.3</ele>
        <time>2023-04-16T10:12:33Z</time>
      </trkpt>
      <trkpt lat="44.74487" lon="1.58908">
        <ele>315.3</ele>
        <time>2023-04-16T10:12:40Z</time>
      </trkpt>
      <trkpt lat="44.74477" lon="1.58906">
        <ele>315.2</ele>
        <time>2023-04-16T10:12:47Z</time>
      </trkpt>
      <trkpt lat="44.74468" lon="1.58904">
        <ele>315.1</ele>
        <time>2023-04-16T10:12:54Z</time>
      </trkpt>
      <trkpt lat="44.74458" lon="1.58902">
        <ele>314.8</ele>
        <time>2023-04-16T10:13:01Z</time>
      </trkpt>
      <trkpt lat="44.74449" lon="1.58896">
        <ele>314.8</ele>
        <time>2023-04-16T10:13:08Z</time>
      </trkpt>
      <trkpt lat="44.74441" lon="1.58893">
        <ele>314.4</ele>
        <time>2023-04-16T10:13:15Z</time>
      </trkpt>
      <trkpt lat="44.74431" lon="1.58891">
        <ele>313.9</ele>
        <time>2023-04-16T10:13:22Z</time>
      </trkpt>
      <trkpt lat="44.74423" lon="1.58885">
        <ele>313.7</ele>
        <time>2023-04-16T10:13:29Z</time>
      </trkpt>
      <trkpt lat="44.74414" lon="1.58883">
        <ele>313.2</ele>
        <time>2023-04-16T10:13:36Z</time>
      </trkpt>
      <trkpt lat="44.74405" lon="1.58881">
        <ele>312.2</ele>
        <time>2023-04-16T10:13:43Z</time>
      </trkpt>
      <trkpt lat="44.74395" lon="1.58877">
        <ele>311.2</ele>
        <time>2023-04-16T10:13:51Z</time>
      </trkpt>
      <trkpt lat="44.74386" lon="1.58872">
        <ele>310.3</ele>
        <time>2023-04-16T10:13:58Z</time>
      </trkpt>
      <trkpt lat="44.74377" lon="1.58865">
        <ele>309.6</ele>
        <time>2023-04-16T10:14:07Z</time>
      </trkpt>
      <trkpt lat="44.74369" lon="1.5886">
        <ele>308.9</ele>
        <time>2023-04-16T10:14:15Z</time>
      </trkpt>
      <trkpt lat="44.7436" lon="1.58857">
        <ele>308</ele>
        <time>2023-04-16T10:14:23Z</time>
      </trkpt>
      <trkpt lat="44.7435" lon="1.58856">
        <ele>306.7</ele>
        <time>2023-04-16T10:14:31Z</time>
      </trkpt>
      <trkpt lat="44.74342" lon="1.5885">
        <ele>305.9</ele>
        <time>2023-04-16T10:14:38Z</time>
      </trkpt>
      <trkpt lat="44.74333" lon="1.58842">
        <ele>305.3</ele>
        <time>2023-04-16T10:14:45Z</time>
      </trkpt>
      <trkpt lat="44.74324" lon="1.58838">
        <ele>304.4</ele>
        <time>2023-04-16T10:14:52Z</time>
      </trkpt>
      <trkpt lat="44.74316" lon="1.58832">
        <ele>303.5</ele>
        <time>2023-04-16T10:15:00Z</time>
      </trkpt>
      <trkpt lat="44.74307" lon="1.58827">
        <ele>302.4</ele>
        <time>2023-04-16T10:15:07Z</time>
      </trkpt>
      <trkpt lat="44.74298" lon="1.58821">
        <ele>301.6</ele>
        <time>2023-04-16T10:15:14Z</time>
      </trkpt>
      <trkpt lat="44.74289" lon="1.58816">
        <ele>300.8</ele>
        <time>2023-04-16T10:15:21Z</time>
      </trkpt>
      <trkpt lat="44.7428" lon="1.58811">
        <ele>300</ele>
        <time>2023-04-16T10:15:28Z</time>
      </trkpt>
      <trkpt lat="44.74271" lon="1.58807">
        <ele>299.2</ele>
        <time>2023-04-16T10:15:36Z</time>
      </trkpt>
      <trkpt lat="44.74262" lon="1.58802">
        <ele>298.4</ele>
        <time>2023-04-16T10:15:44Z</time>
      </trkpt>
      <trkpt lat="44.74253" lon="1.58796">
        <ele>297.6</ele>
        <time>2023-04-16T10:15:52Z</time>
      </trkpt>
      <trkpt lat="44.74243" lon="1.58791">
        <ele>297</ele>
        <time>2023-04-16T10:15:59Z</time>
      </trkpt>
      <trkpt lat="44.74234" lon="1.58786">
        <ele>296.5</ele>
        <time>2023-04-16T10:16:06Z</time>
      </trkpt>
      <trkpt lat="44.74225" lon="1.58781">
        <ele>296.1</ele>
        <time>2023-04-16T10:16:14Z</time>
      </trkpt>
      <trkpt lat="44.74216" lon="1.58775">
        <ele>295.3</ele>
        <time>2023-04-16T10:16:22Z</time>
      </trkpt>
      <trkpt lat="44.74207" lon="1.58769">
        <ele>294.5</ele>
        <time>2023-04-16T10:16:29Z</time>
      </trkpt>
      <trkpt lat="44.74198" lon="1.58762">
        <ele>293.9</ele>
        <time>2023-04-16T10:16:36Z</time>
      </trkpt>
      <trkpt lat="44.7419" lon="1.58756">
        <ele>293.6</ele>
        <time>2023-04-16T10:16:44Z</time>
      </trkpt>
      <trkpt lat="44.74184" lon="1.58747">
        <ele>293.6</ele>
        <time>2023-04-16T10:16:50Z</time>
      </trkpt>
      <trkpt lat="44.74177" lon="1.58738">
        <ele>293.4</ele>
        <time>2023-04-16T10:16:57Z</time>
      </trkpt>
      <trkpt lat="44.74168" lon="1.58736">
        <ele>293</ele>
        <time>2023-04-16T10:21:59Z</time>
      </trkpt>
      <trkpt lat="44.74158" lon="1.58734">
        <ele>292.9</ele>
        <time>2023-04-16T10:24:00Z</time>
      </trkpt>
      <trkpt lat="44.74148" lon="1.58734">
        <ele>292.7</ele>
        <time>2023-04-16T10:24:33Z</time>
      </trkpt>
      <trkpt lat="44.74138" lon="1.58731">
        <ele>292.7</ele>
        <time>2023-04-16T10:24:42Z</time>
      </trkpt>
      <trkpt lat="44.74129" lon="1.58728">
        <ele>292.8</ele>
        <time>2023-04-16T10:24:50Z</time>
      </trkpt>
      <trkpt lat="44.7412" lon="1.58723">
        <ele>293</ele>
        <time>2023-04-16T10:24:59Z</time>
      </trkpt>
      <trkpt lat="44.7411" lon="1.58722">
        <ele>293</ele>
        <time>2023-04-16T10:25:09Z</time>
      </trkpt>
      <trkpt lat="44.741" lon="1.58718">
        <ele>293.3</ele>
        <time>2023-04-16T10:25:18Z</time>
      </trkpt>
      <trkpt lat="44.74091" lon="1.58715">
        <ele>293.7</ele>
        <time>2023-04-16T10:25:26Z</time>
      </trkpt>
      <trkpt lat="44.74081" lon="1.58713">
        <ele>294.2</ele>
        <time>2023-04-16T10:25:35Z</time>
      </trkpt>
      <trkpt lat="44.74072" lon="1.58709">
        <ele>295</ele>
        <time>2023-04-16T10:25:42Z</time>
      </trkpt>
      <trkpt lat="44.74063" lon="1.58706">
        <ele>295.9</ele>
        <time>2023-04-16T10:25:50Z</time>
      </trkpt>
      <trkpt lat="44.74053" lon="1.58702">
        <ele>297</ele>
        <time>2023-04-16T10:25:58Z</time>
      </trkpt>
      <trkpt lat="44.74044" lon="1.58702">
        <ele>298</ele>
        <time>2023-04-16T10:26:06Z</time>
      </trkpt>
      <trkpt lat="44.74034" lon="1.58706">
        <ele>298.9</ele>
        <time>2023-04-16T10:26:14Z</time>
      </trkpt>
      <trkpt lat="44.74025" lon="1.58711">
        <ele>299.7</ele>
        <time>2023-04-16T10:26:21Z</time>
      </trkpt>
      <trkpt lat="44.74015" lon="1.58714">
        <ele>300.7</ele>
        <time>2023-04-16T10:26:29Z</time>
      </trkpt>
      <trkpt lat="44.74007" lon="1.58719">
        <ele>301.4</ele>
        <time>2023-04-16T10:26:36Z</time>
      </trkpt>
      <trkpt lat="44.73999" lon="1.58726">
        <ele>302</ele>
        <time>2023-04-16T10:26:44Z</time>
      </trkpt>
      <trkpt lat="44.73991" lon="1.58734">
        <ele>302.5</ele>
        <time>2023-04-16T10:26:52Z</time>
      </trkpt>
      <trkpt lat="44.73983" lon="1.5874">
        <ele>303.2</ele>
        <time>2023-04-16T10:27:02Z</time>
      </trkpt>
      <trkpt lat="44.73974" lon="1.58745">
        <ele>304</ele>
        <time>2023-04-16T10:27:10Z</time>
      </trkpt>
      <trkpt lat="44.73965" lon="1.5875">
        <ele>304.5</ele>
        <time>2023-04-16T10:27:19Z</time>
      </trkpt>
      <trkpt lat="44.73956" lon="1.58752">
        <ele>305.1</ele>
        <time>2023-04-16T10:27:29Z</time>
      </trkpt>
      <trkpt lat="44.73946" lon="1.58755">
        <ele>305.7</ele>
        <time>2023-04-16T10:27:39Z</time>
      </trkpt>
      <trkpt lat="44.73936" lon="1.58757">
        <ele>306.3</ele>
        <time>2023-04-16T10:27:49Z</time>
      </trkpt>
      <trkpt lat="44.73928" lon="1.58755">
        <ele>307.1</ele>
        <time>2023-04-16T10:27:59Z</time>
      </trkpt>
      <trkpt lat="44.73919" lon="1.58753">
        <ele>307.8</ele>
        <time>2023-04-16T10:28:08Z</time>
      </trkpt>
      <trkpt lat="44.73909" lon="1.58749">
        <ele>308.6</ele>
        <time>2023-04-16T10:28:17Z</time>
      </trkpt>
      <trkpt lat="44.739" lon="1.58747">
        <ele>309.2</ele>
        <time>2023-04-16T10:28:26Z</time>
      </trkpt>
      <trkpt lat="44.73891" lon="1.58746">
        <ele>309.8</ele>
        <time>2023-04-16T10:28:35Z</time>
      </trkpt>
      <trkpt lat="44.73883" lon="1.58741">
        <ele>310.4</ele>
        <time>2023-04-16T10:28:44Z</time>
      </trkpt>
      <trkpt lat="44.73874" lon="1.58741">
        <ele>311.1</ele>
        <time>2023-04-16T10:28:54Z</time>
      </trkpt>
      <trkpt lat="44.73864" lon="1.58741">
        <ele>311.8</ele>
        <time>2023-04-16T10:29:03Z</time>
      </trkpt>
      <trkpt lat="44.73855" lon="1.58743">
        <ele>312.4</ele>
        <time>2023-04-16T10:29:11Z</time>
      </trkpt>
      <trkpt lat="44.73846" lon="1.58748">
        <ele>313.1</ele>
        <time>2023-04-16T10:29:19Z</time>
      </trkpt>
      <trkpt lat="44.73837" lon="1.58752">
        <ele>313.7</ele>
        <time>2023-04-16T10:29:26Z</time>
      </trkpt>
      <trkpt lat="44.73828" lon="1.58758">
        <ele>314.2</ele>
        <time>2023-04-16T10:29:35Z</time>
      </trkpt>
      <trkpt lat="44.73819" lon="1.58764">
        <ele>314.8</ele>
        <time>2023-04-16T10:29:44Z</time>
      </trkpt>
      <trkpt lat="44.73809" lon="1.58767">
        <ele>315.4</ele>
        <time>2023-04-16T10:29:52Z</time>
      </trkpt>
      <trkpt lat="44.73799" lon="1.5877">
        <ele>315.9</ele>
        <time>2023-04-16T10:30:00Z</time>
      </trkpt>
      <trkpt lat="44.7379" lon="1.58773">
        <ele>316.4</ele>
        <time>2023-04-16T10:30:10Z</time>
      </trkpt>
      <trkpt lat="44.73782" lon="1.58779">
        <ele>316.9</ele>
        <time>2023-04-16T10:30:18Z</time>
      </trkpt>
      <trkpt lat="44.73773" lon="1.58783">
        <ele>317.2</ele>
        <time>2023-04-16T10:30:26Z</time>
      </trkpt>
      <trkpt lat="44.73764" lon="1.58787">
        <ele>317.3</ele>
        <time>2023-04-16T10:30:33Z</time>
      </trkpt>
      <trkpt lat="44.73754" lon="1.58789">
        <ele>317.4</ele>
        <time>2023-04-16T10:30:40Z</time>
      </trkpt>
      <trkpt lat="44.73746" lon="1.58794">
        <ele>317.6</ele>
        <time>2023-04-16T10:30:48Z</time>
      </trkpt>
      <trkpt lat="44.73737" lon="1.58799">
        <ele>317.8</ele>
        <time>2023-04-16T10:30:58Z</time>
      </trkpt>
      <trkpt lat="44.73728" lon="1.58803">
        <ele>317.9</ele>
        <time>2023-04-16T10:31:05Z</time>
      </trkpt>
      <trkpt lat="44.73719" lon="1.58809">
        <ele>318</ele>
        <time>2023-04-16T10:31:13Z</time>
      </trkpt>
      <trkpt lat="44.7371" lon="1.58814">
        <ele>318</ele>
        <time>2023-04-16T10:31:21Z</time>
      </trkpt>
      <trkpt lat="44.73701" lon="1.58819">
        <ele>318.1</ele>
        <time>2023-04-16T10:31:29Z</time>
      </trkpt>
      <trkpt lat="44.73692" lon="1.58825">
        <ele>318.3</ele>
        <time>2023-04-16T10:31:36Z</time>
      </trkpt>
      <trkpt lat="44.73684" lon="1.58834">
        <ele>318.6</ele>
        <time>2023-04-16T10:31:44Z</time>
      </trkpt>
      <trkpt lat="44.73678" lon="1.58844">
        <ele>319</ele>
        <time>2023-04-16T10:31:51Z</time>
      </trkpt>
      <trkpt lat="44.73671" lon="1.58853">
        <ele>319.5</ele>
        <time>2023-04-16T10:31:58Z</time>
      </trkpt>
      <trkpt lat="44.73664" lon="1.58863">
        <ele>319.9</ele>
        <time>2023-04-16T10:32:05Z</time>
      </trkpt>
      <trkpt lat="44.73656" lon="1.5887">
        <ele>319.7</ele>
        <time>2023-04-16T10:32:12Z</time>
      </trkpt>
      <trkpt lat="44.73649" lon="1.58879">
        <ele>319.8</ele>
        <time>2023-04-16T10:32:20Z</time>
      </trkpt>
      <trkpt lat="44.7364" lon="1.58886">
        <ele>319.9</ele>
        <time>2023-04-16T10:32:28Z</time>
      </trkpt>
      <trkpt lat="44.73633" lon="1.58896">
        <ele>319.7</ele>
        <time>2023-04-16T10:32:36Z</time>
      </trkpt>
      <trkpt lat="44.73626" lon="1.58904">
        <ele>319.4</ele>
        <time>2023-04-16T10:32:43Z</time>
      </trkpt>
      <trkpt lat="44.73618" lon="1.58911">
        <ele>319.1</ele>
        <time>2023-04-16T10:32:51Z</time>
      </trkpt>
      <trkpt lat="44.7361" lon="1.58919">
        <ele>319</ele>
        <time>2023-04-16T10:32:58Z</time>
      </trkpt>
      <trkpt lat="44.73603" lon="1.58928">
        <ele>318.8</ele>
        <time>2023-04-16T10:33:05Z</time>
      </trkpt>
      <trkpt lat="44.73595" lon="1.58935">
        <ele>318.5</ele>
        <time>2023-04-16T10:33:12Z</time>
      </trkpt>
      <trkpt lat="44.73587" lon="1.5894">
        <ele>318.1</ele>
        <time>2023-04-16T10:33:19Z</time>
      </trkpt>
      <trkpt lat="44.73579" lon="1.58949">
        <ele>318</ele>
        <time>2023-04-16T10:33:27Z</time>
      </trkpt>
      <trkpt lat="44.73571" lon="1.58955">
        <ele>317.7</ele>
        <time>2023-04-16T10:33:34Z</time>
      </trkpt>
      <trkpt lat="44.73565" lon="1.58966">
        <ele>317.7</ele>
        <time>2023-04-16T10:33:43Z</time>
      </trkpt>
      <trkpt lat="44.73556" lon="1.58973">
        <ele>317.1</ele>
        <time>2023-04-16T10:33:51Z</time>
      </trkpt>
      <trkpt lat="44.73548" lon="1.5898">
        <ele>316.8</ele>
        <time>2023-04-16T10:33:58Z</time>
      </trkpt>
      <trkpt lat="44.7354" lon="1.58989">
        <ele>316.5</ele>
        <time>2023-04-16T10:34:05Z</time>
      </trkpt>
      <trkpt lat="44.73534" lon="1.58998">
        <ele>316.5</ele>
        <time>2023-04-16T10:34:12Z</time>
      </trkpt>
      <trkpt lat="44.73527" lon="1.59008">
        <ele>316.2</ele>
        <time>2023-04-16T10:34:19Z</time>
      </trkpt>
      <trkpt lat="44.73522" lon="1.5902">
        <ele>315.8</ele>
        <time>2023-04-16T10:34:27Z</time>
      </trkpt>
      <trkpt lat="44.73516" lon="1.59032">
        <ele>315.6</ele>
        <time>2023-04-16T10:34:35Z</time>
      </trkpt>
      <trkpt lat="44.7351" lon="1.59042">
        <ele>315.3</ele>
        <time>2023-04-16T10:34:42Z</time>
      </trkpt>
      <trkpt lat="44.73505" lon="1.59054">
        <ele>315.5</ele>
        <time>2023-04-16T10:34:49Z</time>
      </trkpt>
      <trkpt lat="44.73501" lon="1.59065">
        <ele>315.5</ele>
        <time>2023-04-16T10:34:57Z</time>
      </trkpt>
      <trkpt lat="44.73496" lon="1.59077">
        <ele>315</ele>
        <time>2023-04-16T10:35:05Z</time>
      </trkpt>
      <trkpt lat="44.73489" lon="1.59087">
        <ele>314.7</ele>
        <time>2023-04-16T10:35:13Z</time>
      </trkpt>
      <trkpt lat="44.73484" lon="1.59098">
        <ele>314.8</ele>
        <time>2023-04-16T10:35:20Z</time>
      </trkpt>
      <trkpt lat="44.73478" lon="1.59109">
        <ele>314.7</ele>
        <time>2023-04-16T10:35:27Z</time>
      </trkpt>
      <trkpt lat="44.73471" lon="1.59118">
        <ele>314</ele>
        <time>2023-04-16T10:35:35Z</time>
      </trkpt>
      <trkpt lat="44.73465" lon="1.59128">
        <ele>313.7</ele>
        <time>2023-04-16T10:35:42Z</time>
      </trkpt>
      <trkpt lat="44.73458" lon="1.59137">
        <ele>313.4</ele>
        <time>2023-04-16T10:35:50Z</time>
      </trkpt>
      <trkpt lat="44.73451" lon="1.59147">
        <ele>313.6</ele>
        <time>2023-04-16T10:35:58Z</time>
      </trkpt>
      <trkpt lat="44.73443" lon="1.59156">
        <ele>313.7</ele>
        <time>2023-04-16T10:36:06Z</time>
      </trkpt>
      <trkpt lat="44.73435" lon="1.59164">
        <ele>313.3</ele>
        <time>2023-04-16T10:36:13Z</time>
      </trkpt>
      <trkpt lat="44.73428" lon="1.59172">
        <ele>313.1</ele>
        <time>2023-04-16T10:36:21Z</time>
      </trkpt>
      <trkpt lat="44.7342" lon="1.5918">
        <ele>312.9</ele>
        <time>2023-04-16T10:36:28Z</time>
      </trkpt>
      <trkpt lat="44.73413" lon="1.5919">
        <ele>312.8</ele>
        <time>2023-04-16T10:36:36Z</time>
      </trkpt>
      <trkpt lat="44.73405" lon="1.59199">
        <ele>312.4</ele>
        <time>2023-04-16T10:36:44Z</time>
      </trkpt>
      <trkpt lat="44.73399" lon="1.59209">
        <ele>312.3</ele>
        <time>2023-04-16T10:36:51Z</time>
      </trkpt>
      <trkpt lat="44.73391" lon="1.59218">
        <ele>311.9</ele>
        <time>2023-04-16T10:36:58Z</time>
      </trkpt>
      <trkpt lat="44.73383" lon="1.59224">
        <ele>311</ele>
        <time>2023-04-16T10:37:06Z</time>
      </trkpt>
      <trkpt lat="44.73376" lon="1.59233">
        <ele>310.6</ele>
        <time>2023-04-16T10:37:13Z</time>
      </trkpt>
      <trkpt lat="44.73369" lon="1.59243">
        <ele>310.5</ele>
        <time>2023-04-16T10:37:20Z</time>
      </trkpt>
      <trkpt lat="44.73362" lon="1.59251">
        <ele>310.3</ele>
        <time>2023-04-16T10:37:27Z</time>
      </trkpt>
      <trkpt lat="44.73353" lon="1.59258">
        <ele>309.4</ele>
        <time>2023-04-16T10:37:35Z</time>
      </trkpt>
      <trkpt lat="44.73345" lon="1.59267">
        <ele>309</ele>
        <time>2023-04-16T10:37:42Z</time>
      </trkpt>
      <trkpt lat="44.73338" lon="1.59275">
        <ele>308.6</ele>
        <time>2023-04-16T10:37:49Z</time>
      </trkpt>
      <trkpt lat="44.7333" lon="1.59282">
        <ele>308.1</ele>
        <time>2023-04-16T10:37:56Z</time>
      </trkpt>
      <trkpt lat="44.73322" lon="1.59291">
        <ele>307.6</ele>
        <time>2023-04-16T10:38:03Z</time>
      </trkpt>
      <trkpt lat="44.73314" lon="1.59297">
        <ele>306.7</ele>
        <time>2023-04-16T10:38:10Z</time>
      </trkpt>
      <trkpt lat="44.73305" lon="1.59304">
        <ele>305.7</ele>
        <time>2023-04-16T10:38:17Z</time>
      </trkpt>
      <trkpt lat="44.73297" lon="1.5931">
        <ele>305.3</ele>
        <time>2023-04-16T10:38:23Z</time>
      </trkpt>
      <trkpt lat="44.73289" lon="1.59318">
        <ele>305.1</ele>
        <time>2023-04-16T10:38:30Z</time>
      </trkpt>
      <trkpt lat="44.73283" lon="1.59328">
        <ele>305.3</ele>
        <time>2023-04-16T10:38:37Z</time>
      </trkpt>
      <trkpt lat="44.73276" lon="1.59336">
        <ele>304.9</ele>
        <time>2023-04-16T10:38:44Z</time>
      </trkpt>
      <trkpt lat="44.73268" lon="1.59344">
        <ele>304.4</ele>
        <time>2023-04-16T10:38:51Z</time>
      </trkpt>
      <trkpt lat="44.73259" lon="1.59352">
        <ele>303.7</ele>
        <time>2023-04-16T10:38:59Z</time>
      </trkpt>
      <trkpt lat="44.73252" lon="1.5936">
        <ele>303.4</ele>
        <time>2023-04-16T10:39:06Z</time>
      </trkpt>
      <trkpt lat="44.73246" lon="1.59372">
        <ele>302.8</ele>
        <time>2023-04-16T10:39:13Z</time>
      </trkpt>
      <trkpt lat="44.73241" lon="1.59382">
        <ele>302.3</ele>
        <time>2023-04-16T10:39:20Z</time>
      </trkpt>
      <trkpt lat="44.73235" lon="1.59392">
        <ele>302</ele>
        <time>2023-04-16T10:39:27Z</time>
      </trkpt>
      <trkpt lat="44.73227" lon="1.59401">
        <ele>301.5</ele>
        <time>2023-04-16T10:39:35Z</time>
      </trkpt>
      <trkpt lat="44.7322" lon="1.5941">
        <ele>300.8</ele>
        <time>2023-04-16T10:39:43Z</time>
      </trkpt>
      <trkpt lat="44.73214" lon="1.5942">
        <ele>300.1</ele>
        <time>2023-04-16T10:39:50Z</time>
      </trkpt>
      <trkpt lat="44.73208" lon="1.59431">
        <ele>299.5</ele>
        <time>2023-04-16T10:39:57Z</time>
      </trkpt>
      <trkpt lat="44.73202" lon="1.5944">
        <ele>299</ele>
        <time>2023-04-16T10:40:04Z</time>
      </trkpt>
      <trkpt lat="44.73196" lon="1.5945">
        <ele>298.8</ele>
        <time>2023-04-16T10:40:11Z</time>
      </trkpt>
      <trkpt lat="44.7319" lon="1.59462">
        <ele>297.9</ele>
        <time>2023-04-16T10:40:18Z</time>
      </trkpt>
      <trkpt lat="44.73185" lon="1.59472">
        <ele>297.3</ele>
        <time>2023-04-16T10:40:26Z</time>
      </trkpt>
      <trkpt lat="44.73179" lon="1.59484">
        <ele>296.9</ele>
        <time>2023-04-16T10:40:35Z</time>
      </trkpt>
      <trkpt lat="44.73173" lon="1.59493">
        <ele>296.3</ele>
        <time>2023-04-16T10:40:42Z</time>
      </trkpt>
      <trkpt lat="44.73165" lon="1.59502">
        <ele>296</ele>
        <time>2023-04-16T10:40:49Z</time>
      </trkpt>
      <trkpt lat="44.73157" lon="1.5951">
        <ele>295.5</ele>
        <time>2023-04-16T10:40:57Z</time>
      </trkpt>
      <trkpt lat="44.73151" lon="1.59521">
        <ele>295.2</ele>
        <time>2023-04-16T10:41:20Z</time>
      </trkpt>
      <trkpt lat="44.73148" lon="1.59508">
        <ele>293.8</ele>
        <time>2023-04-16T10:41:39Z</time>
      </trkpt>
      <trkpt lat="44.73146" lon="1.59496">
        <ele>293</ele>
        <time>2023-04-16T10:47:10Z</time>
      </trkpt>
      <trkpt lat="44.7314" lon="1.59485">
        <ele>292.6</ele>
        <time>2023-04-16T10:47:26Z</time>
      </trkpt>
      <trkpt lat="44.73132" lon="1.59479">
        <ele>293.6</ele>
        <time>2023-04-16T10:48:05Z</time>
      </trkpt>
      <trkpt lat="44.73124" lon="1.59472">
        <ele>295.1</ele>
        <time>2023-04-16T10:48:16Z</time>
      </trkpt>
      <trkpt lat="44.73118" lon="1.59463">
        <ele>296.5</ele>
        <time>2023-04-16T10:48:23Z</time>
      </trkpt>
      <trkpt lat="44.73112" lon="1.59452">
        <ele>297.6</ele>
        <time>2023-04-16T10:48:31Z</time>
      </trkpt>
      <trkpt lat="44.73107" lon="1.5944">
        <ele>298.5</ele>
        <time>2023-04-16T10:48:41Z</time>
      </trkpt>
      <trkpt lat="44.73103" lon="1.59428">
        <ele>299.2</ele>
        <time>2023-04-16T10:48:49Z</time>
      </trkpt>
      <trkpt lat="44.73099" lon="1.59417">
        <ele>299.9</ele>
        <time>2023-04-16T10:48:58Z</time>
      </trkpt>
      <trkpt lat="44.73093" lon="1.59405">
        <ele>300.5</ele>
        <time>2023-04-16T10:49:07Z</time>
      </trkpt>
      <trkpt lat="44.7309" lon="1.59393">
        <ele>301.2</ele>
        <time>2023-04-16T10:49:22Z</time>
      </trkpt>
      <trkpt lat="44.73086" lon="1.59381">
        <ele>301.8</ele>
        <time>2023-04-16T10:49:32Z</time>
      </trkpt>
      <trkpt lat="44.73088" lon="1.59393">
        <ele>301.4</ele>
        <time>2023-04-16T11:27:36Z</time>
      </trkpt>
      <trkpt lat="44.73093" lon="1.59406">
        <ele>300.6</ele>
        <time>2023-04-16T11:27:46Z</time>
      </trkpt>
      <trkpt lat="44.73092" lon="1.59393">
        <ele>301</ele>
        <time>2023-04-16T11:29:34Z</time>
      </trkpt>
      <trkpt lat="44.73092" lon="1.5938">
        <ele>301.2</ele>
        <time>2023-04-16T11:29:50Z</time>
      </trkpt>
      <trkpt lat="44.73098" lon="1.59369">
        <ele>300.8</ele>
        <time>2023-04-16T11:41:00Z</time>
      </trkpt>
      <trkpt lat="44.73091" lon="1.59382">
        <ele>301.2</ele>
        <time>2023-04-16T11:49:30Z</time>
      </trkpt>
      <trkpt lat="44.73083" lon="1.59378">
        <ele>302.1</ele>
        <time>2023-04-16T11:59:33Z</time>
      </trkpt>
      <trkpt lat="44.73074" lon="1.59374">
        <ele>302.9</ele>
        <time>2023-04-16T11:59:44Z</time>
      </trkpt>
      <trkpt lat="44.73065" lon="1.59368">
        <ele>303.9</ele>
        <time>2023-04-16T11:59:53Z</time>
      </trkpt>
      <trkpt lat="44.73056" lon="1.59363">
        <ele>304.9</ele>
        <time>2023-04-16T12:00:02Z</time>
      </trkpt>
      <trkpt lat="44.73047" lon="1.59356">
        <ele>305.4</ele>
        <time>2023-04-16T12:00:14Z</time>
      </trkpt>
      <trkpt lat="44.73038" lon="1.5935">
        <ele>306.1</ele>
        <time>2023-04-16T12:00:23Z</time>
      </trkpt>
      <trkpt lat="44.7303" lon="1.59345">
        <ele>307.1</ele>
        <time>2023-04-16T12:00:35Z</time>
      </trkpt>
      <trkpt lat="44.73022" lon="1.59338">
        <ele>307.9</ele>
        <time>2023-04-16T12:00:47Z</time>
      </trkpt>
      <trkpt lat="44.73014" lon="1.59328">
        <ele>308.8</ele>
        <time>2023-04-16T12:00:57Z</time>
      </trkpt>
      <trkpt lat="44.73008" lon="1.59319">
        <ele>309.6</ele>
        <time>2023-04-16T12:01:06Z</time>
      </trkpt>
      <trkpt lat="44.73" lon="1.59312">
        <ele>310.5</ele>
        <time>2023-04-16T12:01:16Z</time>
      </trkpt>
      <trkpt lat="44.72992" lon="1.59306">
        <ele>311.3</ele>
        <time>2023-04-16T12:01:26Z</time>
      </trkpt>
      <trkpt lat="44.72983" lon="1.59299">
        <ele>312</ele>
        <time>2023-04-16T12:01:35Z</time>
      </trkpt>
      <trkpt lat="44.72976" lon="1.59291">
        <ele>312.8</ele>
        <time>2023-04-16T12:01:44Z</time>
      </trkpt>
      <trkpt lat="44.72969" lon="1.59282">
        <ele>313.9</ele>
        <time>2023-04-16T12:01:54Z</time>
      </trkpt>
      <trkpt lat="44.72963" lon="1.59273">
        <ele>315</ele>
        <time>2023-04-16T12:02:05Z</time>
      </trkpt>
      <trkpt lat="44.72956" lon="1.59262">
        <ele>316.3</ele>
        <time>2023-04-16T12:02:15Z</time>
      </trkpt>
      <trkpt lat="44.72948" lon="1.59255">
        <ele>317.4</ele>
        <time>2023-04-16T12:02:25Z</time>
      </trkpt>
      <trkpt lat="44.7294" lon="1.59248">
        <ele>318.5</ele>
        <time>2023-04-16T12:02:34Z</time>
      </trkpt>
      <trkpt lat="44.72931" lon="1.59241">
        <ele>319.6</ele>
        <time>2023-04-16T12:02:44Z</time>
      </trkpt>
      <trkpt lat="44.72922" lon="1.59238">
        <ele>320.5</ele>
        <time>2023-04-16T12:02:52Z</time>
      </trkpt>
      <trkpt lat="44.72914" lon="1.59231">
        <ele>321.4</ele>
        <time>2023-04-16T12:03:02Z</time>
      </trkpt>
      <trkpt lat="44.72908" lon="1.59221">
        <ele>322.3</ele>
        <time>2023-04-16T12:03:13Z</time>
      </trkpt>
      <trkpt lat="44.72901" lon="1.59213">
        <ele>323.1</ele>
        <time>2023-04-16T12:03:23Z</time>
      </trkpt>
      <trkpt lat="44.72896" lon="1.59202">
        <ele>324</ele>
        <time>2023-04-16T12:03:35Z</time>
      </trkpt>
      <trkpt lat="44.72896" lon="1.59189">
        <ele>324.8</ele>
        <time>2023-04-16T12:03:47Z</time>
      </trkpt>
      <trkpt lat="44.72894" lon="1.59177">
        <ele>325.8</ele>
        <time>2023-04-16T12:04:10Z</time>
      </trkpt>
      <trkpt lat="44.72886" lon="1.59169">
        <ele>327.2</ele>
        <time>2023-04-16T12:04:23Z</time>
      </trkpt>
      <trkpt lat="44.72877" lon="1.59173">
        <ele>327.8</ele>
        <time>2023-04-16T12:04:37Z</time>
      </trkpt>
      <trkpt lat="44.72868" lon="1.59177">
        <ele>328.5</ele>
        <time>2023-04-16T12:04:51Z</time>
      </trkpt>
      <trkpt lat="44.72859" lon="1.59175">
        <ele>329.5</ele>
        <time>2023-04-16T12:05:31Z</time>
      </trkpt>
      <trkpt lat="44.7285" lon="1.59178">
        <ele>330</ele>
        <time>2023-04-16T12:09:00Z</time>
      </trkpt>
      <trkpt lat="44.72842" lon="1.59172">
        <ele>331</ele>
        <time>2023-04-16T12:09:18Z</time>
      </trkpt>
      <trkpt lat="44.72834" lon="1.59166">
        <ele>332</ele>
        <time>2023-04-16T12:09:46Z</time>
      </trkpt>
      <trkpt lat="44.72825" lon="1.59162">
        <ele>332.9</ele>
        <time>2023-04-16T12:10:46Z</time>
      </trkpt>
      <trkpt lat="44.72817" lon="1.59155">
        <ele>334</ele>
        <time>2023-04-16T12:10:58Z</time>
      </trkpt>
      <trkpt lat="44.7281" lon="1.59147">
        <ele>335.1</ele>
        <time>2023-04-16T12:11:09Z</time>
      </trkpt>
      <trkpt lat="44.72802" lon="1.59139">
        <ele>336.3</ele>
        <time>2023-04-16T12:11:20Z</time>
      </trkpt>
      <trkpt lat="44.72793" lon="1.59133">
        <ele>337.5</ele>
        <time>2023-04-16T12:11:30Z</time>
      </trkpt>
      <trkpt lat="44.72786" lon="1.59123">
        <ele>338.7</ele>
        <time>2023-04-16T12:11:39Z</time>
      </trkpt>
      <trkpt lat="44.72779" lon="1.59115">
        <ele>339.8</ele>
        <time>2023-04-16T12:11:50Z</time>
      </trkpt>
      <trkpt lat="44.72772" lon="1.59105">
        <ele>340.7</ele>
        <time>2023-04-16T12:12:00Z</time>
      </trkpt>
      <trkpt lat="44.72766" lon="1.59095">
        <ele>341.7</ele>
        <time>2023-04-16T12:12:10Z</time>
      </trkpt>
      <trkpt lat="44.7276" lon="1.59085">
        <ele>342.9</ele>
        <time>2023-04-16T12:12:19Z</time>
      </trkpt>
      <trkpt lat="44.72751" lon="1.59078">
        <ele>344.1</ele>
        <time>2023-04-16T12:12:28Z</time>
      </trkpt>
      <trkpt lat="44.72741" lon="1.59073">
        <ele>345.1</ele>
        <time>2023-04-16T12:12:36Z</time>
      </trkpt>
      <trkpt lat="44.72731" lon="1.59072">
        <ele>346</ele>
        <time>2023-04-16T12:12:45Z</time>
      </trkpt>
      <trkpt lat="44.72722" lon="1.59069">
        <ele>347.1</ele>
        <time>2023-04-16T12:12:56Z</time>
      </trkpt>
      <trkpt lat="44.72713" lon="1.59064">
        <ele>348.4</ele>
        <time>2023-04-16T12:13:06Z</time>
      </trkpt>
      <trkpt lat="44.72704" lon="1.59059">
        <ele>349.7</ele>
        <time>2023-04-16T12:13:16Z</time>
      </trkpt>
      <trkpt lat="44.72694" lon="1.59057">
        <ele>350.9</ele>
        <time>2023-04-16T12:13:25Z</time>
      </trkpt>
      <trkpt lat="44.72684" lon="1.59056">
        <ele>352.1</ele>
        <time>2023-04-16T12:13:35Z</time>
      </trkpt>
      <trkpt lat="44.72675" lon="1.59055">
        <ele>353.2</ele>
        <time>2023-04-16T12:13:44Z</time>
      </trkpt>
      <trkpt lat="44.72666" lon="1.59051">
        <ele>354.3</ele>
        <time>2023-04-16T12:13:53Z</time>
      </trkpt>
      <trkpt lat="44.72656" lon="1.59051">
        <ele>355.3</ele>
        <time>2023-04-16T12:14:02Z</time>
      </trkpt>
      <trkpt lat="44.72646" lon="1.59051">
        <ele>356.4</ele>
        <time>2023-04-16T12:14:13Z</time>
      </trkpt>
      <trkpt lat="44.72637" lon="1.59051">
        <ele>357.3</ele>
        <time>2023-04-16T12:14:22Z</time>
      </trkpt>
      <trkpt lat="44.72628" lon="1.59055">
        <ele>357.8</ele>
        <time>2023-04-16T12:14:31Z</time>
      </trkpt>
      <trkpt lat="44.72618" lon="1.59057">
        <ele>358.4</ele>
        <time>2023-04-16T12:14:40Z</time>
      </trkpt>
      <trkpt lat="44.72608" lon="1.59057">
        <ele>359.1</ele>
        <time>2023-04-16T12:14:50Z</time>
      </trkpt>
      <trkpt lat="44.72598" lon="1.59055">
        <ele>359.9</ele>
        <time>2023-04-16T12:14:59Z</time>
      </trkpt>
      <trkpt lat="44.72589" lon="1.59054">
        <ele>360.7</ele>
        <time>2023-04-16T12:15:07Z</time>
      </trkpt>
      <trkpt lat="44.72579" lon="1.5905">
        <ele>361.2</ele>
        <time>2023-04-16T12:15:15Z</time>
      </trkpt>
      <trkpt lat="44.72569" lon="1.59049">
        <ele>361.4</ele>
        <time>2023-04-16T12:15:24Z</time>
      </trkpt>
      <trkpt lat="44.7256" lon="1.59049">
        <ele>361.4</ele>
        <time>2023-04-16T12:15:34Z</time>
      </trkpt>
      <trkpt lat="44.72551" lon="1.59045">
        <ele>361.9</ele>
        <time>2023-04-16T12:15:43Z</time>
      </trkpt>
      <trkpt lat="44.72542" lon="1.59041">
        <ele>362.3</ele>
        <time>2023-04-16T12:15:53Z</time>
      </trkpt>
      <trkpt lat="44.72532" lon="1.59039">
        <ele>362.5</ele>
        <time>2023-04-16T12:16:01Z</time>
      </trkpt>
      <trkpt lat="44.72523" lon="1.59038">
        <ele>362.8</ele>
        <time>2023-04-16T12:16:09Z</time>
      </trkpt>
      <trkpt lat="44.72513" lon="1.59034">
        <ele>363.2</ele>
        <time>2023-04-16T12:16:17Z</time>
      </trkpt>
      <trkpt lat="44.72504" lon="1.59033">
        <ele>363.5</ele>
        <time>2023-04-16T12:16:25Z</time>
      </trkpt>
      <trkpt lat="44.72494" lon="1.59029">
        <ele>363.9</ele>
        <time>2023-04-16T12:16:34Z</time>
      </trkpt>
      <trkpt lat="44.72485" lon="1.5903">
        <ele>363.9</ele>
        <time>2023-04-16T12:17:00Z</time>
      </trkpt>
      <trkpt lat="44.72475" lon="1.59029">
        <ele>363.9</ele>
        <time>2023-04-16T12:17:08Z</time>
      </trkpt>
      <trkpt lat="44.72467" lon="1.59027">
        <ele>364</ele>
        <time>2023-04-16T12:17:17Z</time>
      </trkpt>
      <trkpt lat="44.72457" lon="1.59027">
        <ele>364</ele>
        <time>2023-04-16T12:17:25Z</time>
      </trkpt>
      <trkpt lat="44.72447" lon="1.5903">
        <ele>363.8</ele>
        <time>2023-04-16T12:17:33Z</time>
      </trkpt>
      <trkpt lat="44.72438" lon="1.59032">
        <ele>363.7</ele>
        <time>2023-04-16T12:17:40Z</time>
      </trkpt>
      <trkpt lat="44.72429" lon="1.59033">
        <ele>363.6</ele>
        <time>2023-04-16T12:17:48Z</time>
      </trkpt>
      <trkpt lat="44.7242" lon="1.59034">
        <ele>363.6</ele>
        <time>2023-04-16T12:17:56Z</time>
      </trkpt>
      <trkpt lat="44.7241" lon="1.59032">
        <ele>363.7</ele>
        <time>2023-04-16T12:18:03Z</time>
      </trkpt>
      <trkpt lat="44.724" lon="1.59036">
        <ele>363.6</ele>
        <time>2023-04-16T12:18:12Z</time>
      </trkpt>
      <trkpt lat="44.72392" lon="1.5904">
        <ele>363.5</ele>
        <time>2023-04-16T12:18:21Z</time>
      </trkpt>
      <trkpt lat="44.72383" lon="1.59036">
        <ele>363.7</ele>
        <time>2023-04-16T12:19:46Z</time>
      </trkpt>
      <trkpt lat="44.72374" lon="1.59029">
        <ele>363.9</ele>
        <time>2023-04-16T12:20:13Z</time>
      </trkpt>
      <trkpt lat="44.72366" lon="1.59021">
        <ele>364</ele>
        <time>2023-04-16T12:20:25Z</time>
      </trkpt>
      <trkpt lat="44.72359" lon="1.59012">
        <ele>363.9</ele>
        <time>2023-04-16T12:20:35Z</time>
      </trkpt>
      <trkpt lat="44.72351" lon="1.59004">
        <ele>363.6</ele>
        <time>2023-04-16T12:20:44Z</time>
      </trkpt>
      <trkpt lat="44.72344" lon="1.58995">
        <ele>363.4</ele>
        <time>2023-04-16T12:20:53Z</time>
      </trkpt>
      <trkpt lat="44.72337" lon="1.58986">
        <ele>363.1</ele>
        <time>2023-04-16T12:21:01Z</time>
      </trkpt>
      <trkpt lat="44.72328" lon="1.58978">
        <ele>362.5</ele>
        <time>2023-04-16T12:21:10Z</time>
      </trkpt>
      <trkpt lat="44.72321" lon="1.5897">
        <ele>361.7</ele>
        <time>2023-04-16T12:21:17Z</time>
      </trkpt>
      <trkpt lat="44.72313" lon="1.58962">
        <ele>361.3</ele>
        <time>2023-04-16T12:21:25Z</time>
      </trkpt>
      <trkpt lat="44.72305" lon="1.58954">
        <ele>361.3</ele>
        <time>2023-04-16T12:21:33Z</time>
      </trkpt>
      <trkpt lat="44.72297" lon="1.58946">
        <ele>361.5</ele>
        <time>2023-04-16T12:21:42Z</time>
      </trkpt>
      <trkpt lat="44.72289" lon="1.58939">
        <ele>361.3</ele>
        <time>2023-04-16T12:21:50Z</time>
      </trkpt>
      <trkpt lat="44.72281" lon="1.58932">
        <ele>360.7</ele>
        <time>2023-04-16T12:21:58Z</time>
      </trkpt>
      <trkpt lat="44.72275" lon="1.58922">
        <ele>360.1</ele>
        <time>2023-04-16T12:22:08Z</time>
      </trkpt>
      <trkpt lat="44.7228" lon="1.58911">
        <ele>360.2</ele>
        <time>2023-04-16T12:24:41Z</time>
      </trkpt>
      <trkpt lat="44.72286" lon="1.589">
        <ele>360.4</ele>
        <time>2023-04-16T12:24:51Z</time>
      </trkpt>
      <trkpt lat="44.72292" lon="1.58889">
        <ele>360.5</ele>
        <time>2023-04-16T12:24:59Z</time>
      </trkpt>
      <trkpt lat="44.72298" lon="1.58878">
        <ele>360.2</ele>
        <time>2023-04-16T12:25:08Z</time>
      </trkpt>
      <trkpt lat="44.72301" lon="1.58866">
        <ele>359.9</ele>
        <time>2023-04-16T12:25:16Z</time>
      </trkpt>
      <trkpt lat="44.72306" lon="1.58855">
        <ele>359.8</ele>
        <time>2023-04-16T12:25:24Z</time>
      </trkpt>
      <trkpt lat="44.72311" lon="1.58842">
        <ele>359.5</ele>
        <time>2023-04-16T12:25:32Z</time>
      </trkpt>
      <trkpt lat="44.72315" lon="1.5883">
        <ele>359.1</ele>
        <time>2023-04-16T12:25:39Z</time>
      </trkpt>
      <trkpt lat="44.72319" lon="1.58816">
        <ele>358.2</ele>
        <time>2023-04-16T12:25:47Z</time>
      </trkpt>
      <trkpt lat="44.72323" lon="1.58804">
        <ele>357.6</ele>
        <time>2023-04-16T12:25:55Z</time>
      </trkpt>
      <trkpt lat="44.72323" lon="1.58791">
        <ele>356.9</ele>
        <time>2023-04-16T12:26:21Z</time>
      </trkpt>
      <trkpt lat="44.72315" lon="1.58786">
        <ele>356.2</ele>
        <time>2023-04-16T12:26:32Z</time>
      </trkpt>
      <trkpt lat="44.72306" lon="1.58782">
        <ele>355.3</ele>
        <time>2023-04-16T12:26:41Z</time>
      </trkpt>
      <trkpt lat="44.72296" lon="1.58777">
        <ele>354.3</ele>
        <time>2023-04-16T12:26:50Z</time>
      </trkpt>
      <trkpt lat="44.72287" lon="1.58772">
        <ele>353.3</ele>
        <time>2023-04-16T12:27:00Z</time>
      </trkpt>
      <trkpt lat="44.72278" lon="1.58767">
        <ele>352.3</ele>
        <time>2023-04-16T12:27:07Z</time>
      </trkpt>
      <trkpt lat="44.72269" lon="1.58762">
        <ele>351</ele>
        <time>2023-04-16T12:27:15Z</time>
      </trkpt>
      <trkpt lat="44.72261" lon="1.58756">
        <ele>349.7</ele>
        <time>2023-04-16T12:27:23Z</time>
      </trkpt>
      <trkpt lat="44.72251" lon="1.58751">
        <ele>348.2</ele>
        <time>2023-04-16T12:27:32Z</time>
      </trkpt>
      <trkpt lat="44.72242" lon="1.5875">
        <ele>346.8</ele>
        <time>2023-04-16T12:27:41Z</time>
      </trkpt>
      <trkpt lat="44.72233" lon="1.58745">
        <ele>344.9</ele>
        <time>2023-04-16T12:27:50Z</time>
      </trkpt>
      <trkpt lat="44.72223" lon="1.58743">
        <ele>343.1</ele>
        <time>2023-04-16T12:27:58Z</time>
      </trkpt>
      <trkpt lat="44.72213" lon="1.58743">
        <ele>341.6</ele>
        <time>2023-04-16T12:28:08Z</time>
      </trkpt>
      <trkpt lat="44.72204" lon="1.58743">
        <ele>339.8</ele>
        <time>2023-04-16T12:28:17Z</time>
      </trkpt>
      <trkpt lat="44.72194" lon="1.58742">
        <ele>338</ele>
        <time>2023-04-16T12:28:28Z</time>
      </trkpt>
      <trkpt lat="44.72184" lon="1.58738">
        <ele>336.2</ele>
        <time>2023-04-16T12:28:37Z</time>
      </trkpt>
      <trkpt lat="44.72175" lon="1.58734">
        <ele>334.6</ele>
        <time>2023-04-16T12:28:45Z</time>
      </trkpt>
      <trkpt lat="44.72165" lon="1.58734">
        <ele>333.2</ele>
        <time>2023-04-16T12:28:55Z</time>
      </trkpt>
      <trkpt lat="44.72156" lon="1.58735">
        <ele>331.9</ele>
        <time>2023-04-16T12:29:03Z</time>
      </trkpt>
      <trkpt lat="44.72146" lon="1.58736">
        <ele>330.5</ele>
        <time>2023-04-16T12:29:12Z</time>
      </trkpt>
      <trkpt lat="44.72137" lon="1.58732">
        <ele>329.5</ele>
        <time>2023-04-16T12:29:22Z</time>
      </trkpt>
      <trkpt lat="44.72128" lon="1.58727">
        <ele>328.6</ele>
        <time>2023-04-16T12:29:30Z</time>
      </trkpt>
      <trkpt lat="44.72125" lon="1.58715">
        <ele>328.1</ele>
        <time>2023-04-16T12:29:40Z</time>
      </trkpt>
      <trkpt lat="44.7212" lon="1.58704">
        <ele>327.3</ele>
        <time>2023-04-16T12:29:52Z</time>
      </trkpt>
      <trkpt lat="44.72119" lon="1.5869">
        <ele>326.8</ele>
        <time>2023-04-16T12:30:05Z</time>
      </trkpt>
      <trkpt lat="44.72117" lon="1.58676">
        <ele>325.8</ele>
        <time>2023-04-16T12:30:15Z</time>
      </trkpt>
      <trkpt lat="44.72115" lon="1.58664">
        <ele>324.5</ele>
        <time>2023-04-16T12:30:22Z</time>
      </trkpt>
      <trkpt lat="44.72116" lon="1.58651">
        <ele>325</ele>
        <time>2023-04-16T12:30:30Z</time>
      </trkpt>
      <trkpt lat="44.72112" lon="1.5864">
        <ele>323.5</ele>
        <time>2023-04-16T12:30:37Z</time>
      </trkpt>
      <trkpt lat="44.7211" lon="1.58628">
        <ele>322.9</ele>
        <time>2023-04-16T12:30:45Z</time>
      </trkpt>
      <trkpt lat="44.72106" lon="1.58615">
        <ele>322.5</ele>
        <time>2023-04-16T12:30:52Z</time>
      </trkpt>
      <trkpt lat="44.72101" lon="1.58603">
        <ele>322.4</ele>
        <time>2023-04-16T12:31:00Z</time>
      </trkpt>
      <trkpt lat="44.72095" lon="1.58592">
        <ele>321.5</ele>
        <time>2023-04-16T12:31:09Z</time>
      </trkpt>
      <trkpt lat="44.72088" lon="1.58583">
        <ele>319.5</ele>
        <time>2023-04-16T12:31:17Z</time>
      </trkpt>
      <trkpt lat="44.7208" lon="1.58574">
        <ele>319.2</ele>
        <time>2023-04-16T12:31:25Z</time>
      </trkpt>
      <trkpt lat="44.72072" lon="1.58567">
        <ele>319</ele>
        <time>2023-04-16T12:31:33Z</time>
      </trkpt>
      <trkpt lat="44.72062" lon="1.58561">
        <ele>317.7</ele>
        <time>2023-04-16T12:31:40Z</time>
      </trkpt>
      <trkpt lat="44.72054" lon="1.58555">
        <ele>315.9</ele>
        <time>2023-04-16T12:31:47Z</time>
      </trkpt>
      <trkpt lat="44.72044" lon="1.58551">
        <ele>315.8</ele>
        <time>2023-04-16T12:31:55Z</time>
      </trkpt>
      <trkpt lat="44.72036" lon="1.58542">
        <ele>315.6</ele>
        <time>2023-04-16T12:32:04Z</time>
      </trkpt>
      <trkpt lat="44.7203" lon="1.58533">
        <ele>314.5</ele>
        <time>2023-04-16T12:32:13Z</time>
      </trkpt>
      <trkpt lat="44.72023" lon="1.58522">
        <ele>314.6</ele>
        <time>2023-04-16T12:32:21Z</time>
      </trkpt>
      <trkpt lat="44.72017" lon="1.58511">
        <ele>314.8</ele>
        <time>2023-04-16T12:32:29Z</time>
      </trkpt>
      <trkpt lat="44.72012" lon="1.58499">
        <ele>314.2</ele>
        <time>2023-04-16T12:32:37Z</time>
      </trkpt>
      <trkpt lat="44.72008" lon="1.58487">
        <ele>313.7</ele>
        <time>2023-04-16T12:32:45Z</time>
      </trkpt>
      <trkpt lat="44.72002" lon="1.58475">
        <ele>311.9</ele>
        <time>2023-04-16T12:32:53Z</time>
      </trkpt>
      <trkpt lat="44.71996" lon="1.58466">
        <ele>311.8</ele>
        <time>2023-04-16T12:33:01Z</time>
      </trkpt>
      <trkpt lat="44.7199" lon="1.58455">
        <ele>312.2</ele>
        <time>2023-04-16T12:33:09Z</time>
      </trkpt>
      <trkpt lat="44.71985" lon="1.58442">
        <ele>312</ele>
        <time>2023-04-16T12:33:17Z</time>
      </trkpt>
      <trkpt lat="44.7198" lon="1.5843">
        <ele>311.3</ele>
        <time>2023-04-16T12:33:25Z</time>
      </trkpt>
      <trkpt lat="44.71975" lon="1.58418">
        <ele>310.1</ele>
        <time>2023-04-16T12:33:32Z</time>
      </trkpt>
      <trkpt lat="44.71971" lon="1.58407">
        <ele>309.7</ele>
        <time>2023-04-16T12:33:39Z</time>
      </trkpt>
      <trkpt lat="44.71965" lon="1.58396">
        <ele>310</ele>
        <time>2023-04-16T12:33:47Z</time>
      </trkpt>
      <trkpt lat="44.7196" lon="1.58385">
        <ele>310</ele>
        <time>2023-04-16T12:33:55Z</time>
      </trkpt>
      <trkpt lat="44.71955" lon="1.58374">
        <ele>309.4</ele>
        <time>2023-04-16T12:34:03Z</time>
      </trkpt>
      <trkpt lat="44.71949" lon="1.58363">
        <ele>307.5</ele>
        <time>2023-04-16T12:34:11Z</time>
      </trkpt>
      <trkpt lat="44.71942" lon="1.58353">
        <ele>307.2</ele>
        <time>2023-04-16T12:34:18Z</time>
      </trkpt>
      <trkpt lat="44.71935" lon="1.58345">
        <ele>307.8</ele>
        <time>2023-04-16T12:34:26Z</time>
      </trkpt>
      <trkpt lat="44.7193" lon="1.58333">
        <ele>307.4</ele>
        <time>2023-04-16T12:34:36Z</time>
      </trkpt>
      <trkpt lat="44.71925" lon="1.58323">
        <ele>306.7</ele>
        <time>2023-04-16T12:34:44Z</time>
      </trkpt>
      <trkpt lat="44.71919" lon="1.58311">
        <ele>305</ele>
        <time>2023-04-16T12:34:53Z</time>
      </trkpt>
      <trkpt lat="44.71912" lon="1.58302">
        <ele>304.8</ele>
        <time>2023-04-16T12:35:02Z</time>
      </trkpt>
      <trkpt lat="44.71905" lon="1.58293">
        <ele>305.5</ele>
        <time>2023-04-16T12:35:11Z</time>
      </trkpt>
      <trkpt lat="44.71897" lon="1.58284">
        <ele>304.5</ele>
        <time>2023-04-16T12:35:19Z</time>
      </trkpt>
      <trkpt lat="44.71889" lon="1.58275">
        <ele>302.3</ele>
        <time>2023-04-16T12:35:27Z</time>
      </trkpt>
      <trkpt lat="44.71883" lon="1.58265">
        <ele>303.2</ele>
        <time>2023-04-16T12:35:34Z</time>
      </trkpt>
      <trkpt lat="44.71877" lon="1.58256">
        <ele>302.9</ele>
        <time>2023-04-16T12:35:42Z</time>
      </trkpt>
      <trkpt lat="44.71869" lon="1.58248">
        <ele>301.7</ele>
        <time>2023-04-16T12:35:50Z</time>
      </trkpt>
      <trkpt lat="44.71862" lon="1.58239">
        <ele>300.9</ele>
        <time>2023-04-16T12:35:58Z</time>
      </trkpt>
      <trkpt lat="44.71854" lon="1.58232">
        <ele>301</ele>
        <time>2023-04-16T12:36:06Z</time>
      </trkpt>
      <trkpt lat="44.71846" lon="1.58225">
        <ele>300.1</ele>
        <time>2023-04-16T12:36:14Z</time>
      </trkpt>
      <trkpt lat="44.71839" lon="1.58216">
        <ele>299</ele>
        <time>2023-04-16T12:36:22Z</time>
      </trkpt>
      <trkpt lat="44.71831" lon="1.58208">
        <ele>298.1</ele>
        <time>2023-04-16T12:36:31Z</time>
      </trkpt>
      <trkpt lat="44.71824" lon="1.58198">
        <ele>298.3</ele>
        <time>2023-04-16T12:36:39Z</time>
      </trkpt>
      <trkpt lat="44.71818" lon="1.58187">
        <ele>298.5</ele>
        <time>2023-04-16T12:36:48Z</time>
      </trkpt>
      <trkpt lat="44.71814" lon="1.58174">
        <ele>298.1</ele>
        <time>2023-04-16T12:36:55Z</time>
      </trkpt>
      <trkpt lat="44.71814" lon="1.58161">
        <ele>297.8</ele>
        <time>2023-04-16T12:37:03Z</time>
      </trkpt>
      <trkpt lat="44.71817" lon="1.58148">
        <ele>297.9</ele>
        <time>2023-04-16T12:37:14Z</time>
      </trkpt>
      <trkpt lat="44.71819" lon="1.58135">
        <ele>297.6</ele>
        <time>2023-04-16T12:37:23Z</time>
      </trkpt>
      <trkpt lat="44.71821" lon="1.58122">
        <ele>296.6</ele>
        <time>2023-04-16T12:37:30Z</time>
      </trkpt>
      <trkpt lat="44.71823" lon="1.58108">
        <ele>295.6</ele>
        <time>2023-04-16T12:37:40Z</time>
      </trkpt>
      <trkpt lat="44.71822" lon="1.58095">
        <ele>295.5</ele>
        <time>2023-04-16T12:37:49Z</time>
      </trkpt>
      <trkpt lat="44.71824" lon="1.58082">
        <ele>295.3</ele>
        <time>2023-04-16T12:37:58Z</time>
      </trkpt>
      <trkpt lat="44.7182" lon="1.58069">
        <ele>295</ele>
        <time>2023-04-16T12:38:05Z</time>
      </trkpt>
      <trkpt lat="44.71818" lon="1.58056">
        <ele>294.5</ele>
        <time>2023-04-16T12:38:13Z</time>
      </trkpt>
      <trkpt lat="44.71818" lon="1.58043">
        <ele>294.2</ele>
        <time>2023-04-16T12:38:20Z</time>
      </trkpt>
      <trkpt lat="44.71821" lon="1.5803">
        <ele>294.2</ele>
        <time>2023-04-16T12:38:29Z</time>
      </trkpt>
      <trkpt lat="44.71824" lon="1.58017">
        <ele>293.5</ele>
        <time>2023-04-16T12:38:37Z</time>
      </trkpt>
      <trkpt lat="44.7183" lon="1.58007">
        <ele>292.3</ele>
        <time>2023-04-16T12:38:46Z</time>
      </trkpt>
      <trkpt lat="44.71837" lon="1.57997">
        <ele>291.7</ele>
        <time>2023-04-16T12:38:57Z</time>
      </trkpt>
      <trkpt lat="44.71842" lon="1.57987">
        <ele>292</ele>
        <time>2023-04-16T12:39:05Z</time>
      </trkpt>
      <trkpt lat="44.71849" lon="1.57977">
        <ele>291.3</ele>
        <time>2023-04-16T12:39:13Z</time>
      </trkpt>
      <trkpt lat="44.71854" lon="1.57965">
        <ele>290.3</ele>
        <time>2023-04-16T12:39:21Z</time>
      </trkpt>
      <trkpt lat="44.71859" lon="1.57954">
        <ele>289.3</ele>
        <time>2023-04-16T12:39:29Z</time>
      </trkpt>
      <trkpt lat="44.71865" lon="1.57945">
        <ele>288.9</ele>
        <time>2023-04-16T12:39:37Z</time>
      </trkpt>
      <trkpt lat="44.71869" lon="1.57933">
        <ele>289.7</ele>
        <time>2023-04-16T12:39:44Z</time>
      </trkpt>
      <trkpt lat="44.71873" lon="1.5792">
        <ele>289.7</ele>
        <time>2023-04-16T12:39:52Z</time>
      </trkpt>
      <trkpt lat="44.71874" lon="1.57907">
        <ele>289.4</ele>
        <time>2023-04-16T12:40:00Z</time>
      </trkpt>
      <trkpt lat="44.71873" lon="1.57893">
        <ele>289.4</ele>
        <time>2023-04-16T12:40:08Z</time>
      </trkpt>
      <trkpt lat="44.71874" lon="1.57879">
        <ele>289.2</ele>
        <time>2023-04-16T12:40:17Z</time>
      </trkpt>
      <trkpt lat="44.71872" lon="1.57865">
        <ele>289.9</ele>
        <time>2023-04-16T12:40:26Z</time>
      </trkpt>
      <trkpt lat="44.71866" lon="1.57855">
        <ele>291.2</ele>
        <time>2023-04-16T12:40:34Z</time>
      </trkpt>
      <trkpt lat="44.71858" lon="1.57848">
        <ele>292.6</ele>
        <time>2023-04-16T12:40:42Z</time>
      </trkpt>
      <trkpt lat="44.7185" lon="1.57844">
        <ele>293.6</ele>
        <time>2023-04-16T12:40:49Z</time>
      </trkpt>
      <trkpt lat="44.7184" lon="1.57841">
        <ele>294.7</ele>
        <time>2023-04-16T12:40:57Z</time>
      </trkpt>
      <trkpt lat="44.71832" lon="1.57836">
        <ele>295.4</ele>
        <time>2023-04-16T12:41:06Z</time>
      </trkpt>
      <trkpt lat="44.71825" lon="1.57827">
        <ele>296.1</ele>
        <time>2023-04-16T12:41:15Z</time>
      </trkpt>
      <trkpt lat="44.71823" lon="1.57815">
        <ele>296.6</ele>
        <time>2023-04-16T12:41:24Z</time>
      </trkpt>
      <trkpt lat="44.71817" lon="1.57805">
        <ele>298.1</ele>
        <time>2023-04-16T12:41:35Z</time>
      </trkpt>
      <trkpt lat="44.71813" lon="1.57793">
        <ele>299.9</ele>
        <time>2023-04-16T12:41:49Z</time>
      </trkpt>
      <trkpt lat="44.71816" lon="1.5778">
        <ele>300.6</ele>
        <time>2023-04-16T12:42:01Z</time>
      </trkpt>
      <trkpt lat="44.71818" lon="1.57767">
        <ele>302.1</ele>
        <time>2023-04-16T12:42:14Z</time>
      </trkpt>
      <trkpt lat="44.71821" lon="1.57754">
        <ele>303.2</ele>
        <time>2023-04-16T12:42:25Z</time>
      </trkpt>
      <trkpt lat="44.71825" lon="1.57742">
        <ele>304.2</ele>
        <time>2023-04-16T12:42:36Z</time>
      </trkpt>
      <trkpt lat="44.71828" lon="1.5773">
        <ele>305.5</ele>
        <time>2023-04-16T12:42:46Z</time>
      </trkpt>
      <trkpt lat="44.71832" lon="1.57718">
        <ele>306.5</ele>
        <time>2023-04-16T12:42:56Z</time>
      </trkpt>
      <trkpt lat="44.71836" lon="1.57707">
        <ele>306.7</ele>
        <time>2023-04-16T12:43:04Z</time>
      </trkpt>
      <trkpt lat="44.7184" lon="1.57695">
        <ele>307.2</ele>
        <time>2023-04-16T12:43:13Z</time>
      </trkpt>
      <trkpt lat="44.71844" lon="1.57681">
        <ele>307.5</ele>
        <time>2023-04-16T12:43:22Z</time>
      </trkpt>
      <trkpt lat="44.71846" lon="1.57668">
        <ele>308</ele>
        <time>2023-04-16T12:43:30Z</time>
      </trkpt>
      <trkpt lat="44.71843" lon="1.57656">
        <ele>308.7</ele>
        <time>2023-04-16T12:43:39Z</time>
      </trkpt>
      <trkpt lat="44.71839" lon="1.57644">
        <ele>309.4</ele>
        <time>2023-04-16T12:43:49Z</time>
      </trkpt>
      <trkpt lat="44.71833" lon="1.57632">
        <ele>310.2</ele>
        <time>2023-04-16T12:43:58Z</time>
      </trkpt>
      <trkpt lat="44.7183" lon="1.57619">
        <ele>310.9</ele>
        <time>2023-04-16T12:44:08Z</time>
      </trkpt>
      <trkpt lat="44.71826" lon="1.57606">
        <ele>311.1</ele>
        <time>2023-04-16T12:44:17Z</time>
      </trkpt>
      <trkpt lat="44.71822" lon="1.57594">
        <ele>311.1</ele>
        <time>2023-04-16T12:44:29Z</time>
      </trkpt>
      <trkpt lat="44.71816" lon="1.57582">
        <ele>311.2</ele>
        <time>2023-04-16T12:44:37Z</time>
      </trkpt>
      <trkpt lat="44.71811" lon="1.57571">
        <ele>311.3</ele>
        <time>2023-04-16T12:44:45Z</time>
      </trkpt>
      <trkpt lat="44.71806" lon="1.5756">
        <ele>311.1</ele>
        <time>2023-04-16T12:44:52Z</time>
      </trkpt>
      <trkpt lat="44.718" lon="1.57549">
        <ele>311</ele>
        <time>2023-04-16T12:45:00Z</time>
      </trkpt>
      <trkpt lat="44.71793" lon="1.57539">
        <ele>310.7</ele>
        <time>2023-04-16T12:45:08Z</time>
      </trkpt>
      <trkpt lat="44.71786" lon="1.5753">
        <ele>310.6</ele>
        <time>2023-04-16T12:45:15Z</time>
      </trkpt>
      <trkpt lat="44.71778" lon="1.57523">
        <ele>310.1</ele>
        <time>2023-04-16T12:45:24Z</time>
      </trkpt>
      <trkpt lat="44.7177" lon="1.57515">
        <ele>308.8</ele>
        <time>2023-04-16T12:45:32Z</time>
      </trkpt>
      <trkpt lat="44.71762" lon="1.57508">
        <ele>307.8</ele>
        <time>2023-04-16T12:45:39Z</time>
      </trkpt>
      <trkpt lat="44.71753" lon="1.57503">
        <ele>307.3</ele>
        <time>2023-04-16T12:45:48Z</time>
      </trkpt>
      <trkpt lat="44.71745" lon="1.57495">
        <ele>306.4</ele>
        <time>2023-04-16T12:45:57Z</time>
      </trkpt>
      <trkpt lat="44.71738" lon="1.57486">
        <ele>305.2</ele>
        <time>2023-04-16T12:46:04Z</time>
      </trkpt>
      <trkpt lat="44.71734" lon="1.57473">
        <ele>302.9</ele>
        <time>2023-04-16T12:46:13Z</time>
      </trkpt>
      <trkpt lat="44.71735" lon="1.5746">
        <ele>301.8</ele>
        <time>2023-04-16T12:46:22Z</time>
      </trkpt>
      <trkpt lat="44.71742" lon="1.5745">
        <ele>300.3</ele>
        <time>2023-04-16T12:46:31Z</time>
      </trkpt>
      <trkpt lat="44.7175" lon="1.57442">
        <ele>299.5</ele>
        <time>2023-04-16T12:46:40Z</time>
      </trkpt>
      <trkpt lat="44.71758" lon="1.57437">
        <ele>299.6</ele>
        <time>2023-04-16T12:46:49Z</time>
      </trkpt>
      <trkpt lat="44.71768" lon="1.57431">
        <ele>300.1</ele>
        <time>2023-04-16T12:46:57Z</time>
      </trkpt>
      <trkpt lat="44.71776" lon="1.57424">
        <ele>301.3</ele>
        <time>2023-04-16T12:47:05Z</time>
      </trkpt>
      <trkpt lat="44.71784" lon="1.57417">
        <ele>301.8</ele>
        <time>2023-04-16T12:47:15Z</time>
      </trkpt>
      <trkpt lat="44.71791" lon="1.57408">
        <ele>302.5</ele>
        <time>2023-04-16T12:47:24Z</time>
      </trkpt>
      <trkpt lat="44.71794" lon="1.57394">
        <ele>305.3</ele>
        <time>2023-04-16T12:47:33Z</time>
      </trkpt>
      <trkpt lat="44.71799" lon="1.57382">
        <ele>306.7</ele>
        <time>2023-04-16T12:47:41Z</time>
      </trkpt>
      <trkpt lat="44.71807" lon="1.57374">
        <ele>307</ele>
        <time>2023-04-16T12:47:53Z</time>
      </trkpt>
      <trkpt lat="44.71814" lon="1.57366">
        <ele>307.4</ele>
        <time>2023-04-16T12:48:03Z</time>
      </trkpt>
      <trkpt lat="44.71822" lon="1.57359">
        <ele>307.5</ele>
        <time>2023-04-16T12:48:13Z</time>
      </trkpt>
      <trkpt lat="44.71831" lon="1.57353">
        <ele>307.4</ele>
        <time>2023-04-16T12:48:22Z</time>
      </trkpt>
      <trkpt lat="44.71837" lon="1.57343">
        <ele>307.4</ele>
        <time>2023-04-16T12:48:30Z</time>
      </trkpt>
      <trkpt lat="44.71837" lon="1.57329">
        <ele>308</ele>
        <time>2023-04-16T12:48:38Z</time>
      </trkpt>
      <trkpt lat="44.71837" lon="1.57316">
        <ele>309</ele>
        <time>2023-04-16T12:48:46Z</time>
      </trkpt>
      <trkpt lat="44.71836" lon="1.57303">
        <ele>309.9</ele>
        <time>2023-04-16T12:48:55Z</time>
      </trkpt>
      <trkpt lat="44.71835" lon="1.57289">
        <ele>310.5</ele>
        <time>2023-04-16T12:49:04Z</time>
      </trkpt>
      <trkpt lat="44.71833" lon="1.57276">
        <ele>311</ele>
        <time>2023-04-16T12:49:13Z</time>
      </trkpt>
      <trkpt lat="44.71832" lon="1.57263">
        <ele>311.6</ele>
        <time>2023-04-16T12:49:22Z</time>
      </trkpt>
      <trkpt lat="44.7183" lon="1.57249">
        <ele>312.3</ele>
        <time>2023-04-16T12:49:30Z</time>
      </trkpt>
      <trkpt lat="44.71827" lon="1.57237">
        <ele>313.4</ele>
        <time>2023-04-16T12:49:38Z</time>
      </trkpt>
      <trkpt lat="44.7182" lon="1.57227">
        <ele>314.6</ele>
        <time>2023-04-16T12:49:46Z</time>
      </trkpt>
      <trkpt lat="44.71812" lon="1.5722">
        <ele>315.6</ele>
        <time>2023-04-16T12:49:54Z</time>
      </trkpt>
      <trkpt lat="44.71805" lon="1.5721">
        <ele>316.5</ele>
        <time>2023-04-16T12:50:03Z</time>
      </trkpt>
      <trkpt lat="44.71797" lon="1.57202">
        <ele>317.3</ele>
        <time>2023-04-16T12:50:12Z</time>
      </trkpt>
      <trkpt lat="44.71789" lon="1.57196">
        <ele>318.2</ele>
        <time>2023-04-16T12:50:21Z</time>
      </trkpt>
      <trkpt lat="44.7178" lon="1.57189">
        <ele>319</ele>
        <time>2023-04-16T12:50:30Z</time>
      </trkpt>
      <trkpt lat="44.71772" lon="1.57181">
        <ele>319.9</ele>
        <time>2023-04-16T12:50:39Z</time>
      </trkpt>
      <trkpt lat="44.71764" lon="1.57174">
        <ele>320.7</ele>
        <time>2023-04-16T12:50:48Z</time>
      </trkpt>
      <trkpt lat="44.71756" lon="1.57166">
        <ele>321.6</ele>
        <time>2023-04-16T12:50:58Z</time>
      </trkpt>
      <trkpt lat="44.71748" lon="1.57157">
        <ele>322.5</ele>
        <time>2023-04-16T12:51:07Z</time>
      </trkpt>
      <trkpt lat="44.71742" lon="1.57147">
        <ele>323.3</ele>
        <time>2023-04-16T12:51:16Z</time>
      </trkpt>
      <trkpt lat="44.71735" lon="1.57138">
        <ele>324.1</ele>
        <time>2023-04-16T12:51:24Z</time>
      </trkpt>
      <trkpt lat="44.71728" lon="1.57128">
        <ele>324.9</ele>
        <time>2023-04-16T12:51:34Z</time>
      </trkpt>
      <trkpt lat="44.71722" lon="1.57118">
        <ele>325.7</ele>
        <time>2023-04-16T12:51:43Z</time>
      </trkpt>
      <trkpt lat="44.71717" lon="1.57107">
        <ele>326.3</ele>
        <time>2023-04-16T12:51:51Z</time>
      </trkpt>
      <trkpt lat="44.71711" lon="1.57096">
        <ele>326.5</ele>
        <time>2023-04-16T12:52:00Z</time>
      </trkpt>
      <trkpt lat="44.71704" lon="1.57085">
        <ele>327</ele>
        <time>2023-04-16T12:52:09Z</time>
      </trkpt>
      <trkpt lat="44.71697" lon="1.57076">
        <ele>327.5</ele>
        <time>2023-04-16T12:52:17Z</time>
      </trkpt>
      <trkpt lat="44.71691" lon="1.57066">
        <ele>327.7</ele>
        <time>2023-04-16T12:52:25Z</time>
      </trkpt>
      <trkpt lat="44.71686" lon="1.57055">
        <ele>327.9</ele>
        <time>2023-04-16T12:52:32Z</time>
      </trkpt>
      <trkpt lat="44.7168" lon="1.57044">
        <ele>328.4</ele>
        <time>2023-04-16T12:52:40Z</time>
      </trkpt>
      <trkpt lat="44.71673" lon="1.57034">
        <ele>329.1</ele>
        <time>2023-04-16T12:52:48Z</time>
      </trkpt>
      <trkpt lat="44.71667" lon="1.57024">
        <ele>329.8</ele>
        <time>2023-04-16T12:52:56Z</time>
      </trkpt>
      <trkpt lat="44.71661" lon="1.57014">
        <ele>330.2</ele>
        <time>2023-04-16T12:53:04Z</time>
      </trkpt>
      <trkpt lat="44.71655" lon="1.57004">
        <ele>330.8</ele>
        <time>2023-04-16T12:53:12Z</time>
      </trkpt>
      <trkpt lat="44.71649" lon="1.56994">
        <ele>331.9</ele>
        <time>2023-04-16T12:53:21Z</time>
      </trkpt>
      <trkpt lat="44.71647" lon="1.56981">
        <ele>332.8</ele>
        <time>2023-04-16T12:53:30Z</time>
      </trkpt>
      <trkpt lat="44.71644" lon="1.56969">
        <ele>333.5</ele>
        <time>2023-04-16T12:53:38Z</time>
      </trkpt>
      <trkpt lat="44.7164" lon="1.56956">
        <ele>333.9</ele>
        <time>2023-04-16T12:53:47Z</time>
      </trkpt>
      <trkpt lat="44.71634" lon="1.56946">
        <ele>334.5</ele>
        <time>2023-04-16T12:53:56Z</time>
      </trkpt>
      <trkpt lat="44.71627" lon="1.56937">
        <ele>335.1</ele>
        <time>2023-04-16T12:54:05Z</time>
      </trkpt>
      <trkpt lat="44.71621" lon="1.56927">
        <ele>335.5</ele>
        <time>2023-04-16T12:54:13Z</time>
      </trkpt>
      <trkpt lat="44.71616" lon="1.56916">
        <ele>335.6</ele>
        <time>2023-04-16T12:54:22Z</time>
      </trkpt>
      <trkpt lat="44.7161" lon="1.56905">
        <ele>335.1</ele>
        <time>2023-04-16T12:54:31Z</time>
      </trkpt>
      <trkpt lat="44.71611" lon="1.56892">
        <ele>334.2</ele>
        <time>2023-04-16T12:55:22Z</time>
      </trkpt>
      <trkpt lat="44.71616" lon="1.5688">
        <ele>332.9</ele>
        <time>2023-04-16T12:58:06Z</time>
      </trkpt>
      <trkpt lat="44.71621" lon="1.56868">
        <ele>331.9</ele>
        <time>2023-04-16T12:58:14Z</time>
      </trkpt>
      <trkpt lat="44.71625" lon="1.56855">
        <ele>330.7</ele>
        <time>2023-04-16T12:58:21Z</time>
      </trkpt>
      <trkpt lat="44.71632" lon="1.56845">
        <ele>329.6</ele>
        <time>2023-04-16T12:58:29Z</time>
      </trkpt>
      <trkpt lat="44.7164" lon="1.56836">
        <ele>329.3</ele>
        <time>2023-04-16T12:58:37Z</time>
      </trkpt>
      <trkpt lat="44.71647" lon="1.56827">
        <ele>328.1</ele>
        <time>2023-04-16T12:58:44Z</time>
      </trkpt>
      <trkpt lat="44.71656" lon="1.56824">
        <ele>327.9</ele>
        <time>2023-04-16T12:58:51Z</time>
      </trkpt>
      <trkpt lat="44.71666" lon="1.56821">
        <ele>327.6</ele>
        <time>2023-04-16T12:58:59Z</time>
      </trkpt>
      <trkpt lat="44.71676" lon="1.5682">
        <ele>327.4</ele>
        <time>2023-04-16T12:59:07Z</time>
      </trkpt>
      <trkpt lat="44.71686" lon="1.56822">
        <ele>327.3</ele>
        <time>2023-04-16T12:59:14Z</time>
      </trkpt>
      <trkpt lat="44.71696" lon="1.56822">
        <ele>327</ele>
        <time>2023-04-16T12:59:21Z</time>
      </trkpt>
      <trkpt lat="44.71706" lon="1.56822">
        <ele>326.2</ele>
        <time>2023-04-16T12:59:29Z</time>
      </trkpt>
      <trkpt lat="44.71715" lon="1.56823">
        <ele>325.3</ele>
        <time>2023-04-16T12:59:37Z</time>
      </trkpt>
      <trkpt lat="44.71725" lon="1.56824">
        <ele>324.4</ele>
        <time>2023-04-16T12:59:45Z</time>
      </trkpt>
      <trkpt lat="44.71735" lon="1.56826">
        <ele>323.4</ele>
        <time>2023-04-16T12:59:54Z</time>
      </trkpt>
      <trkpt lat="44.71744" lon="1.56827">
        <ele>322.5</ele>
        <time>2023-04-16T13:00:01Z</time>
      </trkpt>
      <trkpt lat="44.71753" lon="1.56829">
        <ele>321.5</ele>
        <time>2023-04-16T13:00:09Z</time>
      </trkpt>
      <trkpt lat="44.71763" lon="1.56829">
        <ele>320.5</ele>
        <time>2023-04-16T13:00:16Z</time>
      </trkpt>
      <trkpt lat="44.71772" lon="1.5683">
        <ele>319.5</ele>
        <time>2023-04-16T13:00:23Z</time>
      </trkpt>
      <trkpt lat="44.71782" lon="1.56828">
        <ele>318.5</ele>
        <time>2023-04-16T13:00:30Z</time>
      </trkpt>
      <trkpt lat="44.71792" lon="1.56827">
        <ele>317.7</ele>
        <time>2023-04-16T13:00:37Z</time>
      </trkpt>
      <trkpt lat="44.71802" lon="1.56825">
        <ele>317</ele>
        <time>2023-04-16T13:00:44Z</time>
      </trkpt>
      <trkpt lat="44.71812" lon="1.56824">
        <ele>316.2</ele>
        <time>2023-04-16T13:00:51Z</time>
      </trkpt>
      <trkpt lat="44.71822" lon="1.56825">
        <ele>315.5</ele>
        <time>2023-04-16T13:00:58Z</time>
      </trkpt>
      <trkpt lat="44.71832" lon="1.56825">
        <ele>314.8</ele>
        <time>2023-04-16T13:01:05Z</time>
      </trkpt>
      <trkpt lat="44.71842" lon="1.56827">
        <ele>314.1</ele>
        <time>2023-04-16T13:01:12Z</time>
      </trkpt>
      <trkpt lat="44.71852" lon="1.56827">
        <ele>313.5</ele>
        <time>2023-04-16T13:01:19Z</time>
      </trkpt>
      <trkpt lat="44.7186" lon="1.56829">
        <ele>312.9</ele>
        <time>2023-04-16T13:01:26Z</time>
      </trkpt>
      <trkpt lat="44.7187" lon="1.56831">
        <ele>312.3</ele>
        <time>2023-04-16T13:01:33Z</time>
      </trkpt>
      <trkpt lat="44.71879" lon="1.56828">
        <ele>311.5</ele>
        <time>2023-04-16T13:01:42Z</time>
      </trkpt>
      <trkpt lat="44.71878" lon="1.56816">
        <ele>311.2</ele>
        <time>2023-04-16T13:03:39Z</time>
      </trkpt>
      <trkpt lat="44.71876" lon="1.56802">
        <ele>310.8</ele>
        <time>2023-04-16T13:03:48Z</time>
      </trkpt>
      <trkpt lat="44.71874" lon="1.56789">
        <ele>310.5</ele>
        <time>2023-04-16T13:03:56Z</time>
      </trkpt>
      <trkpt lat="44.71875" lon="1.56776">
        <ele>309.8</ele>
        <time>2023-04-16T13:04:04Z</time>
      </trkpt>
      <trkpt lat="44.71874" lon="1.56762">
        <ele>308.6</ele>
        <time>2023-04-16T13:04:13Z</time>
      </trkpt>
      <trkpt lat="44.71872" lon="1.56748">
        <ele>307.4</ele>
        <time>2023-04-16T13:04:20Z</time>
      </trkpt>
      <trkpt lat="44.7187" lon="1.56735">
        <ele>306.3</ele>
        <time>2023-04-16T13:04:28Z</time>
      </trkpt>
      <trkpt lat="44.71865" lon="1.56723">
        <ele>305.1</ele>
        <time>2023-04-16T13:04:36Z</time>
      </trkpt>
      <trkpt lat="44.71857" lon="1.56717">
        <ele>303.8</ele>
        <time>2023-04-16T13:04:43Z</time>
      </trkpt>
      <trkpt lat="44.71848" lon="1.5671">
        <ele>302.2</ele>
        <time>2023-04-16T13:06:11Z</time>
      </trkpt>
      <trkpt lat="44.71839" lon="1.56707">
        <ele>301.2</ele>
        <time>2023-04-16T13:06:18Z</time>
      </trkpt>
      <trkpt lat="44.7183" lon="1.56706">
        <ele>300.7</ele>
        <time>2023-04-16T13:06:26Z</time>
      </trkpt>
      <trkpt lat="44.7182" lon="1.56704">
        <ele>299.8</ele>
        <time>2023-04-16T13:06:34Z</time>
      </trkpt>
      <trkpt lat="44.71811" lon="1.567">
        <ele>298.7</ele>
        <time>2023-04-16T13:06:41Z</time>
      </trkpt>
      <trkpt lat="44.71802" lon="1.567">
        <ele>298.3</ele>
        <time>2023-04-16T13:06:47Z</time>
      </trkpt>
      <trkpt lat="44.71793" lon="1.56698">
        <ele>298.1</ele>
        <time>2023-04-16T13:06:53Z</time>
      </trkpt>
      <trkpt lat="44.71783" lon="1.56695">
        <ele>297.1</ele>
        <time>2023-04-16T13:07:00Z</time>
      </trkpt>
      <trkpt lat="44.71774" lon="1.56689">
        <ele>297.8</ele>
        <time>2023-04-16T13:07:07Z</time>
      </trkpt>
      <trkpt lat="44.71767" lon="1.56682">
        <ele>299.1</ele>
        <time>2023-04-16T13:07:14Z</time>
      </trkpt>
      <trkpt lat="44.71761" lon="1.56672">
        <ele>299.8</ele>
        <time>2023-04-16T13:07:23Z</time>
      </trkpt>
      <trkpt lat="44.71759" lon="1.56659">
        <ele>299.9</ele>
        <time>2023-04-16T13:07:38Z</time>
      </trkpt>
      <trkpt lat="44.71758" lon="1.56645">
        <ele>299.8</ele>
        <time>2023-04-16T13:07:50Z</time>
      </trkpt>
      <trkpt lat="44.71756" lon="1.56632">
        <ele>299.7</ele>
        <time>2023-04-16T13:07:56Z</time>
      </trkpt>
      <trkpt lat="44.7175" lon="1.56622">
        <ele>300</ele>
        <time>2023-04-16T13:08:01Z</time>
      </trkpt>
      <trkpt lat="44.71742" lon="1.56619">
        <ele>300.2</ele>
        <time>2023-04-16T13:08:07Z</time>
      </trkpt>
      <trkpt lat="44.71732" lon="1.5662">
        <ele>300.4</ele>
        <time>2023-04-16T13:08:15Z</time>
      </trkpt>
      <trkpt lat="44.71723" lon="1.56621">
        <ele>300.7</ele>
        <time>2023-04-16T13:08:24Z</time>
      </trkpt>
      <trkpt lat="44.71713" lon="1.5662">
        <ele>302.3</ele>
        <time>2023-04-16T13:08:35Z</time>
      </trkpt>
      <trkpt lat="44.71704" lon="1.56624">
        <ele>304.2</ele>
        <time>2023-04-16T13:08:46Z</time>
      </trkpt>
      <trkpt lat="44.71696" lon="1.5662">
        <ele>305.4</ele>
        <time>2023-04-16T13:08:59Z</time>
      </trkpt>
      <trkpt lat="44.71687" lon="1.56622">
        <ele>307.1</ele>
        <time>2023-04-16T13:09:09Z</time>
      </trkpt>
      <trkpt lat="44.71677" lon="1.56621">
        <ele>308.6</ele>
        <time>2023-04-16T13:09:21Z</time>
      </trkpt>
      <trkpt lat="44.71668" lon="1.56624">
        <ele>310.3</ele>
        <time>2023-04-16T13:09:33Z</time>
      </trkpt>
      <trkpt lat="44.71658" lon="1.56627">
        <ele>311.5</ele>
        <time>2023-04-16T13:09:44Z</time>
      </trkpt>
      <trkpt lat="44.71651" lon="1.56634">
        <ele>311.5</ele>
        <time>2023-04-16T13:09:53Z</time>
      </trkpt>
      <trkpt lat="44.71642" lon="1.56639">
        <ele>311</ele>
        <time>2023-04-16T13:10:08Z</time>
      </trkpt>
      <trkpt lat="44.71634" lon="1.56645">
        <ele>313.6</ele>
        <time>2023-04-16T13:10:19Z</time>
      </trkpt>
      <trkpt lat="44.71625" lon="1.56651">
        <ele>316.2</ele>
        <time>2023-04-16T13:10:30Z</time>
      </trkpt>
      <trkpt lat="44.71616" lon="1.56655">
        <ele>318</ele>
        <time>2023-04-16T13:10:39Z</time>
      </trkpt>
      <trkpt lat="44.71607" lon="1.5666">
        <ele>319.2</ele>
        <time>2023-04-16T13:10:50Z</time>
      </trkpt>
      <trkpt lat="44.71599" lon="1.56666">
        <ele>319.9</ele>
        <time>2023-04-16T13:10:59Z</time>
      </trkpt>
      <trkpt lat="44.7159" lon="1.5667">
        <ele>321</ele>
        <time>2023-04-16T13:11:10Z</time>
      </trkpt>
      <trkpt lat="44.71581" lon="1.56677">
        <ele>322.8</ele>
        <time>2023-04-16T13:11:22Z</time>
      </trkpt>
      <trkpt lat="44.71573" lon="1.56684">
        <ele>324.4</ele>
        <time>2023-04-16T13:11:32Z</time>
      </trkpt>
      <trkpt lat="44.71566" lon="1.56691">
        <ele>325.1</ele>
        <time>2023-04-16T13:11:42Z</time>
      </trkpt>
      <trkpt lat="44.71558" lon="1.56699">
        <ele>325.4</ele>
        <time>2023-04-16T13:11:52Z</time>
      </trkpt>
      <trkpt lat="44.71549" lon="1.56705">
        <ele>327.2</ele>
        <time>2023-04-16T13:12:03Z</time>
      </trkpt>
      <trkpt lat="44.71542" lon="1.56712">
        <ele>328.6</ele>
        <time>2023-04-16T13:12:12Z</time>
      </trkpt>
      <trkpt lat="44.71534" lon="1.56719">
        <ele>329.6</ele>
        <time>2023-04-16T13:12:22Z</time>
      </trkpt>
      <trkpt lat="44.71527" lon="1.56728">
        <ele>330.2</ele>
        <time>2023-04-16T13:12:33Z</time>
      </trkpt>
      <trkpt lat="44.71519" lon="1.56735">
        <ele>331.6</ele>
        <time>2023-04-16T13:12:43Z</time>
      </trkpt>
      <trkpt lat="44.71509" lon="1.56739">
        <ele>333.3</ele>
        <time>2023-04-16T13:12:52Z</time>
      </trkpt>
      <trkpt lat="44.715" lon="1.56737">
        <ele>335</ele>
        <time>2023-04-16T13:13:02Z</time>
      </trkpt>
      <trkpt lat="44.71491" lon="1.56734">
        <ele>336.3</ele>
        <time>2023-04-16T13:13:14Z</time>
      </trkpt>
      <trkpt lat="44.71483" lon="1.56727">
        <ele>337.5</ele>
        <time>2023-04-16T13:13:24Z</time>
      </trkpt>
      <trkpt lat="44.71476" lon="1.56718">
        <ele>338.3</ele>
        <time>2023-04-16T13:13:35Z</time>
      </trkpt>
      <trkpt lat="44.7147" lon="1.56708">
        <ele>338.7</ele>
        <time>2023-04-16T13:13:44Z</time>
      </trkpt>
      <trkpt lat="44.71465" lon="1.56697">
        <ele>338.6</ele>
        <time>2023-04-16T13:13:54Z</time>
      </trkpt>
      <trkpt lat="44.71459" lon="1.56687">
        <ele>338.4</ele>
        <time>2023-04-16T13:14:07Z</time>
      </trkpt>
      <trkpt lat="44.7145" lon="1.56688">
        <ele>338.9</ele>
        <time>2023-04-16T13:17:09Z</time>
      </trkpt>
      <trkpt lat="44.71441" lon="1.56685">
        <ele>339</ele>
        <time>2023-04-16T13:17:17Z</time>
      </trkpt>
      <trkpt lat="44.71432" lon="1.56681">
        <ele>338.5</ele>
        <time>2023-04-16T13:17:26Z</time>
      </trkpt>
      <trkpt lat="44.71422" lon="1.56678">
        <ele>338.2</ele>
        <time>2023-04-16T13:17:35Z</time>
      </trkpt>
      <trkpt lat="44.71413" lon="1.56675">
        <ele>337.9</ele>
        <time>2023-04-16T13:17:43Z</time>
      </trkpt>
      <trkpt lat="44.71405" lon="1.56669">
        <ele>337.3</ele>
        <time>2023-04-16T13:17:51Z</time>
      </trkpt>
      <trkpt lat="44.71395" lon="1.56665">
        <ele>336.8</ele>
        <time>2023-04-16T13:18:01Z</time>
      </trkpt>
      <trkpt lat="44.71386" lon="1.56663">
        <ele>336.5</ele>
        <time>2023-04-16T13:18:08Z</time>
      </trkpt>
      <trkpt lat="44.71378" lon="1.56658">
        <ele>335.9</ele>
        <time>2023-04-16T13:18:15Z</time>
      </trkpt>
      <trkpt lat="44.71369" lon="1.56653">
        <ele>335.4</ele>
        <time>2023-04-16T13:18:22Z</time>
      </trkpt>
      <trkpt lat="44.71361" lon="1.56647">
        <ele>334.9</ele>
        <time>2023-04-16T13:18:30Z</time>
      </trkpt>
      <trkpt lat="44.71352" lon="1.56642">
        <ele>335.6</ele>
        <time>2023-04-16T13:18:38Z</time>
      </trkpt>
      <trkpt lat="44.71342" lon="1.56638">
        <ele>336.6</ele>
        <time>2023-04-16T13:18:47Z</time>
      </trkpt>
      <trkpt lat="44.71333" lon="1.56633">
        <ele>337.4</ele>
        <time>2023-04-16T13:18:57Z</time>
      </trkpt>
      <trkpt lat="44.71325" lon="1.56629">
        <ele>337.7</ele>
        <time>2023-04-16T13:19:06Z</time>
      </trkpt>
      <trkpt lat="44.71316" lon="1.56626">
        <ele>338.2</ele>
        <time>2023-04-16T13:19:15Z</time>
      </trkpt>
      <trkpt lat="44.71307" lon="1.56623">
        <ele>338.7</ele>
        <time>2023-04-16T13:19:23Z</time>
      </trkpt>
      <trkpt lat="44.71298" lon="1.56619">
        <ele>339</ele>
        <time>2023-04-16T13:19:30Z</time>
      </trkpt>
      <trkpt lat="44.71289" lon="1.56615">
        <ele>339.4</ele>
        <time>2023-04-16T13:19:38Z</time>
      </trkpt>
      <trkpt lat="44.71279" lon="1.56613">
        <ele>340</ele>
        <time>2023-04-16T13:19:46Z</time>
      </trkpt>
      <trkpt lat="44.7127" lon="1.56609">
        <ele>340.5</ele>
        <time>2023-04-16T13:19:55Z</time>
      </trkpt>
      <trkpt lat="44.71262" lon="1.56605">
        <ele>341.1</ele>
        <time>2023-04-16T13:20:04Z</time>
      </trkpt>
      <trkpt lat="44.71253" lon="1.56601">
        <ele>341.7</ele>
        <time>2023-04-16T13:20:12Z</time>
      </trkpt>
      <trkpt lat="44.71244" lon="1.56597">
        <ele>342</ele>
        <time>2023-04-16T13:20:21Z</time>
      </trkpt>
      <trkpt lat="44.71235" lon="1.56592">
        <ele>342.2</ele>
        <time>2023-04-16T13:20:29Z</time>
      </trkpt>
      <trkpt lat="44.71227" lon="1.56586">
        <ele>342.7</ele>
        <time>2023-04-16T13:20:37Z</time>
      </trkpt>
      <trkpt lat="44.71218" lon="1.56584">
        <ele>342.8</ele>
        <time>2023-04-16T13:20:46Z</time>
      </trkpt>
      <trkpt lat="44.71209" lon="1.56581">
        <ele>342.6</ele>
        <time>2023-04-16T13:20:54Z</time>
      </trkpt>
      <trkpt lat="44.71199" lon="1.5658">
        <ele>342.5</ele>
        <time>2023-04-16T13:21:02Z</time>
      </trkpt>
      <trkpt lat="44.7119" lon="1.56579">
        <ele>342.6</ele>
        <time>2023-04-16T13:21:09Z</time>
      </trkpt>
      <trkpt lat="44.7118" lon="1.5658">
        <ele>342.9</ele>
        <time>2023-04-16T13:21:17Z</time>
      </trkpt>
      <trkpt lat="44.71171" lon="1.56577">
        <ele>343.5</ele>
        <time>2023-04-16T13:21:25Z</time>
      </trkpt>
      <trkpt lat="44.71161" lon="1.56576">
        <ele>344.2</ele>
        <time>2023-04-16T13:21:34Z</time>
      </trkpt>
      <trkpt lat="44.71152" lon="1.56575">
        <ele>345</ele>
        <time>2023-04-16T13:21:43Z</time>
      </trkpt>
      <trkpt lat="44.71142" lon="1.56574">
        <ele>345.8</ele>
        <time>2023-04-16T13:21:52Z</time>
      </trkpt>
      <trkpt lat="44.71133" lon="1.56572">
        <ele>346.6</ele>
        <time>2023-04-16T13:22:00Z</time>
      </trkpt>
      <trkpt lat="44.71124" lon="1.56568">
        <ele>347.7</ele>
        <time>2023-04-16T13:22:09Z</time>
      </trkpt>
      <trkpt lat="44.71115" lon="1.56564">
        <ele>348.9</ele>
        <time>2023-04-16T13:22:20Z</time>
      </trkpt>
      <trkpt lat="44.71106" lon="1.5656">
        <ele>349.9</ele>
        <time>2023-04-16T13:22:29Z</time>
      </trkpt>
      <trkpt lat="44.71097" lon="1.56555">
        <ele>351</ele>
        <time>2023-04-16T13:22:38Z</time>
      </trkpt>
      <trkpt lat="44.71089" lon="1.56547">
        <ele>351.9</ele>
        <time>2023-04-16T13:22:48Z</time>
      </trkpt>
      <trkpt lat="44.71081" lon="1.56541">
        <ele>352.6</ele>
        <time>2023-04-16T13:22:58Z</time>
      </trkpt>
      <trkpt lat="44.71073" lon="1.56534">
        <ele>353.2</ele>
        <time>2023-04-16T13:23:08Z</time>
      </trkpt>
      <trkpt lat="44.71064" lon="1.5653">
        <ele>353.6</ele>
        <time>2023-04-16T13:24:06Z</time>
      </trkpt>
      <trkpt lat="44.71054" lon="1.56528">
        <ele>353.9</ele>
        <time>2023-04-16T13:24:14Z</time>
      </trkpt>
      <trkpt lat="44.71045" lon="1.56526">
        <ele>353.6</ele>
        <time>2023-04-16T13:24:21Z</time>
      </trkpt>
      <trkpt lat="44.71036" lon="1.56524">
        <ele>353.4</ele>
        <time>2023-04-16T13:24:29Z</time>
      </trkpt>
      <trkpt lat="44.71025" lon="1.56521">
        <ele>353.2</ele>
        <time>2023-04-16T13:24:37Z</time>
      </trkpt>
      <trkpt lat="44.71016" lon="1.56518">
        <ele>353.2</ele>
        <time>2023-04-16T13:24:45Z</time>
      </trkpt>
      <trkpt lat="44.71007" lon="1.56515">
        <ele>353.1</ele>
        <time>2023-04-16T13:24:53Z</time>
      </trkpt>
      <trkpt lat="44.70997" lon="1.56513">
        <ele>353</ele>
        <time>2023-04-16T13:25:01Z</time>
      </trkpt>
      <trkpt lat="44.70988" lon="1.56512">
        <ele>353</ele>
        <time>2023-04-16T13:25:09Z</time>
      </trkpt>
      <trkpt lat="44.70979" lon="1.5651">
        <ele>353</ele>
        <time>2023-04-16T13:25:17Z</time>
      </trkpt>
      <trkpt lat="44.70969" lon="1.56512">
        <ele>353</ele>
        <time>2023-04-16T13:25:25Z</time>
      </trkpt>
      <trkpt lat="44.7096" lon="1.5651">
        <ele>353</ele>
        <time>2023-04-16T13:25:32Z</time>
      </trkpt>
      <trkpt lat="44.7095" lon="1.56509">
        <ele>353</ele>
        <time>2023-04-16T13:25:39Z</time>
      </trkpt>
      <trkpt lat="44.7094" lon="1.56507">
        <ele>353.1</ele>
        <time>2023-04-16T13:25:47Z</time>
      </trkpt>
      <trkpt lat="44.7093" lon="1.56507">
        <ele>353.4</ele>
        <time>2023-04-16T13:25:55Z</time>
      </trkpt>
      <trkpt lat="44.70921" lon="1.56507">
        <ele>353.6</ele>
        <time>2023-04-16T13:26:02Z</time>
      </trkpt>
      <trkpt lat="44.70911" lon="1.56507">
        <ele>353.8</ele>
        <time>2023-04-16T13:26:10Z</time>
      </trkpt>
      <trkpt lat="44.70902" lon="1.56505">
        <ele>353.8</ele>
        <time>2023-04-16T13:26:17Z</time>
      </trkpt>
      <trkpt lat="44.70893" lon="1.56504">
        <ele>353.9</ele>
        <time>2023-04-16T13:26:24Z</time>
      </trkpt>
      <trkpt lat="44.70884" lon="1.56503">
        <ele>353.9</ele>
        <time>2023-04-16T13:26:31Z</time>
      </trkpt>
      <trkpt lat="44.70874" lon="1.56501">
        <ele>354</ele>
        <time>2023-04-16T13:26:39Z</time>
      </trkpt>
      <trkpt lat="44.70865" lon="1.56499">
        <ele>354</ele>
        <time>2023-04-16T13:26:47Z</time>
      </trkpt>
      <trkpt lat="44.70856" lon="1.56496">
        <ele>354</ele>
        <time>2023-04-16T13:26:54Z</time>
      </trkpt>
      <trkpt lat="44.70846" lon="1.56493">
        <ele>354</ele>
        <time>2023-04-16T13:27:03Z</time>
      </trkpt>
      <trkpt lat="44.70837" lon="1.5649">
        <ele>354</ele>
        <time>2023-04-16T13:27:11Z</time>
      </trkpt>
      <trkpt lat="44.70828" lon="1.56486">
        <ele>354.2</ele>
        <time>2023-04-16T13:27:19Z</time>
      </trkpt>
      <trkpt lat="44.70819" lon="1.56481">
        <ele>354.7</ele>
        <time>2023-04-16T13:27:27Z</time>
      </trkpt>
      <trkpt lat="44.70809" lon="1.56479">
        <ele>355.3</ele>
        <time>2023-04-16T13:27:35Z</time>
      </trkpt>
      <trkpt lat="44.708" lon="1.56477">
        <ele>355.7</ele>
        <time>2023-04-16T13:27:43Z</time>
      </trkpt>
      <trkpt lat="44.7079" lon="1.56477">
        <ele>355.9</ele>
        <time>2023-04-16T13:27:52Z</time>
      </trkpt>
      <trkpt lat="44.70781" lon="1.56475">
        <ele>356</ele>
        <time>2023-04-16T13:28:00Z</time>
      </trkpt>
      <trkpt lat="44.70773" lon="1.56469">
        <ele>356.3</ele>
        <time>2023-04-16T13:28:08Z</time>
      </trkpt>
      <trkpt lat="44.70768" lon="1.56457">
        <ele>356.9</ele>
        <time>2023-04-16T13:28:17Z</time>
      </trkpt>
      <trkpt lat="44.70765" lon="1.56444">
        <ele>357.5</ele>
        <time>2023-04-16T13:28:26Z</time>
      </trkpt>
      <trkpt lat="44.70761" lon="1.56432">
        <ele>358.3</ele>
        <time>2023-04-16T13:28:34Z</time>
      </trkpt>
      <trkpt lat="44.70756" lon="1.5642">
        <ele>359.3</ele>
        <time>2023-04-16T13:28:42Z</time>
      </trkpt>
      <trkpt lat="44.70752" lon="1.56408">
        <ele>360.2</ele>
        <time>2023-04-16T13:28:50Z</time>
      </trkpt>
      <trkpt lat="44.70747" lon="1.56397">
        <ele>360.9</ele>
        <time>2023-04-16T13:28:59Z</time>
      </trkpt>
      <trkpt lat="44.70742" lon="1.56386">
        <ele>361.7</ele>
        <time>2023-04-16T13:29:08Z</time>
      </trkpt>
      <trkpt lat="44.70736" lon="1.56376">
        <ele>362.7</ele>
        <time>2023-04-16T13:29:18Z</time>
      </trkpt>
      <trkpt lat="44.70729" lon="1.56367">
        <ele>363.8</ele>
        <time>2023-04-16T13:29:27Z</time>
      </trkpt>
      <trkpt lat="44.70722" lon="1.56359">
        <ele>365.1</ele>
        <time>2023-04-16T13:29:37Z</time>
      </trkpt>
      <trkpt lat="44.70714" lon="1.5635">
        <ele>366</ele>
        <time>2023-04-16T13:29:47Z</time>
      </trkpt>
      <trkpt lat="44.70707" lon="1.56341">
        <ele>366.8</ele>
        <time>2023-04-16T13:29:58Z</time>
      </trkpt>
      <trkpt lat="44.70699" lon="1.56333">
        <ele>367.7</ele>
        <time>2023-04-16T13:30:06Z</time>
      </trkpt>
      <trkpt lat="44.70691" lon="1.56326">
        <ele>368.5</ele>
        <time>2023-04-16T13:30:15Z</time>
      </trkpt>
      <trkpt lat="44.70682" lon="1.56319">
        <ele>369.4</ele>
        <time>2023-04-16T13:30:23Z</time>
      </trkpt>
      <trkpt lat="44.70675" lon="1.5631">
        <ele>370.2</ele>
        <time>2023-04-16T13:30:34Z</time>
      </trkpt>
      <trkpt lat="44.70666" lon="1.56304">
        <ele>370.9</ele>
        <time>2023-04-16T13:30:44Z</time>
      </trkpt>
      <trkpt lat="44.70657" lon="1.56299">
        <ele>370.8</ele>
        <time>2023-04-16T13:30:52Z</time>
      </trkpt>
      <trkpt lat="44.70647" lon="1.56296">
        <ele>370.7</ele>
        <time>2023-04-16T13:30:59Z</time>
      </trkpt>
      <trkpt lat="44.70638" lon="1.56292">
        <ele>370.5</ele>
        <time>2023-04-16T13:31:06Z</time>
      </trkpt>
      <trkpt lat="44.7063" lon="1.56289">
        <ele>370.5</ele>
        <time>2023-04-16T13:31:12Z</time>
      </trkpt>
      <trkpt lat="44.70621" lon="1.56286">
        <ele>370.5</ele>
        <time>2023-04-16T13:31:19Z</time>
      </trkpt>
      <trkpt lat="44.70611" lon="1.56281">
        <ele>370.2</ele>
        <time>2023-04-16T13:31:27Z</time>
      </trkpt>
      <trkpt lat="44.70602" lon="1.56278">
        <ele>370.3</ele>
        <time>2023-04-16T13:31:54Z</time>
      </trkpt>
      <trkpt lat="44.70593" lon="1.56275">
        <ele>370.5</ele>
        <time>2023-04-16T13:32:03Z</time>
      </trkpt>
      <trkpt lat="44.70584" lon="1.56273">
        <ele>370.6</ele>
        <time>2023-04-16T13:32:10Z</time>
      </trkpt>
      <trkpt lat="44.70575" lon="1.56269">
        <ele>370.3</ele>
        <time>2023-04-16T13:32:18Z</time>
      </trkpt>
      <trkpt lat="44.70566" lon="1.56266">
        <ele>369.9</ele>
        <time>2023-04-16T13:32:26Z</time>
      </trkpt>
      <trkpt lat="44.70557" lon="1.56261">
        <ele>369.3</ele>
        <time>2023-04-16T13:32:34Z</time>
      </trkpt>
      <trkpt lat="44.70548" lon="1.56256">
        <ele>369.1</ele>
        <time>2023-04-16T13:32:41Z</time>
      </trkpt>
      <trkpt lat="44.70539" lon="1.5625">
        <ele>369.2</ele>
        <time>2023-04-16T13:32:49Z</time>
      </trkpt>
      <trkpt lat="44.7053" lon="1.56242">
        <ele>369</ele>
        <time>2023-04-16T13:32:57Z</time>
      </trkpt>
      <trkpt lat="44.70522" lon="1.56235">
        <ele>368.6</ele>
        <time>2023-04-16T13:33:06Z</time>
      </trkpt>
      <trkpt lat="44.70514" lon="1.56228">
        <ele>368.4</ele>
        <time>2023-04-16T13:33:14Z</time>
      </trkpt>
      <trkpt lat="44.70506" lon="1.56221">
        <ele>368.4</ele>
        <time>2023-04-16T13:33:21Z</time>
      </trkpt>
      <trkpt lat="44.70498" lon="1.56214">
        <ele>368.2</ele>
        <time>2023-04-16T13:33:29Z</time>
      </trkpt>
      <trkpt lat="44.70491" lon="1.56205">
        <ele>367.7</ele>
        <time>2023-04-16T13:33:37Z</time>
      </trkpt>
      <trkpt lat="44.70483" lon="1.56197">
        <ele>368</ele>
        <time>2023-04-16T13:33:45Z</time>
      </trkpt>
      <trkpt lat="44.70474" lon="1.56189">
        <ele>368.4</ele>
        <time>2023-04-16T13:33:54Z</time>
      </trkpt>
      <trkpt lat="44.70467" lon="1.56181">
        <ele>368.2</ele>
        <time>2023-04-16T13:34:02Z</time>
      </trkpt>
      <trkpt lat="44.7046" lon="1.56172">
        <ele>368.1</ele>
        <time>2023-04-16T13:34:09Z</time>
      </trkpt>
      <trkpt lat="44.70454" lon="1.56161">
        <ele>368.1</ele>
        <time>2023-04-16T13:34:17Z</time>
      </trkpt>
      <trkpt lat="44.70449" lon="1.56149">
        <ele>368</ele>
        <time>2023-04-16T13:34:25Z</time>
      </trkpt>
      <trkpt lat="44.70444" lon="1.56138">
        <ele>368</ele>
        <time>2023-04-16T13:34:33Z</time>
      </trkpt>
      <trkpt lat="44.70438" lon="1.56127">
        <ele>368.2</ele>
        <time>2023-04-16T13:34:41Z</time>
      </trkpt>
      <trkpt lat="44.70432" lon="1.56116">
        <ele>368.4</ele>
        <time>2023-04-16T13:34:49Z</time>
      </trkpt>
      <trkpt lat="44.70426" lon="1.56106">
        <ele>368.5</ele>
        <time>2023-04-16T13:34:57Z</time>
      </trkpt>
      <trkpt lat="44.7042" lon="1.56096">
        <ele>368.3</ele>
        <time>2023-04-16T13:35:05Z</time>
      </trkpt>
      <trkpt lat="44.70413" lon="1.56087">
        <ele>368.2</ele>
        <time>2023-04-16T13:38:42Z</time>
      </trkpt>
      <trkpt lat="44.70406" lon="1.56095">
        <ele>368.6</ele>
        <time>2023-04-16T13:41:28Z</time>
      </trkpt>
      <trkpt lat="44.70402" lon="1.56106">
        <ele>368.9</ele>
        <time>2023-04-16T13:41:38Z</time>
      </trkpt>
      <trkpt lat="44.70396" lon="1.56117">
        <ele>369.2</ele>
        <time>2023-04-16T13:41:47Z</time>
      </trkpt>
      <trkpt lat="44.70391" lon="1.56128">
        <ele>369.6</ele>
        <time>2023-04-16T13:41:56Z</time>
      </trkpt>
      <trkpt lat="44.70386" lon="1.5614">
        <ele>369.9</ele>
        <time>2023-04-16T13:42:07Z</time>
      </trkpt>
      <trkpt lat="44.70381" lon="1.56151">
        <ele>369.4</ele>
        <time>2023-04-16T13:42:21Z</time>
      </trkpt>
      <trkpt lat="44.70373" lon="1.56158">
        <ele>369.1</ele>
        <time>2023-04-16T13:42:47Z</time>
      </trkpt>
      <trkpt lat="44.70368" lon="1.56168">
        <ele>369</ele>
        <time>2023-04-16T13:42:56Z</time>
      </trkpt>
      <trkpt lat="44.70363" lon="1.56181">
        <ele>369</ele>
        <time>2023-04-16T13:43:05Z</time>
      </trkpt>
      <trkpt lat="44.70358" lon="1.56192">
        <ele>368.8</ele>
        <time>2023-04-16T13:43:13Z</time>
      </trkpt>
      <trkpt lat="44.70352" lon="1.56203">
        <ele>368</ele>
        <time>2023-04-16T13:43:22Z</time>
      </trkpt>
      <trkpt lat="44.70347" lon="1.56214">
        <ele>367.3</ele>
        <time>2023-04-16T13:43:30Z</time>
      </trkpt>
      <trkpt lat="44.70341" lon="1.56224">
        <ele>366.8</ele>
        <time>2023-04-16T13:43:38Z</time>
      </trkpt>
      <trkpt lat="44.70331" lon="1.56228">
        <ele>366.4</ele>
        <time>2023-04-16T13:43:46Z</time>
      </trkpt>
      <trkpt lat="44.70321" lon="1.56229">
        <ele>365.9</ele>
        <time>2023-04-16T13:43:53Z</time>
      </trkpt>
      <trkpt lat="44.70311" lon="1.56229">
        <ele>365.7</ele>
        <time>2023-04-16T13:44:01Z</time>
      </trkpt>
      <trkpt lat="44.70301" lon="1.56229">
        <ele>365.3</ele>
        <time>2023-04-16T13:44:11Z</time>
      </trkpt>
      <trkpt lat="44.70292" lon="1.56227">
        <ele>365.2</ele>
        <time>2023-04-16T13:44:22Z</time>
      </trkpt>
      <trkpt lat="44.70282" lon="1.56222">
        <ele>365.2</ele>
        <time>2023-04-16T13:44:30Z</time>
      </trkpt>
      <trkpt lat="44.70274" lon="1.56216">
        <ele>364.8</ele>
        <time>2023-04-16T13:44:38Z</time>
      </trkpt>
      <trkpt lat="44.70266" lon="1.56211">
        <ele>364.3</ele>
        <time>2023-04-16T13:44:47Z</time>
      </trkpt>
      <trkpt lat="44.70257" lon="1.56206">
        <ele>363.9</ele>
        <time>2023-04-16T13:44:55Z</time>
      </trkpt>
      <trkpt lat="44.70248" lon="1.56203">
        <ele>363.5</ele>
        <time>2023-04-16T13:45:04Z</time>
      </trkpt>
      <trkpt lat="44.70238" lon="1.56204">
        <ele>362.8</ele>
        <time>2023-04-16T13:45:12Z</time>
      </trkpt>
      <trkpt lat="44.70228" lon="1.56202">
        <ele>362.2</ele>
        <time>2023-04-16T13:45:19Z</time>
      </trkpt>
      <trkpt lat="44.70219" lon="1.56203">
        <ele>361.5</ele>
        <time>2023-04-16T13:45:27Z</time>
      </trkpt>
      <trkpt lat="44.70211" lon="1.56211">
        <ele>361.1</ele>
        <time>2023-04-16T13:46:09Z</time>
      </trkpt>
      <trkpt lat="44.70204" lon="1.5622">
        <ele>361</ele>
        <time>2023-04-16T13:46:19Z</time>
      </trkpt>
      <trkpt lat="44.70199" lon="1.56232">
        <ele>360.7</ele>
        <time>2023-04-16T13:46:27Z</time>
      </trkpt>
      <trkpt lat="44.70195" lon="1.56244">
        <ele>360.2</ele>
        <time>2023-04-16T13:46:35Z</time>
      </trkpt>
      <trkpt lat="44.70192" lon="1.56258">
        <ele>359.6</ele>
        <time>2023-04-16T13:46:43Z</time>
      </trkpt>
      <trkpt lat="44.70187" lon="1.56268">
        <ele>359</ele>
        <time>2023-04-16T13:46:50Z</time>
      </trkpt>
      <trkpt lat="44.70182" lon="1.56281">
        <ele>358.5</ele>
        <time>2023-04-16T13:46:58Z</time>
      </trkpt>
      <trkpt lat="44.70178" lon="1.56294">
        <ele>358.2</ele>
        <time>2023-04-16T13:47:06Z</time>
      </trkpt>
      <trkpt lat="44.70174" lon="1.56307">
        <ele>358</ele>
        <time>2023-04-16T13:47:14Z</time>
      </trkpt>
      <trkpt lat="44.7017" lon="1.5632">
        <ele>357.5</ele>
        <time>2023-04-16T13:47:22Z</time>
      </trkpt>
      <trkpt lat="44.70167" lon="1.56334">
        <ele>357</ele>
        <time>2023-04-16T13:47:44Z</time>
      </trkpt>
      <trkpt lat="44.70162" lon="1.56346">
        <ele>356.7</ele>
        <time>2023-04-16T13:47:52Z</time>
      </trkpt>
      <trkpt lat="44.70157" lon="1.56358">
        <ele>356.6</ele>
        <time>2023-04-16T13:48:00Z</time>
      </trkpt>
      <trkpt lat="44.70153" lon="1.5637">
        <ele>356.5</ele>
        <time>2023-04-16T13:48:07Z</time>
      </trkpt>
      <trkpt lat="44.70147" lon="1.56382">
        <ele>356.6</ele>
        <time>2023-04-16T13:48:14Z</time>
      </trkpt>
      <trkpt lat="44.70143" lon="1.56393">
        <ele>356.9</ele>
        <time>2023-04-16T13:48:20Z</time>
      </trkpt>
      <trkpt lat="44.70136" lon="1.56404">
        <ele>356.9</ele>
        <time>2023-04-16T13:48:28Z</time>
      </trkpt>
      <trkpt lat="44.70132" lon="1.56417">
        <ele>356.7</ele>
        <time>2023-04-16T13:48:36Z</time>
      </trkpt>
      <trkpt lat="44.70126" lon="1.56429">
        <ele>356.7</ele>
        <time>2023-04-16T13:48:43Z</time>
      </trkpt>
      <trkpt lat="44.70118" lon="1.56435">
        <ele>356.7</ele>
        <time>2023-04-16T13:48:49Z</time>
      </trkpt>
      <trkpt lat="44.70108" lon="1.56433">
        <ele>356.4</ele>
        <time>2023-04-16T13:48:57Z</time>
      </trkpt>
      <trkpt lat="44.70098" lon="1.56434">
        <ele>356</ele>
        <time>2023-04-16T13:49:05Z</time>
      </trkpt>
      <trkpt lat="44.70088" lon="1.56433">
        <ele>355.4</ele>
        <time>2023-04-16T13:49:13Z</time>
      </trkpt>
      <trkpt lat="44.70078" lon="1.56435">
        <ele>355.2</ele>
        <time>2023-04-16T13:49:21Z</time>
      </trkpt>
      <trkpt lat="44.70069" lon="1.56435">
        <ele>354.8</ele>
        <time>2023-04-16T13:49:28Z</time>
      </trkpt>
      <trkpt lat="44.70059" lon="1.56436">
        <ele>354.5</ele>
        <time>2023-04-16T13:49:36Z</time>
      </trkpt>
      <trkpt lat="44.70049" lon="1.56435">
        <ele>354</ele>
        <time>2023-04-16T13:49:45Z</time>
      </trkpt>
      <trkpt lat="44.70039" lon="1.56435">
        <ele>353.5</ele>
        <time>2023-04-16T13:49:54Z</time>
      </trkpt>
      <trkpt lat="44.70029" lon="1.56434">
        <ele>352.9</ele>
        <time>2023-04-16T13:50:00Z</time>
      </trkpt>
      <trkpt lat="44.70019" lon="1.56434">
        <ele>352.2</ele>
        <time>2023-04-16T13:50:07Z</time>
      </trkpt>
      <trkpt lat="44.70009" lon="1.56434">
        <ele>351.3</ele>
        <time>2023-04-16T13:50:15Z</time>
      </trkpt>
      <trkpt lat="44.69999" lon="1.56433">
        <ele>350.3</ele>
        <time>2023-04-16T13:50:23Z</time>
      </trkpt>
      <trkpt lat="44.69989" lon="1.56434">
        <ele>349.7</ele>
        <time>2023-04-16T13:50:32Z</time>
      </trkpt>
      <trkpt lat="44.6998" lon="1.56432">
        <ele>348.8</ele>
        <time>2023-04-16T13:50:39Z</time>
      </trkpt>
      <trkpt lat="44.69971" lon="1.56429">
        <ele>347.7</ele>
        <time>2023-04-16T13:50:46Z</time>
      </trkpt>
      <trkpt lat="44.69961" lon="1.56427">
        <ele>347.4</ele>
        <time>2023-04-16T13:50:54Z</time>
      </trkpt>
      <trkpt lat="44.69951" lon="1.56426">
        <ele>347.1</ele>
        <time>2023-04-16T13:51:01Z</time>
      </trkpt>
      <trkpt lat="44.69941" lon="1.56424">
        <ele>346.8</ele>
        <time>2023-04-16T13:51:08Z</time>
      </trkpt>
      <trkpt lat="44.69931" lon="1.56424">
        <ele>346.7</ele>
        <time>2023-04-16T13:51:17Z</time>
      </trkpt>
      <trkpt lat="44.69921" lon="1.56424">
        <ele>346.6</ele>
        <time>2023-04-16T13:51:25Z</time>
      </trkpt>
      <trkpt lat="44.69912" lon="1.56422">
        <ele>346.2</ele>
        <time>2023-04-16T13:51:32Z</time>
      </trkpt>
      <trkpt lat="44.69902" lon="1.56419">
        <ele>345.6</ele>
        <time>2023-04-16T13:51:39Z</time>
      </trkpt>
      <trkpt lat="44.69892" lon="1.56418">
        <ele>345.2</ele>
        <time>2023-04-16T13:51:46Z</time>
      </trkpt>
      <trkpt lat="44.69883" lon="1.56415">
        <ele>344.9</ele>
        <time>2023-04-16T13:51:53Z</time>
      </trkpt>
      <trkpt lat="44.69874" lon="1.56411">
        <ele>344.5</ele>
        <time>2023-04-16T13:52:00Z</time>
      </trkpt>
      <trkpt lat="44.69865" lon="1.56406">
        <ele>343.9</ele>
        <time>2023-04-16T13:52:08Z</time>
      </trkpt>
      <trkpt lat="44.69857" lon="1.56401">
        <ele>343.3</ele>
        <time>2023-04-16T13:52:16Z</time>
      </trkpt>
      <trkpt lat="44.69848" lon="1.56399">
        <ele>342.9</ele>
        <time>2023-04-16T13:52:24Z</time>
      </trkpt>
      <trkpt lat="44.69839" lon="1.56394">
        <ele>342.4</ele>
        <time>2023-04-16T13:52:33Z</time>
      </trkpt>
      <trkpt lat="44.69829" lon="1.56392">
        <ele>342</ele>
        <time>2023-04-16T13:52:43Z</time>
      </trkpt>
      <trkpt lat="44.6982" lon="1.56388">
        <ele>341.5</ele>
        <time>2023-04-16T13:52:50Z</time>
      </trkpt>
      <trkpt lat="44.69811" lon="1.56388">
        <ele>341</ele>
        <time>2023-04-16T13:52:58Z</time>
      </trkpt>
      <trkpt lat="44.69801" lon="1.56386">
        <ele>340.5</ele>
        <time>2023-04-16T13:53:06Z</time>
      </trkpt>
      <trkpt lat="44.69791" lon="1.56384">
        <ele>340</ele>
        <time>2023-04-16T13:53:15Z</time>
      </trkpt>
      <trkpt lat="44.69781" lon="1.56382">
        <ele>339.4</ele>
        <time>2023-04-16T13:53:23Z</time>
      </trkpt>
      <trkpt lat="44.69772" lon="1.5638">
        <ele>338.8</ele>
        <time>2023-04-16T13:53:31Z</time>
      </trkpt>
      <trkpt lat="44.69762" lon="1.56378">
        <ele>338.3</ele>
        <time>2023-04-16T13:53:40Z</time>
      </trkpt>
      <trkpt lat="44.69752" lon="1.56376">
        <ele>337.6</ele>
        <time>2023-04-16T13:53:48Z</time>
      </trkpt>
      <trkpt lat="44.69743" lon="1.56374">
        <ele>337.2</ele>
        <time>2023-04-16T13:53:56Z</time>
      </trkpt>
      <trkpt lat="44.69733" lon="1.56373">
        <ele>336.8</ele>
        <time>2023-04-16T13:54:05Z</time>
      </trkpt>
      <trkpt lat="44.69723" lon="1.56374">
        <ele>336.5</ele>
        <time>2023-04-16T13:54:13Z</time>
      </trkpt>
      <trkpt lat="44.69715" lon="1.56369">
        <ele>335.7</ele>
        <time>2023-04-16T13:54:20Z</time>
      </trkpt>
      <trkpt lat="44.69706" lon="1.56367">
        <ele>335</ele>
        <time>2023-04-16T13:54:27Z</time>
      </trkpt>
      <trkpt lat="44.69696" lon="1.56363">
        <ele>334.2</ele>
        <time>2023-04-16T13:54:36Z</time>
      </trkpt>
      <trkpt lat="44.69686" lon="1.56363">
        <ele>333.5</ele>
        <time>2023-04-16T13:54:51Z</time>
      </trkpt>
      <trkpt lat="44.69678" lon="1.56356">
        <ele>332.7</ele>
        <time>2023-04-16T13:55:00Z</time>
      </trkpt>
      <trkpt lat="44.6967" lon="1.56349">
        <ele>332.2</ele>
        <time>2023-04-16T13:55:08Z</time>
      </trkpt>
      <trkpt lat="44.69663" lon="1.56341">
        <ele>331.7</ele>
        <time>2023-04-16T13:55:17Z</time>
      </trkpt>
      <trkpt lat="44.69654" lon="1.56334">
        <ele>331.1</ele>
        <time>2023-04-16T13:55:26Z</time>
      </trkpt>
      <trkpt lat="44.69646" lon="1.56326">
        <ele>330.2</ele>
        <time>2023-04-16T13:55:35Z</time>
      </trkpt>
      <trkpt lat="44.69638" lon="1.56319">
        <ele>329.4</ele>
        <time>2023-04-16T13:55:42Z</time>
      </trkpt>
      <trkpt lat="44.69629" lon="1.56313">
        <ele>328.5</ele>
        <time>2023-04-16T13:55:51Z</time>
      </trkpt>
      <trkpt lat="44.69622" lon="1.56305">
        <ele>327.7</ele>
        <time>2023-04-16T13:55:59Z</time>
      </trkpt>
      <trkpt lat="44.69613" lon="1.56299">
        <ele>326.9</ele>
        <time>2023-04-16T13:56:08Z</time>
      </trkpt>
      <trkpt lat="44.69604" lon="1.56294">
        <ele>326.2</ele>
        <time>2023-04-16T13:56:16Z</time>
      </trkpt>
      <trkpt lat="44.69596" lon="1.56288">
        <ele>325.6</ele>
        <time>2023-04-16T13:56:23Z</time>
      </trkpt>
      <trkpt lat="44.69588" lon="1.56282">
        <ele>325.2</ele>
        <time>2023-04-16T13:56:30Z</time>
      </trkpt>
      <trkpt lat="44.69579" lon="1.56279">
        <ele>324.5</ele>
        <time>2023-04-16T13:56:38Z</time>
      </trkpt>
      <trkpt lat="44.6957" lon="1.56272">
        <ele>323.5</ele>
        <time>2023-04-16T13:56:47Z</time>
      </trkpt>
      <trkpt lat="44.69562" lon="1.56266">
        <ele>322.6</ele>
        <time>2023-04-16T13:56:58Z</time>
      </trkpt>
      <trkpt lat="44.69554" lon="1.56261">
        <ele>321.7</ele>
        <time>2023-04-16T13:57:08Z</time>
      </trkpt>
      <trkpt lat="44.69544" lon="1.56261">
        <ele>320.1</ele>
        <time>2023-04-16T13:57:18Z</time>
      </trkpt>
      <trkpt lat="44.69535" lon="1.56265">
        <ele>318.7</ele>
        <time>2023-04-16T13:57:29Z</time>
      </trkpt>
      <trkpt lat="44.69526" lon="1.56266">
        <ele>317.2</ele>
        <time>2023-04-16T13:57:38Z</time>
      </trkpt>
      <trkpt lat="44.69517" lon="1.56271">
        <ele>315.4</ele>
        <time>2023-04-16T13:57:48Z</time>
      </trkpt>
      <trkpt lat="44.69508" lon="1.56272">
        <ele>313.4</ele>
        <time>2023-04-16T13:58:00Z</time>
      </trkpt>
      <trkpt lat="44.69499" lon="1.56276">
        <ele>311.5</ele>
        <time>2023-04-16T13:58:12Z</time>
      </trkpt>
      <trkpt lat="44.6949" lon="1.56281">
        <ele>308</ele>
        <time>2023-04-16T13:58:29Z</time>
      </trkpt>
      <trkpt lat="44.69481" lon="1.56279">
        <ele>305</ele>
        <time>2023-04-16T13:58:45Z</time>
      </trkpt>
      <trkpt lat="44.69473" lon="1.56272">
        <ele>302</ele>
        <time>2023-04-16T13:58:58Z</time>
      </trkpt>
      <trkpt lat="44.69466" lon="1.56263">
        <ele>300</ele>
        <time>2023-04-16T13:59:11Z</time>
      </trkpt>
      <trkpt lat="44.69458" lon="1.56257">
        <ele>297.9</ele>
        <time>2023-04-16T13:59:25Z</time>
      </trkpt>
      <trkpt lat="44.69451" lon="1.56249">
        <ele>296.4</ele>
        <time>2023-04-16T13:59:37Z</time>
      </trkpt>
      <trkpt lat="44.69444" lon="1.56256">
        <ele>294.7</ele>
        <time>2023-04-16T13:59:52Z</time>
      </trkpt>
      <trkpt lat="44.69437" lon="1.56267">
        <ele>293.9</ele>
        <time>2023-04-16T14:01:58Z</time>
      </trkpt>
      <trkpt lat="44.6943" lon="1.56276">
        <ele>293.5</ele>
        <time>2023-04-16T14:02:06Z</time>
      </trkpt>
      <trkpt lat="44.69423" lon="1.56285">
        <ele>293.1</ele>
        <time>2023-04-16T14:02:14Z</time>
      </trkpt>
      <trkpt lat="44.69416" lon="1.56295">
        <ele>292.9</ele>
        <time>2023-04-16T14:02:23Z</time>
      </trkpt>
      <trkpt lat="44.69409" lon="1.56304">
        <ele>292.4</ele>
        <time>2023-04-16T14:02:32Z</time>
      </trkpt>
      <trkpt lat="44.69402" lon="1.56314">
        <ele>292</ele>
        <time>2023-04-16T14:02:40Z</time>
      </trkpt>
      <trkpt lat="44.69395" lon="1.56322">
        <ele>292.1</ele>
        <time>2023-04-16T14:02:48Z</time>
      </trkpt>
      <trkpt lat="44.69387" lon="1.56329">
        <ele>292.8</ele>
        <time>2023-04-16T14:02:56Z</time>
      </trkpt>
      <trkpt lat="44.69379" lon="1.56337">
        <ele>293.7</ele>
        <time>2023-04-16T14:03:04Z</time>
      </trkpt>
      <trkpt lat="44.6937" lon="1.56344">
        <ele>294.3</ele>
        <time>2023-04-16T14:03:13Z</time>
      </trkpt>
      <trkpt lat="44.69362" lon="1.5635">
        <ele>294.9</ele>
        <time>2023-04-16T14:03:22Z</time>
      </trkpt>
      <trkpt lat="44.69353" lon="1.56355">
        <ele>295.2</ele>
        <time>2023-04-16T14:03:33Z</time>
      </trkpt>
      <trkpt lat="44.69345" lon="1.5636">
        <ele>295.6</ele>
        <time>2023-04-16T14:03:42Z</time>
      </trkpt>
      <trkpt lat="44.69336" lon="1.56363">
        <ele>295.9</ele>
        <time>2023-04-16T14:03:51Z</time>
      </trkpt>
      <trkpt lat="44.69327" lon="1.56368">
        <ele>296.2</ele>
        <time>2023-04-16T14:03:59Z</time>
      </trkpt>
      <trkpt lat="44.69318" lon="1.56375">
        <ele>296.6</ele>
        <time>2023-04-16T14:04:08Z</time>
      </trkpt>
      <trkpt lat="44.69309" lon="1.56379">
        <ele>296.9</ele>
        <time>2023-04-16T14:04:16Z</time>
      </trkpt>
      <trkpt lat="44.693" lon="1.56385">
        <ele>297.2</ele>
        <time>2023-04-16T14:04:25Z</time>
      </trkpt>
      <trkpt lat="44.69291" lon="1.5639">
        <ele>297.6</ele>
        <time>2023-04-16T14:04:32Z</time>
      </trkpt>
      <trkpt lat="44.69281" lon="1.56395">
        <ele>298.1</ele>
        <time>2023-04-16T14:04:40Z</time>
      </trkpt>
      <trkpt lat="44.69272" lon="1.56399">
        <ele>298.5</ele>
        <time>2023-04-16T14:04:48Z</time>
      </trkpt>
      <trkpt lat="44.69263" lon="1.56404">
        <ele>298.8</ele>
        <time>2023-04-16T14:04:56Z</time>
      </trkpt>
      <trkpt lat="44.69255" lon="1.5641">
        <ele>299</ele>
        <time>2023-04-16T14:05:04Z</time>
      </trkpt>
      <trkpt lat="44.69246" lon="1.56416">
        <ele>299.1</ele>
        <time>2023-04-16T14:05:12Z</time>
      </trkpt>
      <trkpt lat="44.69238" lon="1.56424">
        <ele>299.6</ele>
        <time>2023-04-16T14:05:20Z</time>
      </trkpt>
      <trkpt lat="44.6923" lon="1.56429">
        <ele>299.8</ele>
        <time>2023-04-16T14:05:27Z</time>
      </trkpt>
      <trkpt lat="44.69221" lon="1.56436">
        <ele>299.9</ele>
        <time>2023-04-16T14:05:35Z</time>
      </trkpt>
      <trkpt lat="44.69212" lon="1.56442">
        <ele>299.6</ele>
        <time>2023-04-16T14:05:43Z</time>
      </trkpt>
      <trkpt lat="44.69204" lon="1.5645">
        <ele>299.6</ele>
        <time>2023-04-16T14:05:50Z</time>
      </trkpt>
      <trkpt lat="44.69195" lon="1.56457">
        <ele>299.9</ele>
        <time>2023-04-16T14:05:58Z</time>
      </trkpt>
      <trkpt lat="44.69187" lon="1.56464">
        <ele>300.1</ele>
        <time>2023-04-16T14:06:05Z</time>
      </trkpt>
      <trkpt lat="44.6918" lon="1.56472">
        <ele>300.4</ele>
        <time>2023-04-16T14:06:13Z</time>
      </trkpt>
      <trkpt lat="44.69171" lon="1.56478">
        <ele>300.5</ele>
        <time>2023-04-16T14:06:22Z</time>
      </trkpt>
      <trkpt lat="44.69163" lon="1.56485">
        <ele>300.8</ele>
        <time>2023-04-16T14:06:30Z</time>
      </trkpt>
      <trkpt lat="44.69155" lon="1.56491">
        <ele>301</ele>
        <time>2023-04-16T14:06:38Z</time>
      </trkpt>
      <trkpt lat="44.69147" lon="1.56498">
        <ele>301.2</ele>
        <time>2023-04-16T14:06:46Z</time>
      </trkpt>
      <trkpt lat="44.69139" lon="1.56506">
        <ele>301.4</ele>
        <time>2023-04-16T14:06:54Z</time>
      </trkpt>
      <trkpt lat="44.6913" lon="1.56506">
        <ele>301.4</ele>
        <time>2023-04-16T14:07:05Z</time>
      </trkpt>
      <trkpt lat="44.6912" lon="1.56504">
        <ele>301.3</ele>
        <time>2023-04-16T14:07:14Z</time>
      </trkpt>
      <trkpt lat="44.69111" lon="1.56499">
        <ele>300.9</ele>
        <time>2023-04-16T14:07:22Z</time>
      </trkpt>
      <trkpt lat="44.69105" lon="1.5649">
        <ele>300</ele>
        <time>2023-04-16T14:07:30Z</time>
      </trkpt>
      <trkpt lat="44.69099" lon="1.56479">
        <ele>299</ele>
        <time>2023-04-16T14:07:39Z</time>
      </trkpt>
      <trkpt lat="44.69093" lon="1.56468">
        <ele>298.6</ele>
        <time>2023-04-16T14:07:46Z</time>
      </trkpt>
      <trkpt lat="44.6909" lon="1.56456">
        <ele>298.6</ele>
        <time>2023-04-16T14:07:54Z</time>
      </trkpt>
      <trkpt lat="44.69086" lon="1.56444">
        <ele>298.8</ele>
        <time>2023-04-16T14:08:02Z</time>
      </trkpt>
      <trkpt lat="44.69083" lon="1.56432">
        <ele>298.5</ele>
        <time>2023-04-16T14:08:10Z</time>
      </trkpt>
      <trkpt lat="44.69082" lon="1.56419">
        <ele>298.1</ele>
        <time>2023-04-16T14:08:18Z</time>
      </trkpt>
      <trkpt lat="44.69079" lon="1.56406">
        <ele>298.1</ele>
        <time>2023-04-16T14:08:27Z</time>
      </trkpt>
      <trkpt lat="44.69072" lon="1.56398">
        <ele>298.5</ele>
        <time>2023-04-16T14:09:00Z</time>
      </trkpt>
      <trkpt lat="44.69064" lon="1.56389">
        <ele>299.4</ele>
        <time>2023-04-16T14:09:07Z</time>
      </trkpt>
      <trkpt lat="44.69054" lon="1.56391">
        <ele>299.8</ele>
        <time>2023-04-16T14:09:15Z</time>
      </trkpt>
      <trkpt lat="44.69045" lon="1.56395">
        <ele>299.3</ele>
        <time>2023-04-16T14:09:23Z</time>
      </trkpt>
      <trkpt lat="44.69035" lon="1.56396">
        <ele>299</ele>
        <time>2023-04-16T14:09:30Z</time>
      </trkpt>
      <trkpt lat="44.69026" lon="1.56396">
        <ele>298.8</ele>
        <time>2023-04-16T14:09:38Z</time>
      </trkpt>
      <trkpt lat="44.69016" lon="1.56394">
        <ele>299.2</ele>
        <time>2023-04-16T14:09:45Z</time>
      </trkpt>
      <trkpt lat="44.69006" lon="1.56393">
        <ele>299.5</ele>
        <time>2023-04-16T14:09:53Z</time>
      </trkpt>
      <trkpt lat="44.68996" lon="1.56392">
        <ele>299.9</ele>
        <time>2023-04-16T14:10:02Z</time>
      </trkpt>
      <trkpt lat="44.68987" lon="1.56394">
        <ele>300.1</ele>
        <time>2023-04-16T14:10:09Z</time>
      </trkpt>
      <trkpt lat="44.68977" lon="1.56393">
        <ele>300.5</ele>
        <time>2023-04-16T14:10:18Z</time>
      </trkpt>
      <trkpt lat="44.68967" lon="1.56393">
        <ele>301</ele>
        <time>2023-04-16T14:10:27Z</time>
      </trkpt>
      <trkpt lat="44.68957" lon="1.56394">
        <ele>301.6</ele>
        <time>2023-04-16T14:10:36Z</time>
      </trkpt>
      <trkpt lat="44.68948" lon="1.56394">
        <ele>302.1</ele>
        <time>2023-04-16T14:10:42Z</time>
      </trkpt>
      <trkpt lat="44.68938" lon="1.56394">
        <ele>302.5</ele>
        <time>2023-04-16T14:10:50Z</time>
      </trkpt>
      <trkpt lat="44.68929" lon="1.56395">
        <ele>302.7</ele>
        <time>2023-04-16T14:10:57Z</time>
      </trkpt>
      <trkpt lat="44.6892" lon="1.56396">
        <ele>302.9</ele>
        <time>2023-04-16T14:11:03Z</time>
      </trkpt>
      <trkpt lat="44.6891" lon="1.56398">
        <ele>302.7</ele>
        <time>2023-04-16T14:11:11Z</time>
      </trkpt>
      <trkpt lat="44.68901" lon="1.56399">
        <ele>302.6</ele>
        <time>2023-04-16T14:11:19Z</time>
      </trkpt>
      <trkpt lat="44.68892" lon="1.56399">
        <ele>302.5</ele>
        <time>2023-04-16T14:11:28Z</time>
      </trkpt>
      <trkpt lat="44.68883" lon="1.56399">
        <ele>302.8</ele>
        <time>2023-04-16T14:11:35Z</time>
      </trkpt>
      <trkpt lat="44.68873" lon="1.56397">
        <ele>303.2</ele>
        <time>2023-04-16T14:11:43Z</time>
      </trkpt>
      <trkpt lat="44.68864" lon="1.56391">
        <ele>303.9</ele>
        <time>2023-04-16T14:11:52Z</time>
      </trkpt>
      <trkpt lat="44.68854" lon="1.56388">
        <ele>303.8</ele>
        <time>2023-04-16T14:11:59Z</time>
      </trkpt>
      <trkpt lat="44.68845" lon="1.56385">
        <ele>304.1</ele>
        <time>2023-04-16T14:12:08Z</time>
      </trkpt>
      <trkpt lat="44.68835" lon="1.56381">
        <ele>304.5</ele>
        <time>2023-04-16T14:12:16Z</time>
      </trkpt>
      <trkpt lat="44.68827" lon="1.56376">
        <ele>305</ele>
        <time>2023-04-16T14:12:24Z</time>
      </trkpt>
      <trkpt lat="44.68818" lon="1.5637">
        <ele>305.8</ele>
        <time>2023-04-16T14:12:31Z</time>
      </trkpt>
      <trkpt lat="44.6881" lon="1.56366">
        <ele>306.4</ele>
        <time>2023-04-16T14:12:38Z</time>
      </trkpt>
      <trkpt lat="44.688" lon="1.56363">
        <ele>306.2</ele>
        <time>2023-04-16T14:12:47Z</time>
      </trkpt>
      <trkpt lat="44.68791" lon="1.56359">
        <ele>305.8</ele>
        <time>2023-04-16T14:12:56Z</time>
      </trkpt>
      <trkpt lat="44.68781" lon="1.56356">
        <ele>305.2</ele>
        <time>2023-04-16T14:13:04Z</time>
      </trkpt>
      <trkpt lat="44.68773" lon="1.56351">
        <ele>305.5</ele>
        <time>2023-04-16T14:13:11Z</time>
      </trkpt>
      <trkpt lat="44.68764" lon="1.56344">
        <ele>305.9</ele>
        <time>2023-04-16T14:13:20Z</time>
      </trkpt>
      <trkpt lat="44.68756" lon="1.56339">
        <ele>306</ele>
        <time>2023-04-16T14:13:27Z</time>
      </trkpt>
      <trkpt lat="44.68748" lon="1.56331">
        <ele>306.2</ele>
        <time>2023-04-16T14:13:34Z</time>
      </trkpt>
      <trkpt lat="44.6874" lon="1.56324">
        <ele>306.7</ele>
        <time>2023-04-16T14:13:42Z</time>
      </trkpt>
      <trkpt lat="44.68733" lon="1.56316">
        <ele>307</ele>
        <time>2023-04-16T14:13:49Z</time>
      </trkpt>
      <trkpt lat="44.68724" lon="1.5631">
        <ele>306.8</ele>
        <time>2023-04-16T14:13:57Z</time>
      </trkpt>
      <trkpt lat="44.68716" lon="1.56303">
        <ele>306.7</ele>
        <time>2023-04-16T14:14:05Z</time>
      </trkpt>
      <trkpt lat="44.68708" lon="1.56296">
        <ele>307</ele>
        <time>2023-04-16T14:14:13Z</time>
      </trkpt>
      <trkpt lat="44.68701" lon="1.56287">
        <ele>307.6</ele>
        <time>2023-04-16T14:14:23Z</time>
      </trkpt>
      <trkpt lat="44.68692" lon="1.56281">
        <ele>307.4</ele>
        <time>2023-04-16T14:14:32Z</time>
      </trkpt>
      <trkpt lat="44.68683" lon="1.56277">
        <ele>307</ele>
        <time>2023-04-16T14:14:40Z</time>
      </trkpt>
      <trkpt lat="44.68674" lon="1.56272">
        <ele>306.9</ele>
        <time>2023-04-16T14:14:49Z</time>
      </trkpt>
      <trkpt lat="44.68665" lon="1.56268">
        <ele>307.1</ele>
        <time>2023-04-16T14:14:59Z</time>
      </trkpt>
      <trkpt lat="44.68655" lon="1.56264">
        <ele>307.7</ele>
        <time>2023-04-16T14:15:08Z</time>
      </trkpt>
      <trkpt lat="44.68646" lon="1.56262">
        <ele>308.1</ele>
        <time>2023-04-16T14:15:16Z</time>
      </trkpt>
      <trkpt lat="44.68636" lon="1.56261">
        <ele>308.2</ele>
        <time>2023-04-16T14:15:26Z</time>
      </trkpt>
      <trkpt lat="44.68627" lon="1.56259">
        <ele>309</ele>
        <time>2023-04-16T14:15:33Z</time>
      </trkpt>
      <trkpt lat="44.68617" lon="1.56258">
        <ele>309.6</ele>
        <time>2023-04-16T14:15:43Z</time>
      </trkpt>
      <trkpt lat="44.68608" lon="1.56261">
        <ele>309.3</ele>
        <time>2023-04-16T14:15:53Z</time>
      </trkpt>
      <trkpt lat="44.686" lon="1.56266">
        <ele>308.5</ele>
        <time>2023-04-16T14:16:01Z</time>
      </trkpt>
      <trkpt lat="44.68593" lon="1.56277">
        <ele>307.1</ele>
        <time>2023-04-16T14:16:08Z</time>
      </trkpt>
      <trkpt lat="44.68587" lon="1.56287">
        <ele>306.9</ele>
        <time>2023-04-16T14:16:15Z</time>
      </trkpt>
      <trkpt lat="44.68579" lon="1.56295">
        <ele>307.1</ele>
        <time>2023-04-16T14:16:23Z</time>
      </trkpt>
      <trkpt lat="44.68571" lon="1.563">
        <ele>307.4</ele>
        <time>2023-04-16T14:16:31Z</time>
      </trkpt>
      <trkpt lat="44.68562" lon="1.56306">
        <ele>307.8</ele>
        <time>2023-04-16T14:16:38Z</time>
      </trkpt>
      <trkpt lat="44.68556" lon="1.56317">
        <ele>307.6</ele>
        <time>2023-04-16T14:16:46Z</time>
      </trkpt>
      <trkpt lat="44.68549" lon="1.56325">
        <ele>307.8</ele>
        <time>2023-04-16T14:16:53Z</time>
      </trkpt>
      <trkpt lat="44.68539" lon="1.56329">
        <ele>308.3</ele>
        <time>2023-04-16T14:17:01Z</time>
      </trkpt>
      <trkpt lat="44.68531" lon="1.56336">
        <ele>308.6</ele>
        <time>2023-04-16T14:17:09Z</time>
      </trkpt>
      <trkpt lat="44.68522" lon="1.56342">
        <ele>309.1</ele>
        <time>2023-04-16T14:17:17Z</time>
      </trkpt>
      <trkpt lat="44.68514" lon="1.5635">
        <ele>309.5</ele>
        <time>2023-04-16T14:17:26Z</time>
      </trkpt>
      <trkpt lat="44.68506" lon="1.56358">
        <ele>310.2</ele>
        <time>2023-04-16T14:17:34Z</time>
      </trkpt>
      <trkpt lat="44.68498" lon="1.56364">
        <ele>310.9</ele>
        <time>2023-04-16T14:17:42Z</time>
      </trkpt>
      <trkpt lat="44.68489" lon="1.56369">
        <ele>311.2</ele>
        <time>2023-04-16T14:17:50Z</time>
      </trkpt>
      <trkpt lat="44.68481" lon="1.56373">
        <ele>311.5</ele>
        <time>2023-04-16T14:17:58Z</time>
      </trkpt>
      <trkpt lat="44.68472" lon="1.56378">
        <ele>311.9</ele>
        <time>2023-04-16T14:18:06Z</time>
      </trkpt>
      <trkpt lat="44.68463" lon="1.56383">
        <ele>312.4</ele>
        <time>2023-04-16T14:18:15Z</time>
      </trkpt>
      <trkpt lat="44.68453" lon="1.56387">
        <ele>313.2</ele>
        <time>2023-04-16T14:18:23Z</time>
      </trkpt>
      <trkpt lat="44.68444" lon="1.56391">
        <ele>313.8</ele>
        <time>2023-04-16T14:18:31Z</time>
      </trkpt>
      <trkpt lat="44.68434" lon="1.56396">
        <ele>314</ele>
        <time>2023-04-16T14:18:39Z</time>
      </trkpt>
      <trkpt lat="44.68426" lon="1.56401">
        <ele>314</ele>
        <time>2023-04-16T14:18:47Z</time>
      </trkpt>
      <trkpt lat="44.68418" lon="1.56407">
        <ele>314</ele>
        <time>2023-04-16T14:18:54Z</time>
      </trkpt>
      <trkpt lat="44.68408" lon="1.56411">
        <ele>314.4</ele>
        <time>2023-04-16T14:19:02Z</time>
      </trkpt>
      <trkpt lat="44.68399" lon="1.56416">
        <ele>315</ele>
        <time>2023-04-16T14:19:10Z</time>
      </trkpt>
      <trkpt lat="44.6839" lon="1.56421">
        <ele>315.6</ele>
        <time>2023-04-16T14:19:18Z</time>
      </trkpt>
      <trkpt lat="44.68381" lon="1.56426">
        <ele>315.6</ele>
        <time>2023-04-16T14:19:25Z</time>
      </trkpt>
      <trkpt lat="44.68371" lon="1.56429">
        <ele>315.7</ele>
        <time>2023-04-16T14:19:32Z</time>
      </trkpt>
      <trkpt lat="44.68363" lon="1.56432">
        <ele>315.8</ele>
        <time>2023-04-16T14:19:39Z</time>
      </trkpt>
      <trkpt lat="44.68354" lon="1.56436">
        <ele>315.9</ele>
        <time>2023-04-16T14:19:45Z</time>
      </trkpt>
      <trkpt lat="44.68344" lon="1.56438">
        <ele>316.1</ele>
        <time>2023-04-16T14:19:53Z</time>
      </trkpt>
      <trkpt lat="44.68335" lon="1.5644">
        <ele>316.3</ele>
        <time>2023-04-16T14:20:00Z</time>
      </trkpt>
      <trkpt lat="44.68325" lon="1.56441">
        <ele>317</ele>
        <time>2023-04-16T14:20:08Z</time>
      </trkpt>
      <trkpt lat="44.68315" lon="1.56444">
        <ele>317.4</ele>
        <time>2023-04-16T14:20:16Z</time>
      </trkpt>
      <trkpt lat="44.68305" lon="1.56446">
        <ele>317.9</ele>
        <time>2023-04-16T14:20:24Z</time>
      </trkpt>
      <trkpt lat="44.68297" lon="1.56453">
        <ele>317.9</ele>
        <time>2023-04-16T14:20:34Z</time>
      </trkpt>
      <trkpt lat="44.68296" lon="1.56467">
        <ele>316.8</ele>
        <time>2023-04-16T14:21:45Z</time>
      </trkpt>
      <trkpt lat="44.68296" lon="1.56481">
        <ele>316.2</ele>
        <time>2023-04-16T14:21:54Z</time>
      </trkpt>
      <trkpt lat="44.68294" lon="1.56494">
        <ele>316.1</ele>
        <time>2023-04-16T14:22:03Z</time>
      </trkpt>
      <trkpt lat="44.68293" lon="1.56506">
        <ele>316.3</ele>
        <time>2023-04-16T14:22:10Z</time>
      </trkpt>
      <trkpt lat="44.68291" lon="1.5652">
        <ele>317.1</ele>
        <time>2023-04-16T14:22:18Z</time>
      </trkpt>
      <trkpt lat="44.68287" lon="1.56532">
        <ele>318.5</ele>
        <time>2023-04-16T14:22:28Z</time>
      </trkpt>
      <trkpt lat="44.68279" lon="1.56538">
        <ele>319.9</ele>
        <time>2023-04-16T14:22:37Z</time>
      </trkpt>
      <trkpt lat="44.6827" lon="1.56542">
        <ele>320.6</ele>
        <time>2023-04-16T14:22:46Z</time>
      </trkpt>
      <trkpt lat="44.68261" lon="1.56549">
        <ele>321.8</ele>
        <time>2023-04-16T14:22:56Z</time>
      </trkpt>
      <trkpt lat="44.68253" lon="1.56556">
        <ele>323.1</ele>
        <time>2023-04-16T14:23:05Z</time>
      </trkpt>
      <trkpt lat="44.68245" lon="1.56566">
        <ele>324.7</ele>
        <time>2023-04-16T14:23:15Z</time>
      </trkpt>
      <trkpt lat="44.68239" lon="1.56575">
        <ele>326.4</ele>
        <time>2023-04-16T14:23:25Z</time>
      </trkpt>
      <trkpt lat="44.6823" lon="1.56583">
        <ele>327.9</ele>
        <time>2023-04-16T14:23:36Z</time>
      </trkpt>
      <trkpt lat="44.68225" lon="1.56593">
        <ele>330.1</ele>
        <time>2023-04-16T14:23:47Z</time>
      </trkpt>
      <trkpt lat="44.68218" lon="1.56603">
        <ele>332.1</ele>
        <time>2023-04-16T14:23:59Z</time>
      </trkpt>
      <trkpt lat="44.68214" lon="1.56615">
        <ele>334.3</ele>
        <time>2023-04-16T14:24:11Z</time>
      </trkpt>
      <trkpt lat="44.68212" lon="1.56629">
        <ele>336.4</ele>
        <time>2023-04-16T14:24:22Z</time>
      </trkpt>
      <trkpt lat="44.68211" lon="1.56642">
        <ele>338.3</ele>
        <time>2023-04-16T14:24:30Z</time>
      </trkpt>
      <trkpt lat="44.68212" lon="1.56656">
        <ele>339.8</ele>
        <time>2023-04-16T14:24:39Z</time>
      </trkpt>
      <trkpt lat="44.68212" lon="1.56669">
        <ele>341.3</ele>
        <time>2023-04-16T14:24:48Z</time>
      </trkpt>
      <trkpt lat="44.6821" lon="1.56682">
        <ele>342.6</ele>
        <time>2023-04-16T14:24:56Z</time>
      </trkpt>
      <trkpt lat="44.68208" lon="1.56695">
        <ele>344.2</ele>
        <time>2023-04-16T14:25:04Z</time>
      </trkpt>
      <trkpt lat="44.68204" lon="1.56707">
        <ele>345.7</ele>
        <time>2023-04-16T14:25:12Z</time>
      </trkpt>
      <trkpt lat="44.68198" lon="1.56717">
        <ele>347.1</ele>
        <time>2023-04-16T14:25:20Z</time>
      </trkpt>
      <trkpt lat="44.68191" lon="1.56727">
        <ele>348.5</ele>
        <time>2023-04-16T14:25:29Z</time>
      </trkpt>
      <trkpt lat="44.68184" lon="1.56735">
        <ele>349.5</ele>
        <time>2023-04-16T14:25:37Z</time>
      </trkpt>
      <trkpt lat="44.68177" lon="1.56746">
        <ele>350.8</ele>
        <time>2023-04-16T14:25:46Z</time>
      </trkpt>
      <trkpt lat="44.68171" lon="1.56756">
        <ele>352.2</ele>
        <time>2023-04-16T14:25:55Z</time>
      </trkpt>
      <trkpt lat="44.68164" lon="1.56766">
        <ele>353.3</ele>
        <time>2023-04-16T14:26:04Z</time>
      </trkpt>
      <trkpt lat="44.68158" lon="1.56778">
        <ele>354.6</ele>
        <time>2023-04-16T14:26:12Z</time>
      </trkpt>
      <trkpt lat="44.68153" lon="1.56789">
        <ele>355.4</ele>
        <time>2023-04-16T14:26:20Z</time>
      </trkpt>
      <trkpt lat="44.68148" lon="1.56802">
        <ele>356.2</ele>
        <time>2023-04-16T14:26:28Z</time>
      </trkpt>
      <trkpt lat="44.68143" lon="1.56813">
        <ele>357.2</ele>
        <time>2023-04-16T14:26:35Z</time>
      </trkpt>
      <trkpt lat="44.68138" lon="1.56825">
        <ele>358.5</ele>
        <time>2023-04-16T14:26:42Z</time>
      </trkpt>
      <trkpt lat="44.68132" lon="1.56836">
        <ele>359.4</ele>
        <time>2023-04-16T14:26:49Z</time>
      </trkpt>
      <trkpt lat="44.68126" lon="1.56845">
        <ele>360.1</ele>
        <time>2023-04-16T14:26:56Z</time>
      </trkpt>
      <trkpt lat="44.68119" lon="1.56853">
        <ele>361</ele>
        <time>2023-04-16T14:27:03Z</time>
      </trkpt>
      <trkpt lat="44.68113" lon="1.56864">
        <ele>361.9</ele>
        <time>2023-04-16T14:27:09Z</time>
      </trkpt>
      <trkpt lat="44.68106" lon="1.56875">
        <ele>362.3</ele>
        <time>2023-04-16T14:27:17Z</time>
      </trkpt>
      <trkpt lat="44.681" lon="1.56886">
        <ele>362.8</ele>
        <time>2023-04-16T14:27:25Z</time>
      </trkpt>
      <trkpt lat="44.68093" lon="1.56895">
        <ele>363.5</ele>
        <time>2023-04-16T14:27:37Z</time>
      </trkpt>
      <trkpt lat="44.68087" lon="1.56906">
        <ele>364.4</ele>
        <time>2023-04-16T14:27:44Z</time>
      </trkpt>
      <trkpt lat="44.68081" lon="1.56916">
        <ele>365.1</ele>
        <time>2023-04-16T14:27:51Z</time>
      </trkpt>
      <trkpt lat="44.68075" lon="1.56925">
        <ele>365.1</ele>
        <time>2023-04-16T14:27:58Z</time>
      </trkpt>
      <trkpt lat="44.68068" lon="1.56936">
        <ele>365.2</ele>
        <time>2023-04-16T14:28:05Z</time>
      </trkpt>
      <trkpt lat="44.68061" lon="1.56945">
        <ele>365.6</ele>
        <time>2023-04-16T14:28:13Z</time>
      </trkpt>
      <trkpt lat="44.68053" lon="1.5695">
        <ele>365.7</ele>
        <time>2023-04-16T14:28:21Z</time>
      </trkpt>
      <trkpt lat="44.68043" lon="1.56952">
        <ele>365.9</ele>
        <time>2023-04-16T14:28:29Z</time>
      </trkpt>
      <trkpt lat="44.68033" lon="1.56951">
        <ele>366.4</ele>
        <time>2023-04-16T14:28:38Z</time>
      </trkpt>
      <trkpt lat="44.68023" lon="1.56948">
        <ele>366.9</ele>
        <time>2023-04-16T14:28:46Z</time>
      </trkpt>
      <trkpt lat="44.68013" lon="1.56946">
        <ele>367.4</ele>
        <time>2023-04-16T14:28:53Z</time>
      </trkpt>
      <trkpt lat="44.68003" lon="1.56944">
        <ele>367.9</ele>
        <time>2023-04-16T14:29:00Z</time>
      </trkpt>
      <trkpt lat="44.67994" lon="1.56941">
        <ele>368</ele>
        <time>2023-04-16T14:29:12Z</time>
      </trkpt>
      <trkpt lat="44.67984" lon="1.56938">
        <ele>368.1</ele>
        <time>2023-04-16T14:29:21Z</time>
      </trkpt>
      <trkpt lat="44.67975" lon="1.56935">
        <ele>368.3</ele>
        <time>2023-04-16T14:29:29Z</time>
      </trkpt>
      <trkpt lat="44.67965" lon="1.56932">
        <ele>368.8</ele>
        <time>2023-04-16T14:29:37Z</time>
      </trkpt>
      <trkpt lat="44.67956" lon="1.5693">
        <ele>369.4</ele>
        <time>2023-04-16T14:29:46Z</time>
      </trkpt>
      <trkpt lat="44.67947" lon="1.56928">
        <ele>370</ele>
        <time>2023-04-16T14:29:54Z</time>
      </trkpt>
      <trkpt lat="44.67938" lon="1.56925">
        <ele>370.4</ele>
        <time>2023-04-16T14:30:02Z</time>
      </trkpt>
      <trkpt lat="44.67928" lon="1.56922">
        <ele>370.6</ele>
        <time>2023-04-16T14:30:10Z</time>
      </trkpt>
      <trkpt lat="44.67918" lon="1.5692">
        <ele>370.8</ele>
        <time>2023-04-16T14:30:18Z</time>
      </trkpt>
      <trkpt lat="44.67908" lon="1.56919">
        <ele>371.2</ele>
        <time>2023-04-16T14:30:26Z</time>
      </trkpt>
      <trkpt lat="44.67898" lon="1.56918">
        <ele>371.6</ele>
        <time>2023-04-16T14:30:34Z</time>
      </trkpt>
      <trkpt lat="44.67888" lon="1.56918">
        <ele>372</ele>
        <time>2023-04-16T14:30:42Z</time>
      </trkpt>
      <trkpt lat="44.67878" lon="1.56916">
        <ele>372.8</ele>
        <time>2023-04-16T14:30:50Z</time>
      </trkpt>
      <trkpt lat="44.67869" lon="1.56914">
        <ele>373.4</ele>
        <time>2023-04-16T14:30:57Z</time>
      </trkpt>
      <trkpt lat="44.6786" lon="1.56913">
        <ele>374</ele>
        <time>2023-04-16T14:31:04Z</time>
      </trkpt>
      <trkpt lat="44.67851" lon="1.56911">
        <ele>374.5</ele>
        <time>2023-04-16T14:31:13Z</time>
      </trkpt>
      <trkpt lat="44.67842" lon="1.5691">
        <ele>374.9</ele>
        <time>2023-04-16T14:31:22Z</time>
      </trkpt>
      <trkpt lat="44.67832" lon="1.56909">
        <ele>375.3</ele>
        <time>2023-04-16T14:31:30Z</time>
      </trkpt>
      <trkpt lat="44.67823" lon="1.56909">
        <ele>375.6</ele>
        <time>2023-04-16T14:31:38Z</time>
      </trkpt>
      <trkpt lat="44.67813" lon="1.56907">
        <ele>375.8</ele>
        <time>2023-04-16T14:31:46Z</time>
      </trkpt>
      <trkpt lat="44.67803" lon="1.56907">
        <ele>376</ele>
        <time>2023-04-16T14:31:54Z</time>
      </trkpt>
      <trkpt lat="44.67794" lon="1.56907">
        <ele>376</ele>
        <time>2023-04-16T14:32:01Z</time>
      </trkpt>
      <trkpt lat="44.67784" lon="1.56909">
        <ele>376</ele>
        <time>2023-04-16T14:32:09Z</time>
      </trkpt>
      <trkpt lat="44.67775" lon="1.56911">
        <ele>376.1</ele>
        <time>2023-04-16T14:32:16Z</time>
      </trkpt>
      <trkpt lat="44.67765" lon="1.56914">
        <ele>376.5</ele>
        <time>2023-04-16T14:32:25Z</time>
      </trkpt>
      <trkpt lat="44.67755" lon="1.56918">
        <ele>376.8</ele>
        <time>2023-04-16T14:32:34Z</time>
      </trkpt>
      <trkpt lat="44.67746" lon="1.56921">
        <ele>377</ele>
        <time>2023-04-16T14:32:42Z</time>
      </trkpt>
      <trkpt lat="44.67737" lon="1.56921">
        <ele>377.3</ele>
        <time>2023-04-16T14:32:50Z</time>
      </trkpt>
      <trkpt lat="44.67728" lon="1.56923">
        <ele>377.6</ele>
        <time>2023-04-16T14:32:58Z</time>
      </trkpt>
      <trkpt lat="44.67719" lon="1.56926">
        <ele>377.9</ele>
        <time>2023-04-16T14:33:05Z</time>
      </trkpt>
      <trkpt lat="44.67709" lon="1.56928">
        <ele>378.3</ele>
        <time>2023-04-16T14:33:12Z</time>
      </trkpt>
      <trkpt lat="44.677" lon="1.5693">
        <ele>378.7</ele>
        <time>2023-04-16T14:33:20Z</time>
      </trkpt>
      <trkpt lat="44.67691" lon="1.56933">
        <ele>379</ele>
        <time>2023-04-16T14:33:28Z</time>
      </trkpt>
      <trkpt lat="44.67682" lon="1.56939">
        <ele>379.2</ele>
        <time>2023-04-16T14:33:36Z</time>
      </trkpt>
      <trkpt lat="44.67674" lon="1.56946">
        <ele>379.3</ele>
        <time>2023-04-16T14:33:44Z</time>
      </trkpt>
      <trkpt lat="44.67666" lon="1.56952">
        <ele>379.2</ele>
        <time>2023-04-16T14:33:51Z</time>
      </trkpt>
      <trkpt lat="44.67658" lon="1.56959">
        <ele>379.2</ele>
        <time>2023-04-16T14:33:59Z</time>
      </trkpt>
      <trkpt lat="44.67649" lon="1.56966">
        <ele>379.5</ele>
        <time>2023-04-16T14:34:07Z</time>
      </trkpt>
      <trkpt lat="44.67641" lon="1.56973">
        <ele>379.7</ele>
        <time>2023-04-16T14:34:15Z</time>
      </trkpt>
      <trkpt lat="44.67633" lon="1.56981">
        <ele>379.1</ele>
        <time>2023-04-16T14:34:23Z</time>
      </trkpt>
      <trkpt lat="44.67624" lon="1.56986">
        <ele>379.1</ele>
        <time>2023-04-16T14:34:31Z</time>
      </trkpt>
      <trkpt lat="44.67616" lon="1.56992">
        <ele>379.1</ele>
        <time>2023-04-16T14:34:38Z</time>
      </trkpt>
      <trkpt lat="44.67608" lon="1.56997">
        <ele>379.4</ele>
        <time>2023-04-16T14:34:46Z</time>
      </trkpt>
      <trkpt lat="44.67599" lon="1.57001">
        <ele>379.9</ele>
        <time>2023-04-16T14:34:53Z</time>
      </trkpt>
      <trkpt lat="44.67589" lon="1.57004">
        <ele>380.3</ele>
        <time>2023-04-16T14:35:00Z</time>
      </trkpt>
      <trkpt lat="44.67579" lon="1.57007">
        <ele>380.5</ele>
        <time>2023-04-16T14:35:07Z</time>
      </trkpt>
      <trkpt lat="44.6757" lon="1.57012">
        <ele>380.4</ele>
        <time>2023-04-16T14:35:14Z</time>
      </trkpt>
      <trkpt lat="44.6756" lon="1.57015">
        <ele>380.4</ele>
        <time>2023-04-16T14:35:22Z</time>
      </trkpt>
      <trkpt lat="44.67551" lon="1.5702">
        <ele>380.2</ele>
        <time>2023-04-16T14:35:29Z</time>
      </trkpt>
      <trkpt lat="44.67543" lon="1.57027">
        <ele>380</ele>
        <time>2023-04-16T14:35:37Z</time>
      </trkpt>
      <trkpt lat="44.67534" lon="1.57033">
        <ele>379.9</ele>
        <time>2023-04-16T14:35:45Z</time>
      </trkpt>
      <trkpt lat="44.67527" lon="1.57042">
        <ele>380</ele>
        <time>2023-04-16T14:35:52Z</time>
      </trkpt>
      <trkpt lat="44.6752" lon="1.57053">
        <ele>380</ele>
        <time>2023-04-16T14:36:01Z</time>
      </trkpt>
      <trkpt lat="44.67515" lon="1.57063">
        <ele>380</ele>
        <time>2023-04-16T14:36:09Z</time>
      </trkpt>
      <trkpt lat="44.6751" lon="1.57075">
        <ele>380.2</ele>
        <time>2023-04-16T14:36:18Z</time>
      </trkpt>
      <trkpt lat="44.67505" lon="1.57085">
        <ele>380.4</ele>
        <time>2023-04-16T14:36:26Z</time>
      </trkpt>
      <trkpt lat="44.675" lon="1.57098">
        <ele>379.4</ele>
        <time>2023-04-16T14:36:34Z</time>
      </trkpt>
      <trkpt lat="44.67494" lon="1.57109">
        <ele>378.2</ele>
        <time>2023-04-16T14:36:43Z</time>
      </trkpt>
      <trkpt lat="44.67488" lon="1.57119">
        <ele>377.2</ele>
        <time>2023-04-16T14:36:51Z</time>
      </trkpt>
      <trkpt lat="44.67483" lon="1.57131">
        <ele>376.3</ele>
        <time>2023-04-16T14:36:59Z</time>
      </trkpt>
      <trkpt lat="44.67478" lon="1.57143">
        <ele>376.7</ele>
        <time>2023-04-16T14:37:07Z</time>
      </trkpt>
      <trkpt lat="44.67473" lon="1.57155">
        <ele>379.4</ele>
        <time>2023-04-16T14:37:14Z</time>
      </trkpt>
      <trkpt lat="44.67469" lon="1.57166">
        <ele>382.2</ele>
        <time>2023-04-16T14:37:22Z</time>
      </trkpt>
      <trkpt lat="44.67463" lon="1.57177">
        <ele>382.8</ele>
        <time>2023-04-16T14:37:30Z</time>
      </trkpt>
      <trkpt lat="44.67459" lon="1.57188">
        <ele>383.1</ele>
        <time>2023-04-16T14:38:55Z</time>
      </trkpt>
      <trkpt lat="44.67456" lon="1.57202">
        <ele>383.6</ele>
        <time>2023-04-16T14:39:03Z</time>
      </trkpt>
      <trkpt lat="44.67449" lon="1.57212">
        <ele>384.5</ele>
        <time>2023-04-16T14:39:12Z</time>
      </trkpt>
      <trkpt lat="44.67442" lon="1.57222">
        <ele>385.2</ele>
        <time>2023-04-16T14:39:21Z</time>
      </trkpt>
      <trkpt lat="44.67434" lon="1.5723">
        <ele>386.4</ele>
        <time>2023-04-16T14:39:30Z</time>
      </trkpt>
      <trkpt lat="44.67426" lon="1.57235">
        <ele>387.1</ele>
        <time>2023-04-16T14:39:38Z</time>
      </trkpt>
      <trkpt lat="44.67417" lon="1.5724">
        <ele>387.6</ele>
        <time>2023-04-16T14:39:46Z</time>
      </trkpt>
      <trkpt lat="44.67408" lon="1.57243">
        <ele>387.9</ele>
        <time>2023-04-16T14:39:55Z</time>
      </trkpt>
      <trkpt lat="44.67399" lon="1.57245">
        <ele>388</ele>
        <time>2023-04-16T14:40:03Z</time>
      </trkpt>
      <trkpt lat="44.67389" lon="1.57247">
        <ele>388.1</ele>
        <time>2023-04-16T14:40:11Z</time>
      </trkpt>
      <trkpt lat="44.67379" lon="1.57249">
        <ele>388.4</ele>
        <time>2023-04-16T14:40:20Z</time>
      </trkpt>
      <trkpt lat="44.6737" lon="1.57252">
        <ele>388.9</ele>
        <time>2023-04-16T14:40:28Z</time>
      </trkpt>
      <trkpt lat="44.6736" lon="1.57255">
        <ele>389.5</ele>
        <time>2023-04-16T14:40:36Z</time>
      </trkpt>
      <trkpt lat="44.67351" lon="1.57257">
        <ele>390</ele>
        <time>2023-04-16T14:40:44Z</time>
      </trkpt>
      <trkpt lat="44.67341" lon="1.5726">
        <ele>390.6</ele>
        <time>2023-04-16T14:40:53Z</time>
      </trkpt>
      <trkpt lat="44.67332" lon="1.57263">
        <ele>390.9</ele>
        <time>2023-04-16T14:41:01Z</time>
      </trkpt>
      <trkpt lat="44.67323" lon="1.57266">
        <ele>391.2</ele>
        <time>2023-04-16T14:41:09Z</time>
      </trkpt>
      <trkpt lat="44.67314" lon="1.57269">
        <ele>391.3</ele>
        <time>2023-04-16T14:41:17Z</time>
      </trkpt>
      <trkpt lat="44.67304" lon="1.57272">
        <ele>391.5</ele>
        <time>2023-04-16T14:41:25Z</time>
      </trkpt>
      <trkpt lat="44.67294" lon="1.57275">
        <ele>391.7</ele>
        <time>2023-04-16T14:41:33Z</time>
      </trkpt>
      <trkpt lat="44.67285" lon="1.57279">
        <ele>392.1</ele>
        <time>2023-04-16T14:41:40Z</time>
      </trkpt>
      <trkpt lat="44.67275" lon="1.57282">
        <ele>392.3</ele>
        <time>2023-04-16T14:41:48Z</time>
      </trkpt>
      <trkpt lat="44.67266" lon="1.57286">
        <ele>392.7</ele>
        <time>2023-04-16T14:41:56Z</time>
      </trkpt>
      <trkpt lat="44.67256" lon="1.57289">
        <ele>393.1</ele>
        <time>2023-04-16T14:42:04Z</time>
      </trkpt>
      <trkpt lat="44.67247" lon="1.57293">
        <ele>393.6</ele>
        <time>2023-04-16T14:42:11Z</time>
      </trkpt>
      <trkpt lat="44.67238" lon="1.57297">
        <ele>393.9</ele>
        <time>2023-04-16T14:42:19Z</time>
      </trkpt>
      <trkpt lat="44.67229" lon="1.573">
        <ele>394.3</ele>
        <time>2023-04-16T14:42:27Z</time>
      </trkpt>
      <trkpt lat="44.6722" lon="1.57302">
        <ele>394.5</ele>
        <time>2023-04-16T14:42:35Z</time>
      </trkpt>
      <trkpt lat="44.67211" lon="1.57308">
        <ele>395.2</ele>
        <time>2023-04-16T14:42:43Z</time>
      </trkpt>
      <trkpt lat="44.67202" lon="1.57315">
        <ele>395.9</ele>
        <time>2023-04-16T14:42:51Z</time>
      </trkpt>
      <trkpt lat="44.67195" lon="1.57322">
        <ele>396.8</ele>
        <time>2023-04-16T14:42:59Z</time>
      </trkpt>
      <trkpt lat="44.67186" lon="1.57329">
        <ele>397.5</ele>
        <time>2023-04-16T14:43:07Z</time>
      </trkpt>
      <trkpt lat="44.67178" lon="1.57336">
        <ele>398.2</ele>
        <time>2023-04-16T14:43:15Z</time>
      </trkpt>
      <trkpt lat="44.6717" lon="1.57344">
        <ele>398.8</ele>
        <time>2023-04-16T14:43:23Z</time>
      </trkpt>
      <trkpt lat="44.67162" lon="1.57353">
        <ele>399.4</ele>
        <time>2023-04-16T14:43:31Z</time>
      </trkpt>
      <trkpt lat="44.67155" lon="1.57361">
        <ele>400</ele>
        <time>2023-04-16T14:43:39Z</time>
      </trkpt>
      <trkpt lat="44.67148" lon="1.57369">
        <ele>400.5</ele>
        <time>2023-04-16T14:43:47Z</time>
      </trkpt>
      <trkpt lat="44.6714" lon="1.57377">
        <ele>401.1</ele>
        <time>2023-04-16T14:43:55Z</time>
      </trkpt>
      <trkpt lat="44.67131" lon="1.57384">
        <ele>401.7</ele>
        <time>2023-04-16T14:44:04Z</time>
      </trkpt>
      <trkpt lat="44.67122" lon="1.5739">
        <ele>402.1</ele>
        <time>2023-04-16T14:44:12Z</time>
      </trkpt>
      <trkpt lat="44.67114" lon="1.57397">
        <ele>402.5</ele>
        <time>2023-04-16T14:44:20Z</time>
      </trkpt>
      <trkpt lat="44.67105" lon="1.57403">
        <ele>403.1</ele>
        <time>2023-04-16T14:44:29Z</time>
      </trkpt>
      <trkpt lat="44.67096" lon="1.57407">
        <ele>403.5</ele>
        <time>2023-04-16T14:44:37Z</time>
      </trkpt>
      <trkpt lat="44.67087" lon="1.57409">
        <ele>403.7</ele>
        <time>2023-04-16T14:53:13Z</time>
      </trkpt>
      <trkpt lat="44.67078" lon="1.57409">
        <ele>403.9</ele>
        <time>2023-04-16T14:53:21Z</time>
      </trkpt>
      <trkpt lat="44.67069" lon="1.57407">
        <ele>404</ele>
        <time>2023-04-16T14:53:28Z</time>
      </trkpt>
      <trkpt lat="44.67059" lon="1.57403">
        <ele>404</ele>
        <time>2023-04-16T14:53:36Z</time>
      </trkpt>
      <trkpt lat="44.6705" lon="1.57401">
        <ele>404.1</ele>
        <time>2023-04-16T14:53:44Z</time>
      </trkpt>
      <trkpt lat="44.67041" lon="1.57396">
        <ele>404.3</ele>
        <time>2023-04-16T14:53:52Z</time>
      </trkpt>
      <trkpt lat="44.67032" lon="1.57393">
        <ele>404.7</ele>
        <time>2023-04-16T14:53:59Z</time>
      </trkpt>
      <trkpt lat="44.67022" lon="1.5739">
        <ele>405.2</ele>
        <time>2023-04-16T14:54:07Z</time>
      </trkpt>
      <trkpt lat="44.67012" lon="1.57387">
        <ele>405.5</ele>
        <time>2023-04-16T14:54:16Z</time>
      </trkpt>
      <trkpt lat="44.67003" lon="1.57383">
        <ele>405.7</ele>
        <time>2023-04-16T14:54:24Z</time>
      </trkpt>
      <trkpt lat="44.66994" lon="1.5738">
        <ele>406.1</ele>
        <time>2023-04-16T14:54:32Z</time>
      </trkpt>
      <trkpt lat="44.66985" lon="1.57375">
        <ele>406.6</ele>
        <time>2023-04-16T14:54:40Z</time>
      </trkpt>
      <trkpt lat="44.66976" lon="1.57371">
        <ele>407.3</ele>
        <time>2023-04-16T14:54:48Z</time>
      </trkpt>
      <trkpt lat="44.66966" lon="1.57367">
        <ele>408</ele>
        <time>2023-04-16T14:54:57Z</time>
      </trkpt>
      <trkpt lat="44.66958" lon="1.57362">
        <ele>408.5</ele>
        <time>2023-04-16T14:55:05Z</time>
      </trkpt>
      <trkpt lat="44.66949" lon="1.57357">
        <ele>409.2</ele>
        <time>2023-04-16T14:55:13Z</time>
      </trkpt>
      <trkpt lat="44.6694" lon="1.57352">
        <ele>410</ele>
        <time>2023-04-16T14:55:22Z</time>
      </trkpt>
      <trkpt lat="44.6693" lon="1.57347">
        <ele>410.5</ele>
        <time>2023-04-16T14:55:32Z</time>
      </trkpt>
      <trkpt lat="44.66922" lon="1.5734">
        <ele>411.3</ele>
        <time>2023-04-16T14:55:41Z</time>
      </trkpt>
      <trkpt lat="44.66913" lon="1.57333">
        <ele>412</ele>
        <time>2023-04-16T14:55:50Z</time>
      </trkpt>
      <trkpt lat="44.66903" lon="1.57331">
        <ele>412.1</ele>
        <time>2023-04-16T14:55:59Z</time>
      </trkpt>
      <trkpt lat="44.66894" lon="1.57329">
        <ele>412.3</ele>
        <time>2023-04-16T14:56:24Z</time>
      </trkpt>
      <trkpt lat="44.66886" lon="1.57335">
        <ele>412</ele>
        <time>2023-04-16T14:56:41Z</time>
      </trkpt>
      <trkpt lat="44.66877" lon="1.57341">
        <ele>411.6</ele>
        <time>2023-04-16T14:56:48Z</time>
      </trkpt>
      <trkpt lat="44.66869" lon="1.57346">
        <ele>411.4</ele>
        <time>2023-04-16T14:56:55Z</time>
      </trkpt>
      <trkpt lat="44.6686" lon="1.57351">
        <ele>411.1</ele>
        <time>2023-04-16T14:57:02Z</time>
      </trkpt>
      <trkpt lat="44.66851" lon="1.57352">
        <ele>411.1</ele>
        <time>2023-04-16T14:57:09Z</time>
      </trkpt>
      <trkpt lat="44.66841" lon="1.57351">
        <ele>411.3</ele>
        <time>2023-04-16T14:57:17Z</time>
      </trkpt>
      <trkpt lat="44.66831" lon="1.5735">
        <ele>411.2</ele>
        <time>2023-04-16T14:57:24Z</time>
      </trkpt>
      <trkpt lat="44.66821" lon="1.57348">
        <ele>410.4</ele>
        <time>2023-04-16T14:57:32Z</time>
      </trkpt>
      <trkpt lat="44.66812" lon="1.57345">
        <ele>409.8</ele>
        <time>2023-04-16T14:57:39Z</time>
      </trkpt>
      <trkpt lat="44.66803" lon="1.57343">
        <ele>409.2</ele>
        <time>2023-04-16T14:57:46Z</time>
      </trkpt>
      <trkpt lat="44.66794" lon="1.57343">
        <ele>408.7</ele>
        <time>2023-04-16T14:57:52Z</time>
      </trkpt>
      <trkpt lat="44.66784" lon="1.57341">
        <ele>408.5</ele>
        <time>2023-04-16T14:57:59Z</time>
      </trkpt>
      <trkpt lat="44.66774" lon="1.5734">
        <ele>408</ele>
        <time>2023-04-16T14:58:07Z</time>
      </trkpt>
      <trkpt lat="44.66765" lon="1.5734">
        <ele>407.3</ele>
        <time>2023-04-16T14:58:15Z</time>
      </trkpt>
      <trkpt lat="44.66755" lon="1.57342">
        <ele>406.4</ele>
        <time>2023-04-16T14:58:22Z</time>
      </trkpt>
      <trkpt lat="44.66745" lon="1.57344">
        <ele>405.5</ele>
        <time>2023-04-16T14:58:29Z</time>
      </trkpt>
      <trkpt lat="44.66736" lon="1.57346">
        <ele>404.9</ele>
        <time>2023-04-16T14:58:36Z</time>
      </trkpt>
      <trkpt lat="44.66727" lon="1.57349">
        <ele>404.1</ele>
        <time>2023-04-16T14:58:43Z</time>
      </trkpt>
      <trkpt lat="44.66718" lon="1.57352">
        <ele>403.7</ele>
        <time>2023-04-16T14:58:51Z</time>
      </trkpt>
      <trkpt lat="44.66708" lon="1.57353">
        <ele>403.6</ele>
        <time>2023-04-16T14:59:09Z</time>
      </trkpt>
      <trkpt lat="44.66699" lon="1.57356">
        <ele>403.4</ele>
        <time>2023-04-16T14:59:18Z</time>
      </trkpt>
      <trkpt lat="44.6669" lon="1.57359">
        <ele>403.6</ele>
        <time>2023-04-16T14:59:26Z</time>
      </trkpt>
      <trkpt lat="44.66681" lon="1.57363">
        <ele>404.3</ele>
        <time>2023-04-16T14:59:33Z</time>
      </trkpt>
      <trkpt lat="44.66672" lon="1.57367">
        <ele>405.2</ele>
        <time>2023-04-16T14:59:40Z</time>
      </trkpt>
      <trkpt lat="44.66664" lon="1.57371">
        <ele>405.9</ele>
        <time>2023-04-16T14:59:48Z</time>
      </trkpt>
      <trkpt lat="44.66655" lon="1.57378">
        <ele>406.5</ele>
        <time>2023-04-16T14:59:56Z</time>
      </trkpt>
      <trkpt lat="44.66646" lon="1.57382">
        <ele>407.3</ele>
        <time>2023-04-16T15:00:05Z</time>
      </trkpt>
      <trkpt lat="44.66637" lon="1.57386">
        <ele>408.1</ele>
        <time>2023-04-16T15:00:13Z</time>
      </trkpt>
      <trkpt lat="44.66628" lon="1.57391">
        <ele>408.6</ele>
        <time>2023-04-16T15:00:21Z</time>
      </trkpt>
      <trkpt lat="44.66619" lon="1.57394">
        <ele>409</ele>
        <time>2023-04-16T15:00:29Z</time>
      </trkpt>
      <trkpt lat="44.66609" lon="1.57398">
        <ele>409.4</ele>
        <time>2023-04-16T15:00:37Z</time>
      </trkpt>
      <trkpt lat="44.666" lon="1.57403">
        <ele>409.2</ele>
        <time>2023-04-16T15:00:45Z</time>
      </trkpt>
      <trkpt lat="44.66591" lon="1.57409">
        <ele>409.1</ele>
        <time>2023-04-16T15:00:53Z</time>
      </trkpt>
      <trkpt lat="44.66583" lon="1.57415">
        <ele>409</ele>
        <time>2023-04-16T15:01:00Z</time>
      </trkpt>
      <trkpt lat="44.66574" lon="1.5742">
        <ele>408.4</ele>
        <time>2023-04-16T15:01:08Z</time>
      </trkpt>
      <trkpt lat="44.66564" lon="1.57423">
        <ele>407.8</ele>
        <time>2023-04-16T15:01:17Z</time>
      </trkpt>
      <trkpt lat="44.66555" lon="1.57422">
        <ele>407.6</ele>
        <time>2023-04-16T15:01:26Z</time>
      </trkpt>
      <trkpt lat="44.66546" lon="1.57426">
        <ele>406.6</ele>
        <time>2023-04-16T15:01:34Z</time>
      </trkpt>
      <trkpt lat="44.66536" lon="1.5743">
        <ele>405.7</ele>
        <time>2023-04-16T15:01:41Z</time>
      </trkpt>
      <trkpt lat="44.66526" lon="1.57432">
        <ele>404.8</ele>
        <time>2023-04-16T15:01:49Z</time>
      </trkpt>
      <trkpt lat="44.66517" lon="1.57434">
        <ele>404.1</ele>
        <time>2023-04-16T15:01:56Z</time>
      </trkpt>
      <trkpt lat="44.66508" lon="1.57434">
        <ele>403.6</ele>
        <time>2023-04-16T15:02:03Z</time>
      </trkpt>
      <trkpt lat="44.66498" lon="1.57432">
        <ele>403.2</ele>
        <time>2023-04-16T15:02:10Z</time>
      </trkpt>
      <trkpt lat="44.66488" lon="1.57432">
        <ele>402.6</ele>
        <time>2023-04-16T15:02:19Z</time>
      </trkpt>
      <trkpt lat="44.66478" lon="1.57433">
        <ele>402</ele>
        <time>2023-04-16T15:02:27Z</time>
      </trkpt>
      <trkpt lat="44.66469" lon="1.57432">
        <ele>401.7</ele>
        <time>2023-04-16T15:02:35Z</time>
      </trkpt>
      <trkpt lat="44.66459" lon="1.57432">
        <ele>401.3</ele>
        <time>2023-04-16T15:02:42Z</time>
      </trkpt>
      <trkpt lat="44.6645" lon="1.57434">
        <ele>400.7</ele>
        <time>2023-04-16T15:02:50Z</time>
      </trkpt>
      <trkpt lat="44.6644" lon="1.57439">
        <ele>399.5</ele>
        <time>2023-04-16T15:02:58Z</time>
      </trkpt>
      <trkpt lat="44.66433" lon="1.57446">
        <ele>397.8</ele>
        <time>2023-04-16T15:03:07Z</time>
      </trkpt>
      <trkpt lat="44.66424" lon="1.57454">
        <ele>395.8</ele>
        <time>2023-04-16T15:03:15Z</time>
      </trkpt>
      <trkpt lat="44.66415" lon="1.57459">
        <ele>394.4</ele>
        <time>2023-04-16T15:03:22Z</time>
      </trkpt>
      <trkpt lat="44.66407" lon="1.57465">
        <ele>394</ele>
        <time>2023-04-16T15:03:29Z</time>
      </trkpt>
      <trkpt lat="44.66398" lon="1.5747">
        <ele>393.7</ele>
        <time>2023-04-16T15:03:36Z</time>
      </trkpt>
      <trkpt lat="44.66389" lon="1.57475">
        <ele>393.2</ele>
        <time>2023-04-16T15:03:44Z</time>
      </trkpt>
      <trkpt lat="44.6638" lon="1.57479">
        <ele>392.2</ele>
        <time>2023-04-16T15:03:52Z</time>
      </trkpt>
      <trkpt lat="44.66371" lon="1.57482">
        <ele>391.2</ele>
        <time>2023-04-16T15:04:01Z</time>
      </trkpt>
      <trkpt lat="44.66362" lon="1.57484">
        <ele>390.5</ele>
        <time>2023-04-16T15:04:09Z</time>
      </trkpt>
      <trkpt lat="44.66351" lon="1.57484">
        <ele>389.9</ele>
        <time>2023-04-16T15:04:18Z</time>
      </trkpt>
      <trkpt lat="44.66342" lon="1.57483">
        <ele>389.6</ele>
        <time>2023-04-16T15:04:26Z</time>
      </trkpt>
      <trkpt lat="44.66332" lon="1.5748">
        <ele>389.6</ele>
        <time>2023-04-16T15:04:35Z</time>
      </trkpt>
      <trkpt lat="44.66323" lon="1.57481">
        <ele>388.3</ele>
        <time>2023-04-16T15:04:42Z</time>
      </trkpt>
      <trkpt lat="44.66313" lon="1.57482">
        <ele>387.4</ele>
        <time>2023-04-16T15:04:51Z</time>
      </trkpt>
      <trkpt lat="44.66303" lon="1.57481">
        <ele>386.5</ele>
        <time>2023-04-16T15:04:59Z</time>
      </trkpt>
      <trkpt lat="44.66293" lon="1.57482">
        <ele>385.4</ele>
        <time>2023-04-16T15:05:07Z</time>
      </trkpt>
      <trkpt lat="44.66284" lon="1.57486">
        <ele>383.6</ele>
        <time>2023-04-16T15:05:16Z</time>
      </trkpt>
      <trkpt lat="44.66274" lon="1.57487">
        <ele>382.5</ele>
        <time>2023-04-16T15:05:24Z</time>
      </trkpt>
      <trkpt lat="44.66264" lon="1.57491">
        <ele>381.2</ele>
        <time>2023-04-16T15:05:32Z</time>
      </trkpt>
      <trkpt lat="44.66255" lon="1.57494">
        <ele>380.2</ele>
        <time>2023-04-16T15:05:40Z</time>
      </trkpt>
      <trkpt lat="44.66246" lon="1.57498">
        <ele>379.1</ele>
        <time>2023-04-16T15:05:47Z</time>
      </trkpt>
      <trkpt lat="44.66237" lon="1.57503">
        <ele>378.3</ele>
        <time>2023-04-16T15:05:55Z</time>
      </trkpt>
      <trkpt lat="44.6623" lon="1.57511">
        <ele>377.7</ele>
        <time>2023-04-16T15:06:04Z</time>
      </trkpt>
      <trkpt lat="44.66224" lon="1.57521">
        <ele>377.2</ele>
        <time>2023-04-16T15:06:12Z</time>
      </trkpt>
      <trkpt lat="44.66219" lon="1.57532">
        <ele>376.6</ele>
        <time>2023-04-16T15:06:20Z</time>
      </trkpt>
      <trkpt lat="44.66214" lon="1.57545">
        <ele>375.8</ele>
        <time>2023-04-16T15:06:30Z</time>
      </trkpt>
      <trkpt lat="44.6621" lon="1.57558">
        <ele>375.5</ele>
        <time>2023-04-16T15:06:37Z</time>
      </trkpt>
      <trkpt lat="44.66206" lon="1.57571">
        <ele>376.1</ele>
        <time>2023-04-16T15:06:45Z</time>
      </trkpt>
      <trkpt lat="44.66202" lon="1.57584">
        <ele>376.8</ele>
        <time>2023-04-16T15:06:53Z</time>
      </trkpt>
      <trkpt lat="44.66199" lon="1.57597">
        <ele>378</ele>
        <time>2023-04-16T15:07:03Z</time>
      </trkpt>
      <trkpt lat="44.66198" lon="1.5761">
        <ele>379.1</ele>
        <time>2023-04-16T15:07:13Z</time>
      </trkpt>
      <trkpt lat="44.66193" lon="1.57621">
        <ele>380.1</ele>
        <time>2023-04-16T15:07:24Z</time>
      </trkpt>
      <trkpt lat="44.66185" lon="1.57625">
        <ele>380.7</ele>
        <time>2023-04-16T15:12:32Z</time>
      </trkpt>
      <trkpt lat="44.66177" lon="1.57616">
        <ele>380</ele>
        <time>2023-04-16T15:12:40Z</time>
      </trkpt>
      <trkpt lat="44.66171" lon="1.57605">
        <ele>379.4</ele>
        <time>2023-04-16T15:12:50Z</time>
      </trkpt>
      <trkpt lat="44.66164" lon="1.57595">
        <ele>379.1</ele>
        <time>2023-04-16T15:12:59Z</time>
      </trkpt>
      <trkpt lat="44.66156" lon="1.57588">
        <ele>379.5</ele>
        <time>2023-04-16T15:13:06Z</time>
      </trkpt>
      <trkpt lat="44.66147" lon="1.57582">
        <ele>380</ele>
        <time>2023-04-16T15:13:14Z</time>
      </trkpt>
      <trkpt lat="44.6614" lon="1.57574">
        <ele>379.9</ele>
        <time>2023-04-16T15:13:21Z</time>
      </trkpt>
      <trkpt lat="44.66132" lon="1.57567">
        <ele>380.2</ele>
        <time>2023-04-16T15:13:28Z</time>
      </trkpt>
      <trkpt lat="44.66124" lon="1.5756">
        <ele>380.5</ele>
        <time>2023-04-16T15:13:35Z</time>
      </trkpt>
      <trkpt lat="44.66117" lon="1.57553">
        <ele>380.9</ele>
        <time>2023-04-16T15:13:43Z</time>
      </trkpt>
      <trkpt lat="44.66109" lon="1.57546">
        <ele>380.8</ele>
        <time>2023-04-16T15:13:51Z</time>
      </trkpt>
      <trkpt lat="44.66101" lon="1.57536">
        <ele>380.6</ele>
        <time>2023-04-16T15:14:00Z</time>
      </trkpt>
      <trkpt lat="44.66094" lon="1.57527">
        <ele>380.4</ele>
        <time>2023-04-16T15:14:08Z</time>
      </trkpt>
      <trkpt lat="44.66086" lon="1.57519">
        <ele>380.8</ele>
        <time>2023-04-16T15:14:16Z</time>
      </trkpt>
      <trkpt lat="44.66077" lon="1.57513">
        <ele>381.3</ele>
        <time>2023-04-16T15:14:24Z</time>
      </trkpt>
      <trkpt lat="44.66068" lon="1.57507">
        <ele>381.9</ele>
        <time>2023-04-16T15:14:32Z</time>
      </trkpt>
      <trkpt lat="44.6606" lon="1.57502">
        <ele>382.6</ele>
        <time>2023-04-16T15:14:42Z</time>
      </trkpt>
      <trkpt lat="44.66051" lon="1.57495">
        <ele>383</ele>
        <time>2023-04-16T15:14:50Z</time>
      </trkpt>
      <trkpt lat="44.66043" lon="1.57487">
        <ele>383.3</ele>
        <time>2023-04-16T15:15:00Z</time>
      </trkpt>
      <trkpt lat="44.66034" lon="1.57482">
        <ele>383.6</ele>
        <time>2023-04-16T15:15:08Z</time>
      </trkpt>
      <trkpt lat="44.66025" lon="1.57476">
        <ele>383.8</ele>
        <time>2023-04-16T15:15:16Z</time>
      </trkpt>
      <trkpt lat="44.66016" lon="1.57469">
        <ele>383.5</ele>
        <time>2023-04-16T15:15:24Z</time>
      </trkpt>
      <trkpt lat="44.66006" lon="1.57468">
        <ele>384.2</ele>
        <time>2023-04-16T15:15:33Z</time>
      </trkpt>
      <trkpt lat="44.65996" lon="1.57474">
        <ele>385</ele>
        <time>2023-04-16T15:15:41Z</time>
      </trkpt>
      <trkpt lat="44.65988" lon="1.57479">
        <ele>385.3</ele>
        <time>2023-04-16T15:15:50Z</time>
      </trkpt>
      <trkpt lat="44.6598" lon="1.57486">
        <ele>385.8</ele>
        <time>2023-04-16T15:15:58Z</time>
      </trkpt>
      <trkpt lat="44.65972" lon="1.57493">
        <ele>386.3</ele>
        <time>2023-04-16T15:16:07Z</time>
      </trkpt>
      <trkpt lat="44.65965" lon="1.57501">
        <ele>386.8</ele>
        <time>2023-04-16T15:16:15Z</time>
      </trkpt>
      <trkpt lat="44.65956" lon="1.57508">
        <ele>387.1</ele>
        <time>2023-04-16T15:16:23Z</time>
      </trkpt>
      <trkpt lat="44.6595" lon="1.57517">
        <ele>387.5</ele>
        <time>2023-04-16T15:16:31Z</time>
      </trkpt>
      <trkpt lat="44.65943" lon="1.57528">
        <ele>388.1</ele>
        <time>2023-04-16T15:16:39Z</time>
      </trkpt>
      <trkpt lat="44.65936" lon="1.57539">
        <ele>389.2</ele>
        <time>2023-04-16T15:16:49Z</time>
      </trkpt>
      <trkpt lat="44.65928" lon="1.57545">
        <ele>389.7</ele>
        <time>2023-04-16T15:16:58Z</time>
      </trkpt>
      <trkpt lat="44.65924" lon="1.57532">
        <ele>389</ele>
        <time>2023-04-16T15:19:24Z</time>
      </trkpt>
      <trkpt lat="44.65926" lon="1.57519">
        <ele>388.3</ele>
        <time>2023-04-16T15:19:46Z</time>
      </trkpt>
      <trkpt lat="44.65926" lon="1.57505">
        <ele>387.6</ele>
        <time>2023-04-16T15:19:58Z</time>
      </trkpt>
      <trkpt lat="44.65922" lon="1.57492">
        <ele>387.2</ele>
        <time>2023-04-16T15:20:08Z</time>
      </trkpt>
      <trkpt lat="44.65919" lon="1.5748">
        <ele>387.1</ele>
        <time>2023-04-16T15:20:16Z</time>
      </trkpt>
      <trkpt lat="44.65919" lon="1.57466">
        <ele>386.3</ele>
        <time>2023-04-16T15:20:24Z</time>
      </trkpt>
      <trkpt lat="44.65917" lon="1.57452">
        <ele>385.6</ele>
        <time>2023-04-16T15:20:31Z</time>
      </trkpt>
      <trkpt lat="44.65914" lon="1.57439">
        <ele>385</ele>
        <time>2023-04-16T15:20:38Z</time>
      </trkpt>
      <trkpt lat="44.65913" lon="1.57426">
        <ele>384.7</ele>
        <time>2023-04-16T15:20:45Z</time>
      </trkpt>
      <trkpt lat="44.65908" lon="1.57414">
        <ele>384.8</ele>
        <time>2023-04-16T15:20:52Z</time>
      </trkpt>
      <trkpt lat="44.65906" lon="1.57401">
        <ele>384.5</ele>
        <time>2023-04-16T15:21:01Z</time>
      </trkpt>
      <trkpt lat="44.65906" lon="1.57388">
        <ele>384.1</ele>
        <time>2023-04-16T15:21:09Z</time>
      </trkpt>
      <trkpt lat="44.65907" lon="1.57375">
        <ele>383.9</ele>
        <time>2023-04-16T15:21:18Z</time>
      </trkpt>
      <trkpt lat="44.65903" lon="1.57363">
        <ele>384</ele>
        <time>2023-04-16T15:21:50Z</time>
      </trkpt>
      <trkpt lat="44.65894" lon="1.57358">
        <ele>384.7</ele>
        <time>2023-04-16T15:22:56Z</time>
      </trkpt>
      <trkpt lat="44.65888" lon="1.5735">
        <ele>385.2</ele>
        <time>2023-04-16T15:23:10Z</time>
      </trkpt>
      <trkpt lat="44.6588" lon="1.57341">
        <ele>386.3</ele>
        <time>2023-04-16T15:23:22Z</time>
      </trkpt>
      <trkpt lat="44.65873" lon="1.57332">
        <ele>387.3</ele>
        <time>2023-04-16T15:23:32Z</time>
      </trkpt>
      <trkpt lat="44.65865" lon="1.57325">
        <ele>388</ele>
        <time>2023-04-16T15:23:40Z</time>
      </trkpt>
      <trkpt lat="44.65857" lon="1.57316">
        <ele>388.4</ele>
        <time>2023-04-16T15:23:49Z</time>
      </trkpt>
      <trkpt lat="44.6585" lon="1.57307">
        <ele>389.1</ele>
        <time>2023-04-16T15:23:58Z</time>
      </trkpt>
      <trkpt lat="44.65843" lon="1.57298">
        <ele>389.7</ele>
        <time>2023-04-16T15:24:07Z</time>
      </trkpt>
      <trkpt lat="44.65835" lon="1.5729">
        <ele>390.1</ele>
        <time>2023-04-16T15:24:16Z</time>
      </trkpt>
      <trkpt lat="44.65829" lon="1.57281">
        <ele>390</ele>
        <time>2023-04-16T15:24:24Z</time>
      </trkpt>
      <trkpt lat="44.65823" lon="1.57271">
        <ele>390.2</ele>
        <time>2023-04-16T15:24:31Z</time>
      </trkpt>
      <trkpt lat="44.65816" lon="1.57261">
        <ele>390.5</ele>
        <time>2023-04-16T15:24:39Z</time>
      </trkpt>
      <trkpt lat="44.65811" lon="1.5725">
        <ele>390.5</ele>
        <time>2023-04-16T15:24:48Z</time>
      </trkpt>
      <trkpt lat="44.65803" lon="1.57242">
        <ele>390.9</ele>
        <time>2023-04-16T15:24:55Z</time>
      </trkpt>
      <trkpt lat="44.65796" lon="1.57233">
        <ele>391.6</ele>
        <time>2023-04-16T15:25:05Z</time>
      </trkpt>
      <trkpt lat="44.65789" lon="1.57225">
        <ele>392.2</ele>
        <time>2023-04-16T15:25:14Z</time>
      </trkpt>
      <trkpt lat="44.65785" lon="1.57212">
        <ele>392.1</ele>
        <time>2023-04-16T15:25:23Z</time>
      </trkpt>
      <trkpt lat="44.6578" lon="1.57201">
        <ele>391.5</ele>
        <time>2023-04-16T15:25:31Z</time>
      </trkpt>
      <trkpt lat="44.65773" lon="1.57193">
        <ele>391.6</ele>
        <time>2023-04-16T15:25:39Z</time>
      </trkpt>
      <trkpt lat="44.65766" lon="1.57184">
        <ele>392</ele>
        <time>2023-04-16T15:25:49Z</time>
      </trkpt>
      <trkpt lat="44.65759" lon="1.57175">
        <ele>392.1</ele>
        <time>2023-04-16T15:25:58Z</time>
      </trkpt>
      <trkpt lat="44.65751" lon="1.57168">
        <ele>392</ele>
        <time>2023-04-16T15:26:05Z</time>
      </trkpt>
      <trkpt lat="44.65742" lon="1.57163">
        <ele>393</ele>
        <time>2023-04-16T15:26:12Z</time>
      </trkpt>
      <trkpt lat="44.65733" lon="1.57158">
        <ele>393.7</ele>
        <time>2023-04-16T15:26:19Z</time>
      </trkpt>
      <trkpt lat="44.65725" lon="1.57151">
        <ele>394.1</ele>
        <time>2023-04-16T15:26:27Z</time>
      </trkpt>
      <trkpt lat="44.65716" lon="1.57146">
        <ele>394.5</ele>
        <time>2023-04-16T15:26:35Z</time>
      </trkpt>
      <trkpt lat="44.65708" lon="1.57141">
        <ele>394.9</ele>
        <time>2023-04-16T15:26:43Z</time>
      </trkpt>
      <trkpt lat="44.65699" lon="1.57139">
        <ele>395.5</ele>
        <time>2023-04-16T15:26:51Z</time>
      </trkpt>
      <trkpt lat="44.6569" lon="1.57135">
        <ele>396.3</ele>
        <time>2023-04-16T15:26:58Z</time>
      </trkpt>
      <trkpt lat="44.65683" lon="1.57126">
        <ele>396.3</ele>
        <time>2023-04-16T15:27:06Z</time>
      </trkpt>
      <trkpt lat="44.65675" lon="1.57118">
        <ele>396.3</ele>
        <time>2023-04-16T15:27:15Z</time>
      </trkpt>
      <trkpt lat="44.65667" lon="1.5711">
        <ele>395.8</ele>
        <time>2023-04-16T15:27:23Z</time>
      </trkpt>
      <trkpt lat="44.6566" lon="1.57102">
        <ele>396.4</ele>
        <time>2023-04-16T15:27:30Z</time>
      </trkpt>
      <trkpt lat="44.65652" lon="1.57093">
        <ele>396.7</ele>
        <time>2023-04-16T15:27:38Z</time>
      </trkpt>
      <trkpt lat="44.65645" lon="1.57086">
        <ele>396.7</ele>
        <time>2023-04-16T15:27:46Z</time>
      </trkpt>
      <trkpt lat="44.65638" lon="1.57077">
        <ele>397.1</ele>
        <time>2023-04-16T15:27:54Z</time>
      </trkpt>
      <trkpt lat="44.65631" lon="1.57067">
        <ele>397.6</ele>
        <time>2023-04-16T15:28:03Z</time>
      </trkpt>
      <trkpt lat="44.65624" lon="1.57059">
        <ele>397.7</ele>
        <time>2023-04-16T15:28:12Z</time>
      </trkpt>
      <trkpt lat="44.65616" lon="1.57052">
        <ele>397.7</ele>
        <time>2023-04-16T15:28:20Z</time>
      </trkpt>
      <trkpt lat="44.65608" lon="1.57048">
        <ele>397.8</ele>
        <time>2023-04-16T15:28:28Z</time>
      </trkpt>
      <trkpt lat="44.65598" lon="1.57045">
        <ele>397.9</ele>
        <time>2023-04-16T15:28:37Z</time>
      </trkpt>
      <trkpt lat="44.65588" lon="1.57045">
        <ele>398.1</ele>
        <time>2023-04-16T15:28:45Z</time>
      </trkpt>
      <trkpt lat="44.65579" lon="1.57046">
        <ele>398.2</ele>
        <time>2023-04-16T15:28:52Z</time>
      </trkpt>
      <trkpt lat="44.65569" lon="1.57048">
        <ele>398.1</ele>
        <time>2023-04-16T15:29:00Z</time>
      </trkpt>
      <trkpt lat="44.65561" lon="1.57052">
        <ele>398</ele>
        <time>2023-04-16T15:29:07Z</time>
      </trkpt>
      <trkpt lat="44.65551" lon="1.57054">
        <ele>397.8</ele>
        <time>2023-04-16T15:29:15Z</time>
      </trkpt>
      <trkpt lat="44.65542" lon="1.57057">
        <ele>397.7</ele>
        <time>2023-04-16T15:29:23Z</time>
      </trkpt>
      <trkpt lat="44.65533" lon="1.57061">
        <ele>397.8</ele>
        <time>2023-04-16T15:29:31Z</time>
      </trkpt>
      <trkpt lat="44.65524" lon="1.57064">
        <ele>397.9</ele>
        <time>2023-04-16T15:29:39Z</time>
      </trkpt>
      <trkpt lat="44.65515" lon="1.57067">
        <ele>398</ele>
        <time>2023-04-16T15:29:46Z</time>
      </trkpt>
      <trkpt lat="44.65506" lon="1.57069">
        <ele>398.1</ele>
        <time>2023-04-16T15:29:54Z</time>
      </trkpt>
      <trkpt lat="44.65497" lon="1.57073">
        <ele>398.3</ele>
        <time>2023-04-16T15:30:03Z</time>
      </trkpt>
      <trkpt lat="44.65488" lon="1.5707">
        <ele>398.4</ele>
        <time>2023-04-16T15:30:13Z</time>
      </trkpt>
      <trkpt lat="44.65481" lon="1.57062">
        <ele>398.9</ele>
        <time>2023-04-16T15:30:24Z</time>
      </trkpt>
      <trkpt lat="44.65476" lon="1.57051">
        <ele>399.8</ele>
        <time>2023-04-16T15:30:34Z</time>
      </trkpt>
      <trkpt lat="44.6547" lon="1.5704">
        <ele>400.7</ele>
        <time>2023-04-16T15:30:44Z</time>
      </trkpt>
      <trkpt lat="44.65465" lon="1.57028">
        <ele>401.5</ele>
        <time>2023-04-16T15:30:52Z</time>
      </trkpt>
      <trkpt lat="44.65463" lon="1.57015">
        <ele>402.8</ele>
        <time>2023-04-16T15:31:01Z</time>
      </trkpt>
      <trkpt lat="44.65457" lon="1.57004">
        <ele>404.2</ele>
        <time>2023-04-16T15:31:10Z</time>
      </trkpt>
      <trkpt lat="44.65451" lon="1.56995">
        <ele>405</ele>
        <time>2023-04-16T15:31:20Z</time>
      </trkpt>
      <trkpt lat="44.65443" lon="1.56987">
        <ele>405.4</ele>
        <time>2023-04-16T15:31:29Z</time>
      </trkpt>
      <trkpt lat="44.65436" lon="1.56978">
        <ele>405.9</ele>
        <time>2023-04-16T15:31:37Z</time>
      </trkpt>
      <trkpt lat="44.65429" lon="1.56969">
        <ele>406.6</ele>
        <time>2023-04-16T15:31:46Z</time>
      </trkpt>
      <trkpt lat="44.65421" lon="1.56959">
        <ele>407.3</ele>
        <time>2023-04-16T15:31:55Z</time>
      </trkpt>
      <trkpt lat="44.65415" lon="1.5695">
        <ele>407.8</ele>
        <time>2023-04-16T15:32:03Z</time>
      </trkpt>
      <trkpt lat="44.65407" lon="1.56944">
        <ele>409.2</ele>
        <time>2023-04-16T15:32:10Z</time>
      </trkpt>
      <trkpt lat="44.654" lon="1.56937">
        <ele>410.2</ele>
        <time>2023-04-16T15:32:18Z</time>
      </trkpt>
      <trkpt lat="44.65394" lon="1.56927">
        <ele>410.7</ele>
        <time>2023-04-16T15:32:27Z</time>
      </trkpt>
      <trkpt lat="44.65388" lon="1.56916">
        <ele>411.2</ele>
        <time>2023-04-16T15:32:37Z</time>
      </trkpt>
      <trkpt lat="44.65382" lon="1.56906">
        <ele>412.4</ele>
        <time>2023-04-16T15:32:45Z</time>
      </trkpt>
      <trkpt lat="44.65377" lon="1.56893">
        <ele>413.2</ele>
        <time>2023-04-16T15:32:54Z</time>
      </trkpt>
      <trkpt lat="44.65371" lon="1.56882">
        <ele>414</ele>
        <time>2023-04-16T15:33:03Z</time>
      </trkpt>
      <trkpt lat="44.65368" lon="1.5687">
        <ele>414.1</ele>
        <time>2023-04-16T15:33:11Z</time>
      </trkpt>
      <trkpt lat="44.65361" lon="1.5686">
        <ele>414.9</ele>
        <time>2023-04-16T15:33:19Z</time>
      </trkpt>
      <trkpt lat="44.65354" lon="1.56851">
        <ele>415.2</ele>
        <time>2023-04-16T15:33:28Z</time>
      </trkpt>
      <trkpt lat="44.65345" lon="1.56845">
        <ele>415.5</ele>
        <time>2023-04-16T15:33:37Z</time>
      </trkpt>
      <trkpt lat="44.65337" lon="1.5684">
        <ele>415.5</ele>
        <time>2023-04-16T15:33:44Z</time>
      </trkpt>
      <trkpt lat="44.65327" lon="1.56836">
        <ele>415.3</ele>
        <time>2023-04-16T15:33:51Z</time>
      </trkpt>
      <trkpt lat="44.65318" lon="1.56835">
        <ele>415.2</ele>
        <time>2023-04-16T15:33:58Z</time>
      </trkpt>
      <trkpt lat="44.65308" lon="1.56834">
        <ele>415.1</ele>
        <time>2023-04-16T15:34:05Z</time>
      </trkpt>
      <trkpt lat="44.65299" lon="1.56831">
        <ele>414.8</ele>
        <time>2023-04-16T15:34:13Z</time>
      </trkpt>
      <trkpt lat="44.65289" lon="1.56828">
        <ele>414.5</ele>
        <time>2023-04-16T15:34:21Z</time>
      </trkpt>
      <trkpt lat="44.6528" lon="1.56827">
        <ele>414.5</ele>
        <time>2023-04-16T15:34:28Z</time>
      </trkpt>
      <trkpt lat="44.6527" lon="1.56824">
        <ele>414.5</ele>
        <time>2023-04-16T15:34:36Z</time>
      </trkpt>
      <trkpt lat="44.65261" lon="1.56822">
        <ele>414.7</ele>
        <time>2023-04-16T15:34:44Z</time>
      </trkpt>
      <trkpt lat="44.6525" lon="1.56821">
        <ele>415</ele>
        <time>2023-04-16T15:34:53Z</time>
      </trkpt>
      <trkpt lat="44.65241" lon="1.56823">
        <ele>415.5</ele>
        <time>2023-04-16T15:35:00Z</time>
      </trkpt>
      <trkpt lat="44.65232" lon="1.56825">
        <ele>415.9</ele>
        <time>2023-04-16T15:35:09Z</time>
      </trkpt>
      <trkpt lat="44.65222" lon="1.56824">
        <ele>416.3</ele>
        <time>2023-04-16T15:35:19Z</time>
      </trkpt>
      <trkpt lat="44.65213" lon="1.56823">
        <ele>416.9</ele>
        <time>2023-04-16T15:35:27Z</time>
      </trkpt>
      <trkpt lat="44.65203" lon="1.56823">
        <ele>417.5</ele>
        <time>2023-04-16T15:35:36Z</time>
      </trkpt>
      <trkpt lat="44.65194" lon="1.56822">
        <ele>418</ele>
        <time>2023-04-16T15:35:45Z</time>
      </trkpt>
      <trkpt lat="44.65184" lon="1.5682">
        <ele>418.9</ele>
        <time>2023-04-16T15:35:54Z</time>
      </trkpt>
      <trkpt lat="44.65176" lon="1.56813">
        <ele>419.5</ele>
        <time>2023-04-16T15:36:03Z</time>
      </trkpt>
      <trkpt lat="44.65167" lon="1.56807">
        <ele>420</ele>
        <time>2023-04-16T15:36:13Z</time>
      </trkpt>
      <trkpt lat="44.65158" lon="1.56802">
        <ele>420.6</ele>
        <time>2023-04-16T15:36:21Z</time>
      </trkpt>
      <trkpt lat="44.65149" lon="1.56798">
        <ele>421.1</ele>
        <time>2023-04-16T15:36:29Z</time>
      </trkpt>
      <trkpt lat="44.65141" lon="1.56794">
        <ele>421.6</ele>
        <time>2023-04-16T15:36:37Z</time>
      </trkpt>
      <trkpt lat="44.65132" lon="1.56791">
        <ele>422</ele>
        <time>2023-04-16T15:36:46Z</time>
      </trkpt>
      <trkpt lat="44.65123" lon="1.56785">
        <ele>422.4</ele>
        <time>2023-04-16T15:36:54Z</time>
      </trkpt>
      <trkpt lat="44.65113" lon="1.56782">
        <ele>423</ele>
        <time>2023-04-16T15:37:03Z</time>
      </trkpt>
      <trkpt lat="44.65104" lon="1.56778">
        <ele>423.8</ele>
        <time>2023-04-16T15:37:12Z</time>
      </trkpt>
      <trkpt lat="44.65095" lon="1.56774">
        <ele>424.5</ele>
        <time>2023-04-16T15:37:21Z</time>
      </trkpt>
      <trkpt lat="44.65085" lon="1.5677">
        <ele>425.3</ele>
        <time>2023-04-16T15:37:30Z</time>
      </trkpt>
      <trkpt lat="44.65075" lon="1.56767">
        <ele>426.2</ele>
        <time>2023-04-16T15:37:40Z</time>
      </trkpt>
      <trkpt lat="44.65066" lon="1.56764">
        <ele>427.2</ele>
        <time>2023-04-16T15:37:49Z</time>
      </trkpt>
      <trkpt lat="44.65057" lon="1.5676">
        <ele>428.1</ele>
        <time>2023-04-16T15:37:59Z</time>
      </trkpt>
      <trkpt lat="44.65049" lon="1.56755">
        <ele>428.9</ele>
        <time>2023-04-16T15:39:03Z</time>
      </trkpt>
      <trkpt lat="44.6504" lon="1.56753">
        <ele>429.8</ele>
        <time>2023-04-16T15:39:50Z</time>
      </trkpt>
      <trkpt lat="44.65031" lon="1.56752">
        <ele>430.7</ele>
        <time>2023-04-16T15:40:00Z</time>
      </trkpt>
      <trkpt lat="44.65021" lon="1.56748">
        <ele>431.9</ele>
        <time>2023-04-16T15:40:11Z</time>
      </trkpt>
      <trkpt lat="44.65013" lon="1.56746">
        <ele>433.3</ele>
        <time>2023-04-16T15:40:21Z</time>
      </trkpt>
      <trkpt lat="44.65003" lon="1.56746">
        <ele>434.7</ele>
        <time>2023-04-16T15:40:33Z</time>
      </trkpt>
      <trkpt lat="44.64994" lon="1.56744">
        <ele>436.1</ele>
        <time>2023-04-16T15:40:43Z</time>
      </trkpt>
      <trkpt lat="44.64984" lon="1.56744">
        <ele>437.3</ele>
        <time>2023-04-16T15:40:53Z</time>
      </trkpt>
      <trkpt lat="44.64975" lon="1.56742">
        <ele>438.6</ele>
        <time>2023-04-16T15:41:02Z</time>
      </trkpt>
      <trkpt lat="44.64966" lon="1.56741">
        <ele>439.5</ele>
        <time>2023-04-16T15:41:11Z</time>
      </trkpt>
      <trkpt lat="44.64957" lon="1.56737">
        <ele>440.3</ele>
        <time>2023-04-16T15:42:01Z</time>
      </trkpt>
      <trkpt lat="44.64948" lon="1.56738">
        <ele>441.1</ele>
        <time>2023-04-16T15:42:09Z</time>
      </trkpt>
      <trkpt lat="44.64938" lon="1.56738">
        <ele>442.1</ele>
        <time>2023-04-16T15:42:21Z</time>
      </trkpt>
      <trkpt lat="44.64929" lon="1.5674">
        <ele>443.1</ele>
        <time>2023-04-16T15:42:31Z</time>
      </trkpt>
      <trkpt lat="44.64919" lon="1.56741">
        <ele>444.1</ele>
        <time>2023-04-16T15:42:41Z</time>
      </trkpt>
      <trkpt lat="44.64909" lon="1.56742">
        <ele>444.4</ele>
        <time>2023-04-16T15:42:49Z</time>
      </trkpt>
      <trkpt lat="44.649" lon="1.56744">
        <ele>444.6</ele>
        <time>2023-04-16T15:42:59Z</time>
      </trkpt>
      <trkpt lat="44.64891" lon="1.56749">
        <ele>444.9</ele>
        <time>2023-04-16T15:43:08Z</time>
      </trkpt>
      <trkpt lat="44.64882" lon="1.5675">
        <ele>445</ele>
        <time>2023-04-16T15:43:16Z</time>
      </trkpt>
      <trkpt lat="44.64873" lon="1.5675">
        <ele>445</ele>
        <time>2023-04-16T15:43:24Z</time>
      </trkpt>
      <trkpt lat="44.64863" lon="1.56749">
        <ele>445</ele>
        <time>2023-04-16T15:43:33Z</time>
      </trkpt>
      <trkpt lat="44.64854" lon="1.56749">
        <ele>445</ele>
        <time>2023-04-16T15:43:42Z</time>
      </trkpt>
      <trkpt lat="44.64845" lon="1.56754">
        <ele>445.1</ele>
        <time>2023-04-16T15:44:00Z</time>
      </trkpt>
      <trkpt lat="44.64836" lon="1.56748">
        <ele>444.9</ele>
        <time>2023-04-16T15:44:37Z</time>
      </trkpt>
      <trkpt lat="44.64826" lon="1.56746">
        <ele>444.8</ele>
        <time>2023-04-16T15:44:48Z</time>
      </trkpt>
      <trkpt lat="44.64817" lon="1.56741">
        <ele>444.6</ele>
        <time>2023-04-16T15:44:58Z</time>
      </trkpt>
      <trkpt lat="44.64807" lon="1.56741">
        <ele>444.6</ele>
        <time>2023-04-16T15:45:08Z</time>
      </trkpt>
      <trkpt lat="44.64797" lon="1.56741">
        <ele>444.7</ele>
        <time>2023-04-16T15:45:17Z</time>
      </trkpt>
      <trkpt lat="44.64787" lon="1.56741">
        <ele>444.7</ele>
        <time>2023-04-16T15:45:25Z</time>
      </trkpt>
      <trkpt lat="44.64778" lon="1.56741">
        <ele>444.7</ele>
        <time>2023-04-16T15:45:34Z</time>
      </trkpt>
      <trkpt lat="44.64769" lon="1.56738">
        <ele>444.9</ele>
        <time>2023-04-16T15:45:42Z</time>
      </trkpt>
      <trkpt lat="44.6476" lon="1.56735">
        <ele>445.1</ele>
        <time>2023-04-16T15:45:50Z</time>
      </trkpt>
      <trkpt lat="44.6475" lon="1.56731">
        <ele>445.3</ele>
        <time>2023-04-16T15:45:59Z</time>
      </trkpt>
      <trkpt lat="44.64742" lon="1.56726">
        <ele>445.1</ele>
        <time>2023-04-16T15:46:06Z</time>
      </trkpt>
      <trkpt lat="44.64733" lon="1.56724">
        <ele>445</ele>
        <time>2023-04-16T15:46:15Z</time>
      </trkpt>
      <trkpt lat="44.64725" lon="1.56717">
        <ele>444.8</ele>
        <time>2023-04-16T15:46:23Z</time>
      </trkpt>
      <trkpt lat="44.64715" lon="1.56713">
        <ele>444.3</ele>
        <time>2023-04-16T15:46:31Z</time>
      </trkpt>
      <trkpt lat="44.64706" lon="1.56709">
        <ele>443.7</ele>
        <time>2023-04-16T15:46:40Z</time>
      </trkpt>
      <trkpt lat="44.64697" lon="1.56706">
        <ele>443</ele>
        <time>2023-04-16T15:46:49Z</time>
      </trkpt>
      <trkpt lat="44.64687" lon="1.56703">
        <ele>442.4</ele>
        <time>2023-04-16T15:46:58Z</time>
      </trkpt>
      <trkpt lat="44.64678" lon="1.567">
        <ele>441.8</ele>
        <time>2023-04-16T15:47:06Z</time>
      </trkpt>
      <trkpt lat="44.64669" lon="1.56697">
        <ele>441.3</ele>
        <time>2023-04-16T15:47:14Z</time>
      </trkpt>
      <trkpt lat="44.6466" lon="1.56693">
        <ele>441.2</ele>
        <time>2023-04-16T15:47:22Z</time>
      </trkpt>
      <trkpt lat="44.64651" lon="1.56688">
        <ele>441.1</ele>
        <time>2023-04-16T15:47:33Z</time>
      </trkpt>
      <trkpt lat="44.64644" lon="1.56681">
        <ele>440.9</ele>
        <time>2023-04-16T15:47:44Z</time>
      </trkpt>
      <trkpt lat="44.64634" lon="1.56683">
        <ele>441.2</ele>
        <time>2023-04-16T15:48:13Z</time>
      </trkpt>
      <trkpt lat="44.64627" lon="1.56691">
        <ele>441.8</ele>
        <time>2023-04-16T15:48:25Z</time>
      </trkpt>
      <trkpt lat="44.64623" lon="1.56703">
        <ele>442.2</ele>
        <time>2023-04-16T15:48:38Z</time>
      </trkpt>
      <trkpt lat="44.64615" lon="1.56711">
        <ele>442.5</ele>
        <time>2023-04-16T15:48:54Z</time>
      </trkpt>
      <trkpt lat="44.64609" lon="1.56702">
        <ele>442.4</ele>
        <time>2023-04-16T15:49:21Z</time>
      </trkpt>
      <trkpt lat="44.64605" lon="1.56715">
        <ele>442.9</ele>
        <time>2023-04-16T15:50:32Z</time>
      </trkpt>
      <trkpt lat="44.64601" lon="1.56727">
        <ele>443.5</ele>
        <time>2023-04-16T15:50:38Z</time>
      </trkpt>
      <trkpt lat="44.64608" lon="1.56717">
        <ele>442.9</ele>
        <time>2023-04-16T15:53:02Z</time>
      </trkpt>
      <trkpt lat="44.64613" lon="1.56706">
        <ele>442.4</ele>
        <time>2023-04-16T15:53:59Z</time>
      </trkpt>
    </trkseg>
  </trk>
</gpx>